[[[{"header":{"parameterUnit":"kt","parameterCategory":2,"dx":1,"dy":1,"la1":29.285339999999998,"la2":30.599998999999997,"lo1":-89.70041500000002,"lo2":-87.6738589999976,"nx":112,"ny":82,"refTime":"2022-09-24T06:00:00:Z","depth":0,"parameterNumber":1,"parameterNumberName":"U-component_of_WINDS"},"data":[9.5847,9.6491,9.6278,9.1793,9.0717,8.9562,8.5135,8.4612,8.5038,8.5059,8.591,8.7056,8.8253,8.6972,8.5433,8.437,8.415,8.365,0.0,8.43,8.6452,8.8636,9.082,0.0,0.0,9.5289,9.8319,10.3507,10.3318,10.4984,10.9567,10.9832,10.9832,10.9832,10.9832,10.9832,10.9832,10.9832,10.9827,10.9819,10.9823,10.9844,10.983,10.9872,10.9939,11.0033,11.0033,11.0033,11.0033,11.0033,11.0033,11.0033,11.0033,11.0033,11.0033,11.0033,10.998,10.9894,10.9894,10.9949,11.0033,11.0033,11.0033,11.0033,11.0033,11.0033,11.0033,11.0033,11.0033,11.0033,11.0033,11.0033,11.0033,11.0033,11.0033,11.0033,11.0033,11.0033,10.9844,10.9236,10.825,10.677,10.4456,10.3166,10.1838,10.0168,9.9903,9.9903,9.9903,9.9903,9.9903,9.9903,9.9903,9.9903,9.9903,9.9924,9.9916,9.9916,9.9859,9.9848,9.9848,9.9848,9.9572,9.8956,9.9525,9.9498,9.8811,9.9417,9.972,9.972,9.96,9.9526,9.4156,9.4813,9.4458,8.94,8.8586,8.7693,8.2694,8.2891,8.3808,8.2656,8.4226,8.5636,8.5053,8.4947,8.4384,8.2677,8.3853,8.4567,0.0,8.4623,8.6639,8.9458,9.2803,9.5289,9.6387,9.7448,9.9947,10.4454,10.3697,10.506,10.9605,10.9832,10.9832,10.9832,10.9832,10.9832,10.9832,10.9832,10.9827,10.9819,10.9819,10.9833,10.9818,10.9818,10.9872,10.9949,10.9949,10.9973,11.0033,11.0033,11.0033,11.0033,11.0033,11.0033,11.0033,11.0033,10.998,10.9894,10.9828,10.9894,10.9942,11.0003,11.0033,11.0033,11.0033,11.0033,11.0033,11.0033,11.0033,11.0033,11.0033,11.0033,11.0033,11.0033,11.0033,11.0033,11.0033,11.0033,11.0033,11.0033,10.9123,10.7643,10.5366,10.4532,10.3166,10.0358,10.0396,10.0548,9.9978,9.9903,9.9903,9.9903,9.9903,9.9903,9.9903,9.9903,9.9903,9.9903,9.9903,9.9903,9.9903,9.9903,9.9924,9.9934,9.9934,9.9876,9.979,9.979,9.979,9.979,9.979,9.9777,9.2653,9.226,9.1154,8.6243,8.629,8.6222,8.1197,8.3815,8.6395,8.317,8.5029,8.6737,8.5143,8.4877,8.4308,8.2677,8.3929,0.0,0.0,8.6529,8.8225,8.9931,9.3019,9.6311,9.9569,9.7031,9.7902,10.4454,10.1803,10.2788,10.9453,10.9832,10.9832,10.9832,10.9832,10.9832,10.9832,10.9832,10.9819,10.9833,10.9833,10.9844,10.9813,10.9813,10.983,10.983,10.983,10.9894,11.0041,11.0033,11.0033,11.0033,11.0033,11.0033,11.0033,11.0033,11.0033,11.0003,10.986,10.983,10.9866,10.9973,11.0033,11.0033,11.0033,11.0033,11.0033,11.0033,11.0033,11.0033,11.0033,11.0033,11.0033,11.0033,11.0033,11.0033,11.0033,11.0033,11.0033,11.0033,11.0033,10.8971,10.5556,10.6353,10.5784,10.0813,10.142,10.1838,10.0206,9.9941,9.9903,9.9903,9.9903,9.9903,9.9903,9.9903,9.9903,9.9903,9.9903,9.9903,9.9903,9.9903,9.9903,9.9903,9.9903,9.9903,9.9903,9.9903,9.9903,9.9903,9.9903,9.9916,8.9249,9.052,9.1439,8.7709,8.8058,8.8285,8.4422,8.3663,8.3891,8.4194,8.3056,0.0,0.0,0.0,8.298,8.2487,0.0,8.808,8.6957,9.1306,9.5204,9.6796,9.7817,9.972,10.3053,10.2598,10.3848,10.8128,10.5287,10.5287,10.9605,10.9832,10.9832,10.9832,10.9832,10.9832,10.9832,10.9832,10.9811,10.9819,10.9819,10.9836,10.9835,10.9835,10.9835,10.9828,10.9828,10.983,10.9872,10.9904,10.9898,10.9894,10.9973,10.9942,10.9898,10.9898,10.9898,10.9894,10.9949,10.9889,10.9866,10.9973,11.0033,11.0033,11.0033,11.0033,11.0033,11.0033,11.0033,11.0033,11.0033,11.0033,11.0033,11.0033,11.0033,11.0033,11.0033,11.0033,11.0033,11.0033,11.0033,10.8971,10.5556,10.6353,10.658,10.3962,10.2938,10.2255,10.18,10.0661,9.9903,9.9903,9.9903,9.9903,9.9903,9.9903,9.9903,9.9903,9.9903,9.9903,9.9903,9.9903,9.9903,9.9903,9.9903,9.9903,9.9903,9.9903,9.9903,9.9903,9.9906,9.9914,8.7912,8.937,9.0706,8.8096,8.8748,8.8937,8.4839,8.4764,8.5295,8.4119,0.0,0.0,0.0,0.0,0.0,0.0,8.7056,8.9741,8.9522,9.4064,9.7958,9.9536,10.2235,10.4151,10.4719,10.4795,10.6158,10.9567,10.6689,10.6234,10.9643,10.9832,10.9832,10.9832,10.9832,10.9832,10.9832,10.9832,10.9832,10.9832,10.9832,10.9842,10.9823,10.9823,10.9833,10.9828,10.9828,10.9841,10.9818,10.9832,10.9834,10.9834,10.9906,10.987,10.9834,10.9834,10.9834,10.9835,10.9906,10.9904,10.9828,10.9922,10.998,11.0033,11.0033,11.0033,11.0033,11.0033,11.0033,11.0033,11.0033,11.0033,11.0033,11.0033,11.0033,11.0033,11.0033,11.0033,11.0033,11.0033,11.0033,10.9161,10.6467,10.7453,10.7757,10.5328,10.4114,10.3242,10.2521,10.0965,9.9903,9.9903,9.9903,9.9903,9.9903,9.9903,9.9903,9.9903,9.9903,9.9903,9.9903,9.9903,9.9903,9.9903,9.9903,9.9903,9.9903,9.9903,9.9903,9.9903,9.9916,9.9897,8.7693,8.8543,8.962,8.814,8.8899,8.8861,8.4574,0.0,8.8823,8.4688,0.0,8.7344,8.6054,0.0,0.0,8.5788,8.8536,9.1174,9.2691,9.5974,9.8892,10.0635,10.6174,10.862,10.5666,10.5363,10.6613,10.9605,10.703,10.6651,10.9681,10.9832,10.9832,10.9832,10.9832,10.9832,10.9832,10.9832,10.9832,10.9832,10.9832,10.9832,10.9832,10.9832,10.9933,11.0087,10.9898,10.9911,11.0069,10.9922,10.9813,10.9808,10.9846,10.9846,10.9813,10.9813,10.9813,10.9818,10.9818,10.9832,10.9832,10.9832,10.9894,11.0003,11.0003,11.0003,11.0003,11.0003,11.0011,11.0018,11.0018,11.0011,11.0003,11.0003,10.9995,11.0033,11.0033,11.0033,11.0033,11.0033,11.0033,10.954,10.8022,10.9047,10.9009,10.6011,10.5366,10.4645,10.2938,10.1269,10.013,9.9941,9.9903,9.9903,9.9903,9.9903,9.9903,9.9903,9.9903,9.9903,9.9903,9.9903,9.9903,9.9903,9.9903,9.9903,9.9903,9.9903,9.9903,9.9903,9.9903,9.9903,8.6274,8.7685,8.9924,8.9582,8.9772,9.0113,0.0,0.0,0.0,9.2124,9.091,8.981,9.0872,9.1062,9.1062,9.1062,9.38,9.6046,9.6369,10.0434,10.447,10.75,10.9053,10.9567,10.8923,10.8847,10.9113,10.9756,10.9226,10.915,10.9794,10.9832,10.9832,10.9832,10.9832,10.9832,10.9832,10.9832,10.9832,10.9832,10.9832,10.9832,10.9832,10.9832,11.0493,11.1645,11.0373,11.0524,11.1615,11.0364,10.9826,10.9816,10.9823,10.9848,10.9826,10.9826,10.9821,10.9818,10.9818,10.9822,10.9825,10.9825,10.9835,10.9863,10.9863,10.9863,10.9863,10.9863,10.9871,10.987,10.987,10.9872,10.9863,10.9863,10.9955,11.0033,11.0033,11.0033,11.0033,11.0033,11.0033,10.9919,10.9578,10.9806,10.9806,10.9161,10.7871,10.6391,10.4683,10.3014,10.142,10.0054,9.9903,9.9903,9.9903,9.9903,9.9903,9.9903,9.9903,9.9903,9.9903,9.9903,9.9903,9.9903,9.9903,9.9903,9.9903,9.9903,9.9903,9.9903,9.9903,9.9903,8.5409,8.6774,8.8937,8.9772,9.0,0.0,0.0,9.0,9.0455,9.2086,9.1821,9.1783,9.3414,9.368,9.368,9.368,9.5763,9.8283,10.0748,10.3921,10.697,10.9508,10.9832,10.9832,10.9832,10.9832,10.9832,10.9832,10.9832,10.9832,10.9832,10.9832,10.9832,10.9832,10.9832,10.9832,10.9832,11.059,11.1006,11.1006,11.1839,11.2256,11.2256,11.2256,11.2673,11.3392,11.2597,11.271,11.3296,11.1676,11.1515,11.2259,11.2251,11.1775,11.0985,11.0985,11.0531,10.9816,10.9806,10.9821,10.9821,10.9813,10.9828,10.9834,10.9834,10.9834,10.9834,10.9834,10.9828,10.9818,10.9818,10.9828,10.9834,10.9834,10.9872,10.9942,10.9927,10.9922,10.9955,11.0003,10.996,10.9942,10.9927,10.9922,10.9955,10.9995,10.8591,10.7188,10.6353,10.4,10.2103,10.1269,10.0434,9.9903,9.9903,9.9903,9.9903,9.9903,9.9903,9.9903,9.9903,9.9903,9.9903,9.9903,9.9903,9.9903,9.9903,9.9903,9.9903,9.9903,9.9903,9.9903,8.465,8.594,8.7799,8.9165,8.9506,0.0,8.9013,8.9962,9.1138,9.1783,9.2997,9.4363,9.5615,9.5843,9.5843,9.5843,9.7251,9.9989,10.4604,10.646,10.7932,10.9621,10.9832,10.9681,10.934,10.9643,10.9681,10.934,10.9643,10.9832,10.9832,10.9832,10.9832,10.9832,11.0097,11.0287,11.0287,11.1877,11.2635,11.2673,11.4036,11.468,11.468,11.468,11.4869,11.5134,11.4831,11.4869,11.5059,11.3354,11.3657,11.5134,11.4831,11.3847,11.2635,11.2635,11.1839,11.072,11.0392,11.0265,11.025,10.9928,10.9835,10.9846,10.9846,10.9813,10.9818,10.9808,10.9835,10.9828,10.9828,10.9835,10.9846,10.9846,10.9813,10.9825,10.9835,10.9834,10.9832,10.9898,10.9834,10.978,10.9796,10.9796,10.9868,10.9942,10.881,10.7823,10.7513,10.5085,10.3263,10.2959,10.1428,10.0396,10.0396,10.0092,9.9903,9.9903,9.9903,9.9903,9.9903,9.9903,9.9903,9.9903,9.9903,9.9903,9.9903,9.9903,9.9903,9.9903,9.9903,9.9903,8.3511,8.5029,8.7495,8.7723,8.7761,0.0,9.3073,9.4173,9.516,9.8195,9.8954,9.9144,9.9296,9.9333,9.9333,9.9333,10.075,10.3082,10.6537,10.719,10.7901,10.9643,10.9832,10.9226,10.7749,10.8961,10.9188,10.7673,10.8961,10.9832,10.9832,10.9832,10.9832,10.9832,11.1158,11.1915,11.1915,11.3544,11.4415,11.4415,11.4604,11.468,11.468,11.468,11.5513,11.6839,11.5362,11.5551,11.6801,11.5096,11.5399,11.6801,11.5248,11.4566,11.4415,11.4415,11.4301,11.3922,11.2424,11.191,11.1683,11.0297,10.9836,10.9816,10.9816,10.9821,10.9808,10.9835,10.9836,10.9842,10.9842,10.9836,10.9816,10.9816,10.9828,10.9818,10.9822,10.9822,10.9775,10.956,10.9607,10.9662,10.9669,10.9733,10.983,10.983,10.9682,10.9035,10.7515,10.6981,10.6221,10.4817,10.3199,10.2179,10.2179,10.0775,9.9903,9.9903,9.9903,9.9903,9.9903,9.9903,9.9903,9.9903,9.9903,9.9903,9.9903,9.9903,9.9903,9.9903,9.9903,9.9903,8.2791,8.4877,8.7457,8.7457,0.0,0.0,9.3035,9.4211,9.5539,9.7968,9.8423,9.8764,9.9751,9.9903,10.0244,10.1231,10.2816,10.4354,10.5627,10.7535,10.9009,10.9735,10.9832,10.915,10.7446,10.8847,10.9113,10.7446,10.8885,10.9832,10.9832,10.9832,11.0211,11.1158,11.1802,11.2635,11.3619,11.5324,11.6157,11.6157,11.7142,11.7634,11.7634,11.7634,11.8013,11.8657,11.7937,11.8013,11.8619,11.7937,11.8051,11.8619,11.7899,11.7028,11.6157,11.6157,11.5551,11.4604,11.3885,11.2976,11.2029,11.1294,11.0403,10.9605,10.9515,10.9495,10.9491,10.9515,10.9475,10.9509,10.9509,10.9475,10.9496,10.9496,10.9495,10.9524,10.9595,10.9608,10.9568,10.9382,10.9382,10.9436,10.9516,10.9544,10.9594,10.9594,10.9677,10.9455,10.8751,10.7854,10.7061,10.6415,10.4823,10.3416,10.253,10.1804,10.0959,9.9978,9.9903,9.9903,9.9903,9.9903,9.9903,9.9903,9.9903,9.9903,9.9903,9.9903,9.9903,9.9903,9.9903,9.9903,8.2411,0.0,0.0,0.0,0.0,0.0,9.3566,9.4742,9.6032,9.774,9.8081,9.8461,9.9675,9.9903,10.0472,10.2179,10.384,10.5074,10.545,10.7965,10.9834,10.9827,10.9432,10.8469,10.6764,10.7711,10.7711,10.6045,10.7901,10.9113,10.9113,10.9567,11.0552,11.2105,11.2597,11.3657,11.5362,11.7066,11.7899,11.7937,11.9149,11.9755,11.9755,11.9755,11.9755,11.9755,11.9755,11.9755,11.9755,11.9755,11.9755,11.9755,11.9755,11.8979,11.7862,11.7862,11.7048,11.593,11.5438,11.4472,11.3299,11.2231,11.1113,10.9994,10.9409,10.9233,10.9233,10.9233,10.9233,10.9233,10.9233,10.9233,10.9233,10.9233,10.9233,10.9282,10.9379,10.9298,10.9268,10.9155,10.9155,10.9233,10.9336,10.9379,10.942,10.9425,10.9506,10.9532,10.9556,10.8574,10.7916,10.7924,10.6419,10.4807,10.3229,10.2659,10.167,10.002,9.9897,9.9923,9.9923,9.991,9.9903,9.9903,9.9903,9.9903,9.9903,9.9903,9.9903,9.9903,9.9903,9.9903,0.0,0.0,0.0,8.9089,9.0,9.1328,9.6146,9.7285,9.7816,9.9485,9.9827,9.9865,9.9903,9.9903,10.0472,10.2179,10.387,10.5482,10.6999,10.8723,10.9819,10.9819,10.8371,10.6727,10.5022,10.4909,10.4227,10.2523,10.5515,10.737,10.737,10.8923,11.0552,11.2105,11.3733,11.5437,11.7104,11.8808,11.9679,11.9679,11.9717,11.9755,11.9755,11.9755,11.9755,11.9755,11.9755,11.9755,11.9755,11.9755,11.9755,11.9755,11.9755,11.9622,11.9477,11.9477,11.9368,11.9001,11.7313,11.6747,11.6143,11.2858,11.1763,11.1423,10.9761,10.9233,10.9233,10.9233,10.9233,10.9233,10.9233,10.9233,10.9233,10.9233,10.9233,10.9233,10.9233,10.9054,10.8874,10.8878,10.9001,10.9054,10.9054,10.9155,10.9306,10.9401,10.9336,10.9291,10.942,10.9401,10.9399,10.9554,10.8051,10.6406,10.4845,10.3213,10.1581,10.0028,9.9926,9.9922,9.9922,9.9929,9.9903,9.9903,9.9903,9.9903,9.9903,9.9903,9.9903,9.9903,9.9903,9.9903,8.2715,8.6129,9.0,9.0,9.2466,9.535,9.7019,9.8271,9.922,9.9789,9.9903,9.9903,9.9903,9.9903,10.0092,10.0661,10.312,10.516,10.5672,10.8077,10.9836,10.9819,10.8327,10.6644,10.4946,10.4795,10.4075,10.2371,10.5363,10.7295,10.7295,10.8923,11.0059,11.059,11.3279,11.6043,11.8846,11.9452,11.9755,11.9755,11.9755,11.9755,11.9755,11.9755,11.9755,11.9755,11.9755,11.9755,11.9755,11.9755,11.9679,11.9619,11.9619,11.953,11.9431,11.9431,11.9406,11.9276,11.871,11.7766,11.6455,11.4108,11.3334,11.2776,10.986,10.9754,11.0432,10.9302,10.9001,10.9001,10.9001,10.9001,10.9001,10.9001,10.9001,10.9001,10.9001,10.8907,10.8878,10.8878,10.8874,10.8907,10.8907,10.897,10.8994,10.9045,10.9073,10.9129,10.9144,10.9282,10.9314,10.9358,10.887,10.7887,10.6333,10.4717,10.3092,10.1428,10.0442,9.9922,9.9922,9.9925,9.9925,9.991,9.991,9.992,9.9926,9.992,9.991,9.991,9.9923,9.9903,8.4043,8.7382,9.0872,9.1555,9.4591,9.755,9.8157,9.9144,9.9903,9.9903,9.9903,9.9903,9.9903,9.9903,9.9903,9.9903,10.2255,10.4258,10.4885,10.7227,10.9139,10.9772,10.8341,10.6659,10.4946,10.4227,10.3166,10.1462,10.4492,10.6386,10.6386,10.8582,10.9832,10.9832,11.2976,11.574,11.7899,11.9149,11.9755,11.9755,11.9755,11.9755,11.9755,11.9755,11.9755,11.9755,11.9755,11.9755,11.9755,11.9679,11.9619,11.9553,11.9506,11.9368,11.9192,11.9192,11.9162,11.914,11.914,11.8423,11.7224,11.551,11.495,11.4278,11.083,11.0946,11.1811,10.9518,10.9292,10.963,10.9029,10.8878,10.8878,10.8878,10.8878,10.8878,10.8878,10.8878,10.8878,10.8878,10.8878,10.8878,10.8878,10.8878,10.8878,10.8878,10.8939,10.8964,10.8964,10.9054,10.9139,10.9155,10.9155,10.8553,10.703,10.6014,10.4438,10.2191,10.1205,10.0403,9.9891,9.9902,9.9917,9.9925,9.9925,9.9923,9.991,9.9923,9.9925,9.9926,9.992,9.9914,8.6129,8.7685,8.8975,9.368,9.6184,9.793,9.9561,9.9903,9.9903,9.9903,9.9903,9.9903,9.9903,9.9903,9.9903,9.9903,10.1344,10.3014,10.4607,10.626,10.7899,10.9494,10.8293,10.6697,10.506,10.3394,10.1689,10.0099,10.3053,10.4909,10.4909,10.8052,10.9832,10.9832,11.29,11.4604,11.468,11.7937,11.9679,11.9755,11.9755,11.9755,11.9755,11.9755,11.9755,11.9717,11.9717,11.9698,11.9698,11.9597,11.953,11.953,11.9368,11.9192,11.8964,11.8964,11.887,11.8766,11.8766,11.8766,11.8503,11.6924,11.6473,11.5947,11.2563,11.2713,11.3352,11.0044,11.0269,11.1134,10.9442,10.8991,10.8991,10.8878,10.8878,10.8878,10.8878,10.8878,10.8878,10.8878,10.8878,10.8878,10.8878,10.8878,10.8878,10.8878,10.8878,10.8878,10.8878,10.8878,10.8907,10.9024,10.9024,10.8508,10.7131,10.6967,10.558,10.2513,10.2166,10.1395,9.9897,9.9885,9.9906,9.9906,9.9906,9.9906,9.9906,9.9906,9.9906,9.9906,9.991,9.991,8.6774,9.0189,9.3301,9.4553,9.7057,9.9371,9.9827,9.9903,9.9903,9.9903,9.9903,9.9903,9.9903,9.9903,9.9903,9.9903,10.1344,10.2597,10.3014,10.5594,10.7588,10.7899,10.7573,10.7118,10.6697,10.5114,10.3962,10.3545,10.5477,10.6651,10.6651,10.8696,10.9832,10.9832,11.1764,11.3392,11.468,11.6801,11.8505,11.9755,11.9755,11.9755,11.9755,11.9755,11.9679,11.9597,11.9597,11.9553,11.9457,11.9431,11.9314,11.9087,11.9095,11.897,11.8838,11.8838,11.8802,11.8766,11.8766,11.8766,11.8503,11.6924,11.7225,11.7563,11.4255,11.4443,11.5345,11.324,11.2939,11.2864,11.1209,11.0758,11.0457,10.9142,10.8878,10.8878,10.8878,10.8878,10.8878,10.8878,10.8878,10.8878,10.8878,10.8878,10.8878,10.8878,10.8878,10.8878,10.8878,10.8878,10.8878,10.8907,10.8907,10.8782,10.8517,10.7559,10.66,10.5861,10.3533,10.2008,10.162,10.0434,9.9762,9.9781,9.9762,9.9765,9.9765,9.9792,9.9781,9.9781,9.9859,9.991,8.6319,9.0038,9.4022,9.4667,9.7398,9.9903,9.9903,9.9903,9.9903,9.9903,9.9903,9.9903,9.9903,9.9903,9.9903,9.9903,10.0699,10.1572,10.2331,10.4721,10.661,10.7216,10.7952,10.8104,10.7364,10.644,10.559,10.4833,10.6348,10.7295,10.7295,10.8923,10.9832,10.9832,11.1347,11.2976,11.468,11.6346,11.8051,11.9755,11.9755,11.9755,11.9755,11.9755,11.966,11.9553,11.9553,11.9482,11.9352,11.9258,11.9095,11.8964,11.8904,11.8835,11.8766,11.8766,11.8766,11.8766,11.8766,11.8766,11.8653,11.7751,11.8052,11.8315,11.5759,11.6172,11.6962,11.4555,11.4443,11.4443,11.2037,11.1397,11.0984,10.9254,10.8878,10.8878,10.8878,10.8878,10.8878,10.8878,10.8878,10.8878,10.8878,10.8878,10.8878,10.8878,10.8878,10.8878,10.8878,10.8878,10.8878,10.8878,10.8878,10.8912,10.8933,10.8233,10.7544,10.7061,10.5269,10.363,10.228,10.1262,10.0424,9.9739,9.9712,9.972,9.972,9.9714,9.9739,9.9701,9.9783,9.984,8.594,8.8823,9.2618,9.4401,9.7398,9.9903,9.9903,9.9903,9.9903,9.9903,9.9903,9.9903,9.9903,9.9903,9.9903,9.9903,9.9903,10.0434,10.1876,10.3583,10.5235,10.6788,10.8471,10.9014,10.7765,10.7635,10.703,10.5552,10.6802,10.7635,10.7635,10.9037,10.9832,10.9832,11.1158,11.2635,11.4339,11.6043,11.771,11.9414,11.9641,11.9755,11.9755,11.9698,11.9639,11.9468,11.9468,11.9394,11.9258,11.9033,11.8932,11.8932,11.88,11.8766,11.8766,11.8766,11.8766,11.8766,11.8766,11.8766,11.8766,11.8766,11.8766,11.8503,11.715,11.7714,11.8202,11.5345,11.5608,11.6022,11.2901,11.1886,11.1285,10.9593,10.9029,10.8878,10.8878,10.8878,10.8878,10.8878,10.8878,10.8878,10.8878,10.8878,10.8878,10.8878,10.8878,10.8878,10.8878,10.8878,10.8878,10.8878,10.8878,10.8841,10.8874,10.8874,10.8399,10.7282,10.6914,10.5584,10.3003,10.2326,10.1418,10.0029,10.0029,9.9916,9.9651,9.9651,9.9689,9.9705,9.9705,9.9705,8.8823,8.9772,9.1138,9.4135,9.7398,9.9903,9.9903,9.9903,9.9903,9.9903,9.9903,9.9903,9.9903,9.9903,9.9903,9.9903,9.9903,10.0016,10.032,10.18,10.3507,10.5168,10.6761,10.8155,10.9279,10.9387,10.9264,10.8961,10.9226,10.9378,10.9378,10.9681,10.9832,10.9832,11.0059,11.1006,11.2597,11.4263,11.5968,11.7672,11.9073,11.9755,11.9755,11.9619,11.9381,11.9057,11.9057,11.9002,11.8873,11.8838,11.8802,11.8802,11.8766,11.8766,11.8766,11.8766,11.8766,11.8766,11.8766,11.8766,11.8766,11.8766,11.8766,11.8729,11.8428,11.8541,11.8653,11.8089,11.8165,11.7939,11.6059,11.4518,11.3052,11.136,10.9894,10.8878,10.8878,10.8878,10.8878,10.8878,10.8878,10.8878,10.8878,10.8878,10.8878,10.8878,10.8878,10.8878,10.8878,10.8878,10.8878,10.8878,10.8878,10.8907,10.8994,10.8994,10.8969,10.8855,10.7622,10.6665,10.6109,10.3493,10.1867,10.15,10.15,10.082,9.9407,9.9407,9.9448,9.9564,9.9564,9.9617,8.8482,8.8672,8.9468,9.2807,9.6146,9.884,9.9713,9.9903,9.9903,9.9903,9.9903,9.9903,9.9903,9.9903,9.9903,9.9903,9.9903,9.9903,9.9903,10.1382,10.3052,10.478,10.6333,10.7965,10.9658,10.9827,10.9832,10.9832,10.9832,10.9832,10.9832,10.9832,10.9832,10.9832,10.9832,11.059,11.2142,11.3809,11.5551,11.7217,11.8922,11.9755,11.9755,11.9597,11.933,11.8964,11.8964,11.8904,11.8766,11.8766,11.8766,11.8766,11.8766,11.8766,11.8766,11.8766,11.8766,11.8766,11.8766,11.8766,11.8766,11.8766,11.8766,11.8766,11.8766,11.8766,11.8766,11.8766,11.8202,11.7187,11.5533,11.3879,11.2149,11.0495,10.9442,10.8878,10.8878,10.8878,10.8878,10.8878,10.8878,10.8878,10.8878,10.8878,10.8878,10.8878,10.8878,10.8878,10.8878,10.8878,10.8878,10.8878,10.8878,10.8874,10.8939,10.897,10.8994,10.9101,10.8366,10.7603,10.693,10.5357,10.4464,10.4387,10.2728,10.1431,10.0639,9.9756,9.9363,9.9428,9.9428,9.9448,8.7375,8.7754,8.8816,9.22,9.497,9.7398,9.9447,9.9903,9.9903,9.9903,9.9903,9.9903,9.9903,9.9903,9.9903,9.9903,9.9903,9.9903,9.9903,10.1041,10.2664,10.4733,10.603,10.7586,10.9644,10.9827,10.9832,10.9832,10.9832,10.9832,10.9832,10.9832,10.9832,10.9832,10.9832,11.04,11.165,11.3657,11.5362,11.6687,11.8732,11.9698,11.9717,11.9492,11.9239,11.8964,11.8932,11.887,11.8766,11.8766,11.8766,11.8766,11.8766,11.8766,11.8766,11.8766,11.8766,11.8766,11.8766,11.8766,11.8766,11.8766,11.8766,11.8766,11.8766,11.8766,11.8691,11.8353,11.7375,11.6059,11.433,11.2638,11.0984,10.9254,10.8878,10.8878,10.8878,10.8878,10.8878,10.8878,10.8878,10.8878,10.8878,10.8878,10.8878,10.8878,10.8878,10.8878,10.8878,10.8878,10.8878,10.8878,10.8878,10.8878,10.8878,10.8878,10.8907,10.9032,10.8907,10.8374,10.7393,10.7207,10.6847,10.6169,10.3644,10.1961,10.1245,9.9887,9.927,9.9294,9.9294,9.9317,8.7056,8.8612,9.0546,9.3824,9.4894,9.5919,9.9182,9.9903,9.9903,9.9903,9.9903,9.9903,9.9903,9.9903,9.9903,9.9903,9.9903,9.9903,9.9903,10.0054,10.1344,10.457,10.4979,10.6259,10.952,10.9842,10.9832,10.9832,10.9832,10.9832,10.9832,10.9832,10.9832,10.9832,10.9832,10.9908,11.0021,11.3127,11.4756,11.4945,11.8202,11.966,11.9553,11.9183,11.8996,11.8964,11.8835,11.8766,11.8766,11.8766,11.8766,11.8766,11.8766,11.8766,11.8766,11.8766,11.8766,11.8766,11.8766,11.8766,11.8766,11.8766,11.8766,11.8766,11.8766,11.8766,11.8465,11.7037,11.6548,11.6059,11.433,11.2638,11.0984,10.9254,10.8878,10.8878,10.8878,10.8878,10.8878,10.8878,10.8878,10.8878,10.8878,10.8878,10.8878,10.8878,10.8878,10.8878,10.8878,10.8878,10.8878,10.8878,10.8878,10.8878,10.8878,10.8878,10.8841,10.8841,10.8841,10.8803,10.8686,10.8686,10.7257,10.4323,10.3947,10.2293,9.9209,9.9058,9.9033,9.9143,9.9143,9.9221,8.4241,8.5645,8.7511,8.9841,9.1935,9.4059,9.6336,9.7656,9.871,9.9697,9.9924,9.9924,9.9903,9.9903,9.9903,9.9903,9.9903,9.9903,9.9903,9.9903,10.0775,10.3166,10.422,10.5691,10.8092,10.9236,10.9832,10.9832,10.9832,10.9832,10.9832,10.9832,10.9832,10.9832,10.9832,10.9832,10.9832,11.2029,11.3657,11.4718,11.701,11.8569,11.9394,11.9125,11.8899,11.8835,11.8802,11.8766,11.8766,11.8766,11.8766,11.8766,11.8766,11.8766,11.8766,11.8766,11.8766,11.8766,11.8766,11.8766,11.8766,11.8766,11.8766,11.8766,11.8766,11.8127,11.7225,11.6623,11.4969,11.324,11.2563,11.1134,10.9706,10.9029,10.8878,10.8878,10.8878,10.8878,10.8878,10.8878,10.8878,10.8878,10.8878,10.8878,10.8878,10.8878,10.8878,10.8878,10.8878,10.8878,10.8878,10.8878,10.8878,10.8878,10.8878,10.8878,10.8878,10.8878,10.8878,10.8878,10.8878,10.8878,10.8277,10.6961,10.4968,10.3314,10.1961,9.9931,9.8983,9.9042,9.9042,9.9033,8.2404,8.4006,8.6062,8.7792,9.0379,9.3066,9.5114,9.616,9.728,9.9479,9.9897,9.9906,9.9924,9.9924,9.9924,9.9903,9.9895,9.9895,9.9903,9.9903,10.0548,10.2247,10.383,10.5425,10.7131,10.8819,10.9832,10.9832,10.9832,10.9832,10.9832,10.9832,10.9832,10.9832,10.9832,10.9832,10.9832,11.1385,11.3013,11.4718,11.6268,11.7303,11.7824,11.855,11.8606,11.8127,11.8578,11.8766,11.8766,11.8766,11.8766,11.8766,11.8766,11.8766,11.8766,11.8766,11.8766,11.8766,11.8766,11.8766,11.8766,11.8766,11.8766,11.8766,11.8766,11.7676,11.6322,11.5834,11.3616,11.1285,11.0758,10.9743,10.8878,10.8878,10.8878,10.8878,10.8878,10.8878,10.8878,10.8878,10.8878,10.8878,10.8878,10.8878,10.8878,10.8878,10.8878,10.8878,10.8878,10.8878,10.8878,10.8878,10.8878,10.8878,10.8878,10.8878,10.8878,10.8878,10.8878,10.8878,10.8878,10.8878,10.8653,10.8164,10.542,10.3728,10.3239,10.0344,9.8953,9.8953,9.8953,9.8953,8.2415,8.4775,8.7675,8.9499,9.1252,9.3369,9.6606,9.6094,9.5846,9.922,9.9902,9.9914,9.9906,9.9924,9.9924,9.9895,9.9924,9.9916,9.9903,9.9903,10.054,10.2258,10.3819,10.5413,10.7129,10.8842,10.9832,10.9832,10.9832,10.9832,10.9832,10.9832,10.9832,10.9832,10.9832,10.9832,10.9832,11.1385,11.3013,11.4718,11.6268,11.6006,11.4254,11.7333,11.7939,11.6548,11.8089,11.8766,11.8766,11.8766,11.8766,11.8766,11.8766,11.8766,11.8766,11.8766,11.8766,11.8766,11.8766,11.8766,11.8766,11.8766,11.8766,11.8766,11.8766,11.7676,11.6097,11.4405,11.2713,11.1021,10.933,10.8878,10.8878,10.8878,10.8878,10.8878,10.8878,10.8878,10.8878,10.8878,10.8878,10.8878,10.8878,10.8878,10.8878,10.8878,10.8878,10.8878,10.8878,10.8878,10.8878,10.8878,10.8878,10.8878,10.8878,10.8878,10.8878,10.8878,10.8878,10.8878,10.8878,10.8878,10.8127,10.6585,10.4856,10.3164,10.1472,9.978,9.8953,9.8953,9.8953,9.8953,8.0689,8.3049,8.5713,8.6386,8.8633,9.1543,9.4887,9.5254,9.547,9.7604,9.811,9.8173,9.8169,9.9155,9.9902,9.9924,9.9924,9.9924,9.9916,9.9906,10.0124,10.0665,10.3125,10.4982,10.5499,10.816,10.9832,10.9832,10.9832,10.9832,10.9832,10.9832,10.9832,10.9832,10.9832,10.9832,10.9832,11.0324,11.1312,11.2845,11.3334,11.3788,11.4249,11.5165,11.59,11.6435,11.6962,11.7789,11.8766,11.8766,11.8766,11.8766,11.8766,11.8766,11.8766,11.8766,11.8766,11.8766,11.8766,11.8766,11.8578,11.7526,11.7187,11.6962,11.5796,11.4292,11.2864,11.2337,11.0946,10.9555,10.8991,10.8878,10.8878,10.8878,10.8878,10.8878,10.8878,10.8878,10.8878,10.8878,10.8878,10.8878,10.8878,10.8878,10.8878,10.8878,10.8878,10.8878,10.8878,10.8878,10.8878,10.8878,10.8878,10.8878,10.8878,10.8878,10.8878,10.8878,10.8878,10.8878,10.8878,10.8878,10.8615,10.8127,10.6547,10.4893,10.3201,10.1472,10.0081,9.8953,9.8953,9.8953,8.0667,8.2762,8.4933,8.5637,8.7825,9.0543,9.3284,9.3928,9.437,9.5971,9.6364,9.6619,9.7213,9.9222,10.0776,10.08,10.08,10.0573,10.0,9.9914,9.9902,9.9838,10.2759,10.4779,10.475,10.7841,10.9832,10.9832,10.9832,10.9832,10.9832,10.9832,10.9832,10.9832,10.9832,10.9832,10.9832,10.9832,11.0214,11.1005,11.1005,11.1483,11.2325,11.2889,11.3638,11.4593,11.5871,11.6962,11.7939,11.8503,11.8766,11.8766,11.8766,11.8766,11.8766,11.8766,11.8766,11.8691,11.8089,11.7902,11.7638,11.6022,11.5495,11.527,11.4217,11.2713,11.1397,11.1397,11.0157,10.8878,10.8878,10.8878,10.8878,10.8878,10.8878,10.8878,10.8878,10.8878,10.8878,10.8878,10.8878,10.8878,10.8878,10.8878,10.8878,10.8878,10.8878,10.8878,10.8878,10.8878,10.8878,10.8878,10.8878,10.8878,10.8878,10.8878,10.8878,10.8878,10.8878,10.8878,10.8878,10.8878,10.8878,10.8878,10.6698,10.5044,10.3991,10.1622,9.9968,9.8953,9.8953,9.8953,8.2183,8.3748,8.5312,8.6888,8.856,9.0252,9.1956,9.2335,9.2789,9.4342,9.4683,9.5099,9.6577,9.9493,10.178,10.2039,10.2367,10.2064,10.0471,10.0357,10.0383,10.0093,10.296,10.4916,10.4795,10.7825,10.9832,10.9832,10.9832,10.9832,10.9832,10.9832,10.9832,10.9832,10.9832,10.9832,10.9832,10.9832,10.9722,10.9475,10.9341,10.9131,10.894,11.0493,11.1229,11.1397,11.4631,11.6135,11.636,11.7826,11.8428,11.8428,11.8428,11.8428,11.8428,11.8428,11.8428,11.8202,11.6774,11.6247,11.5947,11.4255,11.3728,11.3691,11.3578,11.245,11.1209,11.1209,11.0082,10.8878,10.8878,10.8878,10.8878,10.8878,10.8878,10.8878,10.8878,10.8878,10.8878,10.8878,10.8878,10.8878,10.8878,10.8878,10.8878,10.8878,10.8878,10.8878,10.8878,10.8878,10.8878,10.8878,10.8878,10.8878,10.8878,10.8878,10.8878,10.8878,10.8878,10.8878,10.8878,10.8878,10.8878,10.8878,10.5796,10.4104,10.3991,10.072,9.9066,9.8953,9.8953,9.8953,8.4078,8.5417,8.678,8.7172,8.8561,9.0252,9.1956,9.2335,9.2448,9.2827,9.2903,9.3016,9.3395,9.5175,9.741,9.9901,10.3561,10.5508,10.3871,10.4741,10.5068,10.3757,10.5447,10.6196,10.4909,10.7825,10.9832,10.9832,10.9832,10.9832,10.9832,10.9832,10.9832,10.9832,10.9832,10.9832,10.9832,10.9832,10.9794,10.9684,10.8322,10.7575,10.7408,10.7716,10.8436,10.9555,11.1661,11.3315,11.4518,11.4894,11.5044,11.5044,11.5044,11.5044,11.5044,11.5044,11.5044,11.5007,11.4631,11.448,11.4217,11.2525,11.1961,11.1736,11.042,10.9781,10.9442,10.9442,10.9179,10.8878,10.8878,10.8878,10.8878,10.8878,10.8878,10.8878,10.8878,10.8878,10.8878,10.8878,10.8878,10.8878,10.8878,10.8878,10.8878,10.8878,10.8878,10.8878,10.8878,10.8878,10.8878,10.8878,10.8878,10.8878,10.8878,10.8878,10.8878,10.8878,10.8878,10.8878,10.8878,10.8878,10.8878,10.8878,10.6923,10.5307,10.3991,10.1886,10.0194,9.8953,9.8953,9.8953,8.5707,8.6578,8.7449,8.8244,8.9116,9.0024,9.0971,9.1161,9.1161,9.1161,9.1161,9.1653,9.3206,9.4834,9.7031,10.0326,10.3166,10.4659,10.3756,10.3727,10.4053,10.4703,10.5584,10.6386,10.703,10.8772,10.9832,10.9832,10.9832,10.9832,10.9832,10.9832,10.9832,10.9832,10.9832,10.9832,10.9832,10.9832,10.9399,10.8568,10.6809,10.5852,10.5684,10.5605,10.6366,10.7939,11.0345,11.1924,11.2788,11.3578,11.3916,11.3916,11.3916,11.3916,11.3916,11.3916,11.3916,11.3766,11.3014,11.2751,11.2488,11.0796,11.0232,11.0044,10.9142,10.8878,10.8878,10.8878,10.8878,10.8878,10.8878,10.8878,10.8878,10.8878,10.8878,10.8878,10.8878,10.8878,10.8878,10.8878,10.8878,10.8878,10.8878,10.8878,10.8878,10.8878,10.8878,10.8878,10.8878,10.8878,10.8878,10.8878,10.8878,10.8878,10.8878,10.8878,10.8878,10.8878,10.8878,10.8878,10.8878,10.8878,10.8878,10.8878,10.7337,10.5683,10.3991,10.2299,10.0607,9.8953,9.8953,9.8953,8.726,8.7676,8.8017,8.9456,8.9797,8.9797,8.9797,8.9797,8.9797,8.9797,8.9797,9.0668,9.3547,9.5365,9.7561,10.0932,10.1689,10.2144,10.2917,10.1765,10.1841,10.4454,10.5022,10.6196,10.881,10.9491,10.9832,10.9832,10.9832,10.9832,10.9832,10.9832,10.9832,10.9832,10.9832,10.9832,10.9832,10.9794,10.8871,10.7072,10.5349,10.4273,10.3806,10.3788,10.4491,10.5908,10.9217,11.0645,11.0758,11.245,11.3127,11.3127,11.3127,11.3127,11.3127,11.3127,11.3127,11.2939,11.151,11.1021,11.0758,10.933,10.8878,10.8878,10.8878,10.8878,10.8878,10.8878,10.8878,10.8878,10.8878,10.8878,10.8878,10.8878,10.8878,10.8878,10.8878,10.8878,10.8878,10.8878,10.8878,10.8878,10.8878,10.8878,10.8878,10.8878,10.8878,10.8878,10.8878,10.8878,10.8878,10.8878,10.8878,10.8878,10.8878,10.8878,10.8878,10.8878,10.8878,10.8878,10.8878,10.8878,10.8878,10.8878,10.7337,10.5683,10.3991,10.2299,10.0607,9.8953,9.8953,9.8953,8.9343,8.9418,8.9456,8.9759,8.9797,8.9797,8.9797,8.9797,8.9797,8.9797,8.9797,8.9949,9.0479,9.1956,9.4153,9.741,9.919,10.1591,10.5916,10.6288,10.5796,10.4893,10.6023,10.6575,10.5628,10.8128,10.9832,10.9832,10.9832,10.9832,10.9832,10.9832,10.9832,10.9832,10.9832,10.9832,10.9832,10.961,10.8681,10.7072,10.5168,10.3456,10.2045,10.1931,10.2029,10.2412,10.5796,10.7262,10.7375,10.8991,10.963,10.963,10.963,10.963,10.963,10.963,10.963,10.9593,10.933,10.9254,10.9217,10.8954,10.8878,10.8878,10.8878,10.8878,10.8878,10.8878,10.8878,10.8878,10.8878,10.8878,10.8878,10.8878,10.8878,10.8878,10.8878,10.8878,10.8878,10.8878,10.8878,10.8878,10.8878,10.8878,10.8878,10.8878,10.8878,10.8878,10.8878,10.8878,10.8878,10.8878,10.8878,10.8878,10.8878,10.8878,10.8878,10.8878,10.8878,10.8878,10.8878,10.8878,10.8878,10.8878,10.7337,10.5683,10.3991,10.2299,10.0607,9.8953,9.8953,9.8953,8.9797,8.9797,8.9797,8.9797,8.9797,8.9797,8.9797,8.9797,8.9797,8.9797,8.9797,9.0062,9.1009,9.1805,9.4001,9.9114,10.1349,10.3924,10.8084,10.7083,10.5628,10.4864,10.5455,10.6348,10.7408,10.8923,10.9832,10.9832,10.9832,10.9832,10.9832,10.9832,10.9832,10.9832,10.9832,10.9777,10.961,10.9475,10.8558,10.6892,10.5066,10.326,10.1555,10.1465,10.1472,10.1585,10.4066,10.5156,10.5232,10.5908,10.6247,10.6322,10.7262,10.76,10.7675,10.854,10.8878,10.8878,10.8878,10.8878,10.8878,10.8878,10.8878,10.8878,10.8878,10.8277,10.7788,10.8615,10.8878,10.8878,10.8878,10.8878,10.8878,10.8878,10.8878,10.8878,10.8878,10.8878,10.8878,10.8878,10.8878,10.8878,10.8878,10.8878,10.8878,10.8878,10.8878,10.8878,10.8878,10.8878,10.8878,10.8878,10.8878,10.8878,10.8878,10.8878,10.8878,10.8878,10.8878,10.8878,10.8878,10.8878,10.8878,10.8878,10.8164,10.6547,10.3991,10.3201,10.1472,9.8953,9.8953,9.8953,8.9783,0.0,8.9716,8.9716,8.9716,8.9769,0.0,8.9783,8.9797,8.9797,8.9797,9.0176,9.1502,9.207,9.4115,9.9606,10.2598,10.5212,10.8204,10.7067,10.5969,10.5969,10.5969,10.6954,10.9567,10.9832,10.9832,10.9832,10.9832,10.9832,10.9832,10.9832,10.9832,10.9832,10.9777,10.961,10.9417,10.9374,10.844,10.668,10.4955,10.3174,10.1434,10.1058,10.087,10.0946,10.2675,10.3389,10.3427,10.3841,10.3991,10.4141,10.542,10.5908,10.6059,10.7299,10.7713,10.7713,10.7713,10.7713,10.7713,10.7713,10.7713,10.7863,10.8615,10.7487,10.6172,10.7375,10.8014,10.8314,10.8314,10.8578,10.8878,10.8878,10.8878,10.8878,10.8878,10.8878,10.8878,10.8878,10.8878,10.8878,10.8878,10.8878,10.8878,10.8878,10.8878,10.8878,10.8878,10.8878,10.8878,10.8878,10.8878,10.8878,10.8878,10.8878,10.8878,10.8878,10.8878,10.8878,10.8878,10.8878,10.8878,10.8878,10.8878,10.7638,10.5156,10.4335,10.223,9.896,9.8891,9.8891,0.0,8.9545,8.943,8.943,8.9545,8.9615,8.9615,8.9716,0.0,8.9797,8.9797,8.9835,8.9949,9.1274,9.2979,9.5062,9.9341,10.3053,10.4871,10.7635,10.9453,10.9453,10.9453,10.9567,10.9794,10.9832,10.9832,10.9832,10.9832,10.9832,10.9832,10.9832,10.9832,10.9832,10.959,10.9475,10.9417,10.9219,10.8291,10.668,10.4875,10.312,10.1397,9.9855,9.9141,9.9216,10.0908,10.1622,10.1773,10.3352,10.3991,10.3991,10.4141,10.4179,10.4179,10.4292,10.4329,10.4329,10.4329,10.4329,10.4329,10.4329,10.4329,10.4893,10.7939,10.666,10.4179,10.4292,10.5457,10.6698,10.6698,10.7788,10.8878,10.8878,10.8878,10.8878,10.8878,10.8878,10.8878,10.8878,10.8878,10.8878,10.8878,10.8878,10.8878,10.8878,10.8878,10.8878,10.8878,10.8878,10.8878,10.8878,10.8878,10.8878,10.8878,10.8878,10.8878,10.8878,10.8878,10.8878,10.8878,10.8878,10.8878,10.8878,10.8878,10.8728,10.8502,10.5358,10.2132,9.8941,9.8838,9.8838,8.9545,8.945,8.941,8.941,8.9489,8.9598,8.9598,8.9701,8.9797,8.9797,8.9797,8.9797,8.9797,9.0327,9.2335,9.7107,9.9455,10.2712,10.8544,10.9643,10.9416,10.8355,10.7332,10.6689,10.6689,10.8582,10.9832,10.9832,10.9832,10.9832,10.9832,10.9832,10.9832,10.9832,10.959,10.9395,10.9306,10.9166,10.8241,10.6568,10.4812,10.3089,10.1397,9.9743,9.8953,9.8991,9.963,9.9893,0.0,10.0607,10.087,10.0946,10.1998,10.2412,10.2562,10.3615,10.3991,10.3991,10.3991,10.3991,10.3991,10.3991,10.3991,10.4217,10.5457,10.4968,10.3991,10.3991,10.4442,10.4931,10.4931,10.6172,10.7412,10.7412,10.8164,10.8878,10.8878,10.8878,10.8878,10.8878,10.8878,10.8878,10.8878,10.8878,10.8878,10.8878,10.8878,10.8878,10.8878,10.8878,10.8878,10.8878,10.8878,10.8878,10.8878,10.8878,10.8878,10.8878,10.8878,10.8878,10.8878,10.8848,10.8851,10.8851,10.8778,10.8743,10.8743,10.5329,10.2027,9.8838,9.8767,9.8767,8.9389,8.9347,8.9302,8.9302,8.9389,8.9489,8.9507,8.967,8.9731,8.9797,8.9797,8.9797,8.9797,9.0252,9.2259,9.7334,9.9493,10.2712,10.8961,10.9832,10.9378,10.8241,10.7105,10.6386,10.6386,10.8469,10.9832,10.9832,10.9832,10.9832,10.9832,10.9832,10.9794,10.9722,10.9492,10.9306,10.9182,10.9054,10.8406,10.7262,10.5044,10.3389,10.2186,9.9968,9.8953,9.8953,9.8953,9.8953,9.8953,9.8953,9.8953,9.9066,10.0231,10.0682,10.0795,10.1961,10.2412,10.2412,10.2412,10.2412,10.2412,10.2412,10.275,10.3089,10.2562,10.2412,10.2412,10.2412,10.3164,10.3878,10.3314,10.5232,10.7149,10.6623,10.7713,10.8878,10.8878,10.8878,10.8878,10.8878,10.8878,10.8878,10.8878,10.8878,10.8878,10.8878,10.8878,10.8878,10.8878,10.8878,10.8878,10.8878,10.8878,10.8878,10.8878,10.8878,10.8878,10.8878,10.8845,10.8848,10.8848,10.8816,10.8781,10.8781,10.8707,10.8407,10.7882,10.4995,10.2183,9.9486,9.8961,9.8436,8.9232,8.9133,8.9028,8.9028,8.9133,8.9279,8.9389,8.9489,8.967,8.9783,8.9835,8.9835,8.9797,9.1199,9.2903,9.4569,9.8963,10.2788,10.4492,10.7635,10.9756,10.9756,10.9756,10.9756,10.9756,10.9756,10.9794,10.9832,10.9832,10.9832,10.9832,10.9832,10.9722,10.9417,10.9306,10.9155,10.9054,10.8907,10.8878,10.8803,10.5532,10.3991,10.3841,10.0494,9.8953,9.8953,9.8953,9.8953,9.8953,9.8953,9.8953,9.8953,9.8953,9.8953,9.8953,9.8953,9.8953,9.8953,9.8953,9.8953,9.8953,9.8953,10.0081,10.1134,9.9442,9.8953,9.8953,9.8953,10.1359,10.354,10.1886,10.5119,10.8427,10.6886,10.7713,10.8878,10.8878,10.8878,10.8878,10.8878,10.8878,10.8878,10.8878,10.8878,10.8878,10.8878,10.8878,10.8878,10.8878,10.8878,10.8878,10.8878,10.8878,10.8878,10.8878,10.8878,10.8878,10.8878,10.8851,10.8853,10.8853,10.8707,10.867,10.867,10.867,10.7807,10.612,10.4395,10.2709,10.1026,9.9304,9.7694,8.9096,8.9081,8.9028,8.9028,8.9133,8.9256,8.9279,8.9389,8.9527,8.967,9.0632,9.1102,8.9987,9.1199,9.2903,9.4569,9.6084,9.8432,10.2447,10.4909,10.5818,10.4643,10.5552,10.5818,10.4606,10.5552,10.7257,10.9643,10.9832,10.9832,10.9832,10.9832,10.9722,10.9417,10.9306,10.9155,10.9054,10.8907,10.8314,10.7187,10.5006,10.3352,10.2149,9.9931,9.8953,9.8953,9.8953,9.8953,9.8953,9.8953,9.8953,9.8953,9.8953,9.8953,9.8953,9.8953,9.8953,9.8953,9.8953,9.8953,9.8953,9.8953,9.9291,9.9592,9.9103,9.8953,9.8953,9.8953,9.9667,10.0344,9.9818,10.2525,10.5608,10.636,10.7713,10.8878,10.8878,10.8878,10.8878,10.8878,10.8878,10.8878,10.8878,10.8878,10.8878,10.8878,10.8878,10.8878,10.8878,10.8878,10.8878,10.8878,10.8878,10.8878,10.8878,10.8878,10.8845,10.8851,10.8853,10.8818,10.8707,10.8632,10.8517,10.8517,10.7353,10.6489,10.6005,10.3085,10.0877,9.9231,9.7547,9.5902,8.9055,8.9028,8.9028,8.9028,8.9108,8.9184,8.9195,8.9302,8.9389,8.9527,9.0904,9.1847,9.0928,9.2169,9.385,9.5516,9.6349,9.7826,10.0818,10.2712,10.3129,10.1462,10.2144,10.2636,10.2295,10.3166,10.4909,10.7598,10.8431,10.881,10.881,10.8775,10.8947,10.9352,10.9271,10.9111,10.8964,10.8874,10.839,10.7412,10.5119,10.3803,10.3352,10.0344,9.9329,9.9931,9.9254,9.8953,9.8953,9.8953,9.8953,9.8953,9.8953,9.8953,9.8953,9.8953,9.8953,9.8953,9.8953,9.8953,9.8953,9.8953,9.9404,9.9968,9.9968,10.0419,10.0983,10.0983,10.0983,10.1096,10.1773,10.2976,10.4404,10.6096,10.7713,10.8878,10.8878,10.8878,10.8878,10.8878,10.8878,10.8878,10.8878,10.8878,10.8878,10.8878,10.8878,10.8878,10.8878,10.8878,10.8878,10.8878,10.8878,10.8878,10.8878,10.8845,10.8851,10.8853,10.8744,10.867,10.8556,10.7879,10.7465,10.7465,10.514,10.3642,10.2969,10.0277,9.8146,9.6501,9.5491,9.4145,8.9028,8.9028,8.9028,8.9028,8.9028,8.9081,8.9208,8.9346,8.9445,8.9368,9.1076,9.2473,9.2208,9.3713,9.5501,9.6955,9.847,9.9515,9.972,10.1046,10.1462,9.9909,9.972,10.025,10.1652,10.2068,10.2826,10.4227,10.6007,10.6954,10.6613,10.6941,10.7764,10.917,10.9111,10.8964,10.8878,10.8878,10.8878,10.8841,10.572,10.4931,10.6134,10.1359,9.9931,10.1134,9.9592,9.8953,9.8953,9.8953,9.8953,9.8953,9.8953,9.8953,9.8953,9.8953,9.8953,9.8953,9.8953,9.8953,9.8953,9.8953,10.0081,10.1472,10.1472,10.2637,10.3991,10.3991,10.3991,10.4329,10.5908,10.5269,10.463,10.6134,10.7713,10.8878,10.8878,10.8878,10.8878,10.8878,10.8878,10.8878,10.8878,10.8878,10.8878,10.8878,10.8878,10.8878,10.8878,10.8878,10.8845,10.8773,10.866,10.8657,10.8807,10.8701,10.8628,10.8592,10.852,10.8328,10.8029,10.6487,10.5623,10.5474,10.2184,9.9753,9.8295,9.6613,9.493,9.3285,9.3285,9.2463,8.9028,8.9028,8.9028,8.9028,8.9028,8.9055,8.9081,9.0097,9.0726,8.952,9.284,9.5175,9.2624,9.4533,9.6686,9.7092,9.7384,9.8086,9.9515,10.0023,10.0137,9.9758,9.972,9.9341,9.8394,10.0705,10.1841,10.0856,10.3621,10.4151,10.15,10.5012,10.7704,10.9036,10.9082,10.8964,10.8878,10.8878,10.8878,10.8841,10.6923,10.5457,10.4442,10.2036,10.0382,9.9479,9.9103,9.8953,9.8953,9.8953,9.8953,9.8953,9.8953,9.8953,9.8953,9.8953,9.8953,9.8953,9.8953,9.8953,9.8953,9.8953,10.0081,10.1472,10.1472,10.2637,10.3991,10.3991,10.3991,10.4066,10.4442,10.5269,10.6059,10.6435,10.7713,10.8878,10.8878,10.8878,10.8878,10.8878,10.8878,10.8878,10.8878,10.8878,10.8878,10.8878,10.8878,10.8878,10.8878,10.8878,10.8668,10.8156,10.7203,10.7133,10.8445,10.7506,10.6828,10.6719,10.7807,10.7278,10.4617,10.4128,10.3343,10.1997,9.8744,9.6912,9.6575,9.4855,9.3248,9.1677,9.1677,9.078,8.9028,8.9028,8.9028,8.9028,8.9028,8.9028,8.9028,8.9704,9.0333,9.0338,9.2535,9.4463,9.4394,9.5175,9.6046,9.6973,9.7087,9.7408,9.8368,9.9196,9.972,9.972,9.972,9.9379,9.8508,9.9266,9.9455,9.8584,10.0894,10.0878,9.7477,10.1209,10.4847,10.7848,10.7864,10.8186,10.8878,10.8878,10.8878,10.8841,10.7262,10.6059,10.5119,10.26,10.0983,10.0119,9.9291,9.8953,9.8953,9.8953,9.8953,9.8953,9.8953,9.8953,9.8953,9.8953,9.8953,9.8953,9.8953,9.8953,9.9216,10.087,10.2525,10.3878,10.3878,10.5006,10.6322,10.6322,10.6322,10.6322,10.6322,10.6999,10.7638,10.7638,10.8277,10.8878,10.8878,10.8878,10.8878,10.8878,10.8878,10.8845,10.8705,10.8669,10.8669,10.8669,10.852,10.8481,10.8669,10.777,10.7048,10.6706,10.6054,10.6031,10.6891,10.6139,10.5238,10.4412,10.4407,10.3362,10.0778,10.0199,9.9454,9.8594,9.5342,9.3696,9.3696,9.2014,9.0743,8.9958,8.9958,8.9471,8.9028,8.9028,8.9028,8.9028,8.9028,8.9028,8.9028,8.9253,8.978,9.087,9.1945,9.3402,9.5902,9.5549,9.5527,9.7534,9.771,9.7579,9.7615,9.9104,9.9947,9.9341,9.9531,9.9606,9.9303,9.8281,9.7372,9.6842,9.8076,9.7477,9.4382,9.7276,10.0987,10.5248,10.559,10.6547,10.8427,10.8465,10.8578,10.8841,10.7262,10.636,10.5984,10.2863,10.1322,10.0946,9.9555,9.8953,9.8953,9.8953,9.8953,9.8953,9.8953,9.9141,9.9404,9.9404,9.9555,9.9818,9.9818,9.9818,10.0307,10.3057,10.5119,10.651,10.651,10.76,10.8878,10.8878,10.8878,10.8878,10.8878,10.8878,10.8807,10.8811,10.8811,10.8776,10.8703,10.8703,10.8703,10.8703,10.8738,10.8705,10.8401,10.836,10.836,10.836,10.807,10.7982,10.8319,10.6751,10.5286,10.443,10.4365,10.4298,10.4,10.3471,10.2548,10.1391,10.0313,9.891,9.7101,9.6124,9.5454,9.5192,9.2276,9.0743,9.0743,8.9322,8.8612,8.8612,8.8612,8.8612,8.9028,8.9028,8.9028,8.9028,8.9028,8.9028,8.9028,9.0156,9.087,8.9592,9.2999,9.5789,9.4772,9.5626,9.7548,10.0867,10.007,9.9108,9.9348,10.0841,10.0818,9.7864,9.8811,9.9152,9.7675,9.866,9.8205,9.5365,9.5265,9.4495,9.2604,9.5467,9.8076,10.0085,10.145,10.3653,10.6811,10.6848,10.7525,10.8841,10.7262,10.5758,10.4254,10.2337,10.0682,9.9291,9.9066,9.8953,9.8953,9.8953,9.8953,9.8953,9.8953,9.9855,10.1134,10.1134,10.2074,10.3314,10.3314,10.3314,10.3389,10.3705,10.5053,10.651,10.651,10.76,10.8878,10.8878,10.8878,10.8878,10.8878,10.8878,10.8811,10.8557,10.8519,10.8441,10.8113,10.8026,10.8026,10.8026,10.8282,10.8401,10.8026,10.7982,10.7982,10.7982,10.7937,10.7891,10.7937,10.712,10.4936,10.0729,10.0485,10.0099,9.8736,9.7205,9.6456,9.672,9.7591,9.6883,9.4184,9.3922,9.321,9.1864,8.992,8.8948,8.8948,8.8761,8.8612,8.8612,8.8612,8.8612,8.9038,8.9038,8.9028,8.9038,8.9038,8.9028,8.9028,8.9592,9.0193,9.0419,9.2279,9.4242,9.545,9.4682,9.4709,9.7383,9.6325,9.525,9.5438,9.6963,9.7523,9.6046,9.7296,9.8016,9.7258,9.7864,9.7334,9.5024,9.4719,9.3892,9.2096,9.3248,9.4256,9.4855,9.7366,9.9893,10.2262,10.4141,10.5908,10.7525,10.6848,10.6134,10.5382,10.463,10.3389,10.1773,10.1773,10.1773,10.1773,10.1773,10.1773,10.1773,10.1773,10.2224,10.2863,10.2863,10.3352,10.3991,10.3926,10.5129,10.671,10.6638,10.7195,10.7826,10.7826,10.8314,10.8878,10.8878,10.8878,10.8878,10.8878,10.8878,10.8811,10.8519,10.8441,10.836,10.7982,10.7891,10.7891,10.7891,10.8026,10.8026,10.7656,10.7521,10.7521,10.7521,10.7357,10.5919,10.2252,10.0724,9.9131,9.7031,9.6892,9.6711,9.6009,9.4946,9.3996,9.3362,9.2882,9.1665,8.9579,8.9729,8.9562,8.8894,8.8433,8.8213,8.8213,8.847,8.8612,8.8612,8.8577,8.8505,8.8493,8.8371,8.8399,8.838,8.8371,8.8501,8.8915,8.9028,8.9366,9.0644,9.1246,9.2214,9.4419,9.2682,9.1542,9.3542,9.2414,9.1359,9.1523,9.3479,9.4531,9.366,9.5365,9.6728,9.7145,9.7182,9.6539,9.4986,9.4702,9.3816,9.2036,9.1391,9.1204,9.1509,9.399,9.6096,9.7675,10.0645,10.3164,10.5232,10.5232,10.5232,10.5232,10.478,10.3916,10.2713,10.3164,10.3352,10.3389,10.3803,10.3991,10.3991,10.3991,10.4254,10.4592,10.4141,10.4517,10.5086,10.4088,10.5404,10.7541,10.7543,10.7539,10.7571,10.7567,10.7567,10.7567,10.7638,10.7939,10.8277,10.8277,10.8277,10.8209,10.7882,10.7465,10.6965,10.6579,10.6726,10.6912,10.6561,10.6726,10.6815,10.617,10.566,10.5297,10.5297,10.4696,10.2336,9.7068,9.5705,9.4747,9.3531,9.3789,9.3679,9.2831,9.2195,9.1404,9.0365,8.8902,8.7569,8.6523,8.6892,8.7085,8.7085,8.7487,8.7703,8.7864,8.8251,8.847,8.8577,8.847,8.8435,8.7066,8.6653,8.6653,8.6653,8.6653,8.7028,8.8652,8.9028,8.9028,8.914,9.0419,9.1133,8.9694,8.928,8.9811,9.1768,9.0677,8.9621,8.9897,9.2789,9.366,9.0441,9.2979,9.5554,9.7069,9.7182,9.6539,9.4986,9.461,9.3736,9.2036,9.0188,8.992,9.1509,9.1735,9.2637,9.4329,9.6096,9.8577,10.1698,10.1698,10.1698,10.166,10.0081,9.9291,9.9291,10.0908,10.1585,10.1698,10.3314,10.3991,10.3991,10.3991,10.4968,10.6209,10.4592,10.5955,10.8142,10.4772,10.3797,10.402,10.391,10.3984,10.4056,10.4051,10.4047,10.4118,10.4184,10.5382,10.6623,10.6623,10.6623,10.6556,10.612,10.4645,10.3181,10.2807,10.3659,10.4216,10.2968,10.3749,10.4179,10.2881,10.1146,9.9904,9.9904,9.8505,9.681,9.5005,9.6,9.5115,9.0548,9.1358,9.099,8.7932,8.7176,8.7035,8.7431,8.681,8.6648,8.6989,8.7037,8.7085,8.7085,8.7085,8.7398,8.7864,8.7904,8.8099,8.847,8.8435,8.8399,8.791,8.7272,8.6474,8.6417,8.6446,8.669,8.7346,8.8313,8.9028,8.9028,9.0344,9.1386,9.0853,8.9874,8.9445,9.032,8.8109,8.6367,8.6527,8.7601,8.7941,8.6692,8.957,9.1842,9.2373,9.2448,9.2676,9.3168,9.4096,9.4327,9.3722,9.1852,9.1067,9.167,9.0549,9.0719,9.2449,9.305,9.4479,9.6735,9.7825,9.8878,9.9855,10.0344,10.057,10.0645,10.2374,10.3089,10.3126,10.3728,10.3991,10.3991,10.3991,10.4297,10.4682,10.4081,10.461,10.5256,10.2824,10.2749,10.3497,10.2337,10.2072,10.1986,10.1006,10.0663,10.0695,10.0727,10.1171,10.166,10.166,10.166,10.1597,10.1288,10.0652,10.0084,9.9668,9.9744,9.9755,9.9325,9.9431,9.9479,9.901,9.8353,9.7878,9.7878,9.3826,9.0548,8.9958,9.04,9.0105,8.8374,8.8669,8.8558,8.7379,8.681,8.6547,8.6758,8.62,8.588,8.6072,8.6072,8.6072,8.6072,8.6418,8.6843,8.7362,8.7618,8.7984,8.8435,8.7904,8.766,8.7806,8.7318,8.6484,8.6358,8.6426,8.6662,8.7346,8.8276,8.9028,8.9028,8.993,9.0559,9.0138,8.9171,8.8133,8.7183,8.5232,8.3638,8.3194,8.3586,8.3876,8.3876,8.6389,8.832,8.8888,8.8964,8.9646,9.135,9.241,9.3191,9.3722,9.1935,9.1154,9.167,8.9947,8.9817,9.1547,9.0983,9.1547,9.3238,9.4366,9.5757,9.7336,9.8464,9.8991,9.9066,10.0758,10.151,10.1547,10.2074,10.2299,10.2299,10.2305,10.2574,10.2883,10.2286,10.1355,10.0164,9.8931,9.9268,10.0016,9.8931,9.8626,9.8504,9.7557,9.7282,9.7269,9.7269,9.7712,9.8164,9.8164,9.8164,9.8102,9.7941,9.7355,9.6762,9.6496,9.6617,9.6574,9.6018,9.6155,9.6168,9.5651,9.5439,9.5189,9.4637,9.0879,8.7932,8.7343,8.7269,8.7269,8.7269,8.7269,8.7269,8.7269,8.681,8.6529,8.6529,8.5895,8.5539,8.5539,8.5539,8.5539,8.5539,8.5844,8.631,8.6743,8.7037,8.7362,8.7786,8.7271,8.7085,8.6455,8.6396,8.6396,8.6358,8.6358,8.6868,8.8436,8.8915,8.899,8.8952,8.899,8.8539,8.7035,8.6837,8.5864,8.2688,8.2195,8.1686,8.0165,8.1238,8.2147,8.2147,8.3662,8.529,8.6919,8.7108,8.779,8.9456,8.9534,9.0206,9.1772,9.0192,8.9937,9.1537,8.9892,8.9817,9.1434,8.9855,8.9855,9.1471,9.1471,9.2336,9.3915,9.3915,9.3953,9.4103,9.5795,9.6547,9.666,9.8164,9.8772,9.8772,9.8785,9.9729,10.0822,9.9142,9.6418,9.3509,9.3509,9.3509,9.3509,9.3435,9.3543,9.3612,9.3713,9.3734,9.3752,9.3886,9.5118,9.6397,9.6397,9.6397,9.6397,9.6397,9.486,9.335,9.335,9.4371,9.4766,9.3242,9.396,9.4369,9.285,9.2277,9.1518,9.0007,8.9749,8.9159,8.749,8.7269,8.7269,8.7269,8.7269,8.7269,8.7269,8.681,8.6529,8.6529,8.5895,8.5539,8.5539,8.5539,8.5539,8.5539,8.5539,8.5742,8.6091,8.6128,8.622,8.6487,8.6487,8.6693,8.4237,8.4604,8.4371,8.3134,8.3771,8.4504,8.3851,8.6471,8.8689,8.7561,8.8238,8.8877,8.8464,8.7553,8.658,8.569,8.3669,8.205,8.1642,8.0973,8.0556,8.0556,8.1957,8.2639,8.1995,8.298,8.3813,8.4306,8.6469,8.8502,9.0168,8.9573,8.9986,9.1657,8.9973,8.9253,8.9704,8.9253,8.9253,8.9704,8.9704,8.9968,9.0419,9.0419,9.1095,9.2336,9.3932,9.4683,9.4817,9.5148,9.5298,9.5292,9.5273,9.547,9.5553,9.3877,9.3358,9.3509,9.3509,9.3509,9.3323,9.2201,9.1825,9.1665,9.0575,9.0227,9.0245,9.0245,9.065,9.0988,9.1085,9.1122,9.1114,9.1133,9.0663,9.0258,9.0258,9.0382,9.0369,8.9958,9.0003,8.9998,8.9551,8.9228,8.8901,8.8457,8.8561,8.8417,8.7797,8.7716,8.7591,8.7353,8.7269,8.7269,8.7269,8.681,8.6529,8.6529,8.5895,8.5539,8.5539,8.5539,8.5539,8.5539,8.5416,8.5623,8.6091,8.5902,8.6035,8.6487,8.6015,8.6072,8.0789,8.1887,8.2928,8.2599,8.3237,8.3743,8.2874,8.493,8.6734,8.5832,8.6358,8.7223,8.79,8.7402,8.6882,8.6898,8.5407,8.4017,8.3384,8.1882,8.0859,8.0859,8.1654,8.1617,8.0064,8.0708,8.1541,8.2185,8.3971,8.5762,8.7428,8.7988,8.8945,9.0552,8.957,8.9366,9.008,8.9366,8.9028,8.9028,8.9028,8.9028,8.9028,8.9028,8.9554,9.0532,9.146,9.1874,9.1911,9.1821,9.1752,9.1746,9.1758,9.2143,9.2452,9.074,9.0668,9.1453,9.1453,9.1453,9.1304,9.0406,9.0176,9.0018,8.9082,8.8808,8.8833,8.8833,8.8864,8.8931,8.899,8.9019,8.901,8.9028,8.9028,8.9028,8.9028,8.8906,8.8789,8.8789,8.86,8.8395,8.8395,8.8213,8.8056,8.8175,8.8213,8.8213,8.8056,8.8016,8.7934,8.7729,8.7686,8.7686,8.7686,8.6977,8.6547,8.6633,8.5974,8.5539,8.5539,8.5539,8.5478,8.5453,8.5391,8.5416,8.5551,8.5406,8.5466,8.5655,8.4634,8.4213,7.7171,7.8903,8.1379,8.2569,8.302,8.3133,0.0,8.3501,8.3764,8.3426,8.3802,8.4591,8.5907,8.6386,8.6678,8.686,8.6843,8.64,8.5201,8.3586,8.2563,8.2791,8.245,8.1692,8.0291,7.9988,8.0468,8.1831,8.1951,8.259,8.418,8.5547,8.705,8.8689,8.8764,8.9554,9.1246,8.978,8.9028,8.9028,8.9028,8.9028,8.9028,8.9028,8.9028,8.9028,8.9047,8.8961,8.8833,8.8833,8.8833,8.8833,8.8814,8.9681,9.0696,8.9206,8.8612,8.8612,8.8612,8.8612,8.8612,8.8612,8.8716,8.8819,8.8819,8.8808,8.8802,8.8802,8.8901,8.9028,8.9028,8.901,8.9028,8.9028,8.9028,8.9028,8.9028,8.9028,8.9028,8.9028,8.8848,8.8696,8.8696,8.8465,8.836,8.86,8.843,8.8288,8.8288,8.8288,8.8251,8.8213,8.8175,8.8138,8.8138,8.7136,8.6617,8.683,8.6015,8.5539,8.5539,8.5539,8.5478,8.5329,8.5365,8.5068,8.4531,8.4466,8.4328,8.3981,8.2626,8.1669,0.0,0.0,0.0,0.0,0.0,0.0,0.0,7.929,8.1396,7.8764,8.1469,8.4001,8.285,8.3826,8.5298,8.6671,8.588,8.5463,8.6602,8.5328,8.476,8.6124,8.3889,8.2109,8.1806,8.0632,7.9963,8.0173,8.0095,8.0707,8.2304,8.2546,8.4015,8.7035,8.7148,8.7937,8.9479,8.9178,8.9028,8.9028,8.9028,8.9028,8.9028,8.9028,8.9028,8.9028,8.9047,8.8961,8.8833,8.8745,8.8712,8.8814,8.8716,8.8832,8.9094,8.8758,8.8612,8.8612,8.8612,8.8612,8.8612,8.8612,8.8683,8.8683,8.8683,8.8679,8.8679,8.8679,8.8782,8.8846,8.8901,8.8961,8.9047,8.9028,8.9028,8.9028,8.9028,8.9028,8.9028,8.9028,8.9,8.8935,8.8935,8.8727,8.8567,8.8632,8.86,8.8567,8.8567,8.836,8.8175,8.7934,8.7679,8.7501,8.7501,8.6876,8.6493,8.66,8.5953,8.5539,8.5539,8.5539,8.5539,8.5478,8.5302,8.4502,8.321,8.2856,8.2019,8.0806,8.0521,7.9847,0.0,0.0,0.0,0.0,0.0,0.0,0.0,0.0,0.0,0.0,0.0,7.9628,8.0452,0.0,8.2682,8.5295,8.505,8.5218,8.7019,8.5821,8.5063,8.5934,8.4533,8.3169,8.2298,8.1502,8.0679,7.9765,7.9536,7.9761,8.0528,8.1243,8.2411,8.4103,8.5005,8.6208,8.7825,8.7862,8.8238,8.9028,8.9028,8.9028,8.9028,8.9028,8.9028,8.901,8.8953,8.8901,8.8808,8.8679,8.8683,8.8716,8.8645,8.8612,8.8612,8.8612,8.8612,8.8612,8.8612,8.8612,8.8612,8.8612,8.8612,8.8612,8.8612,8.8612,8.8612,8.8612,8.8712,8.884,8.8833,8.8923,8.9038,8.9028,8.9028,8.9028,8.9028,8.8944,8.8819,8.8819,8.8727,8.8632,8.8632,8.8758,8.8819,8.8819,8.8819,8.8489,8.7578,8.7471,8.7008,8.5754,8.5566,8.5447,8.5188,8.5026,8.4671,8.41,8.4263,8.4347,8.4347,8.4347,8.3926,8.2917,8.2769,8.2286,8.1346,8.1156,8.0663,7.9879,7.8309,7.7397,0.0,0.0,0.0,0.0,0.0,0.0,0.0,0.0,0.0,0.0,0.0,0.0,0.0,0.0,0.0,8.2569,8.3084,8.3858,8.5983,8.4595,8.3586,8.4217,8.4003,8.3548,8.2791,8.2117,8.13,8.0171,7.9612,7.9322,7.9301,8.0504,8.132,8.1659,8.2975,8.4554,8.6246,8.6256,8.7046,8.8614,8.8614,0.0,8.9028,8.9028,8.9038,8.9028,8.8894,8.884,8.8819,8.8716,8.8612,8.8574,8.8275,8.835,8.8612,8.8612,8.8612,8.8612,8.8612,8.8612,8.8612,8.8612,8.8612,8.8612,8.8612,8.8612,0.0,8.8612,8.8745,8.8833,8.8833,8.8915,8.9028,8.9028,8.9028,8.9028,8.9028,8.8848,8.8727,8.8727,8.8533,8.8395,8.8395,8.8664,8.8765,8.8521,8.8484,8.7826,8.6133,8.6033,8.545,8.369,8.3569,8.3503,8.311,8.2926,8.2548,8.1816,8.218,8.2224,8.1819,8.1783,8.1054,7.9487,7.9428,7.9428,7.9513,7.945,7.9308,7.8915,7.5134,7.3959,0.0,0.0,0.0,0.0,0.0,0.0,0.0,0.0,0.0,0.0,0.0,0.0,0.0,0.0,0.0,0.0,7.7827,7.9004,8.2314,8.0163,7.9318,8.2337,8.136,8.1503,8.4217,8.1753,8.0457,8.1513,8.021,7.9316,7.9314,7.9502,0.0,0.0,0.0,8.2899,8.4617,8.4753,8.5591,8.7121,8.7121,8.7797,8.9028,8.9028,8.9038,8.9028,8.8894,8.884,8.8819,8.8716,8.8612,8.8462,8.6966,8.7303,8.8612,8.8612,8.8612,8.8612,8.8612,0.0,0.0,8.8612,8.8612,8.8612,8.8612,8.8612,8.8612,8.8612,8.8749,8.8814,8.8833,8.8923,8.9019,8.9028,8.9028,8.9028,8.9028,8.9028,8.9,8.9,8.8972,8.8935,8.8935,8.86,8.791,8.6648,8.6454,8.5953,8.4576,8.425,8.4026,8.374,8.347,0.0,8.3186,8.1699,8.1243,8.2267,8.0718,7.8854,7.6873,7.6837,7.6728,7.6493,7.6252,7.682,7.8161,7.7896,7.7096,7.5633,6.9568,6.8374,0.0,0.0,0.0,0.0,0.0,0.0,0.0,0.0,0.0,0.0,0.0,0.0,0.0,0.0,0.0,0.0,7.5735,7.5898,7.6413,7.5305,7.5684,7.909,7.9735,8.0405,8.1677,8.1443,8.0958,8.0514,7.9836,7.9437,7.9427,7.9328,7.9591,8.0268,8.0343,8.1132,8.2749,8.2836,8.3727,8.5418,8.5345,8.5655,8.6321,8.6246,8.6181,8.6137,8.6988,8.7347,8.7359,8.7224,8.7752,8.8387,0.0,0.0,0.0,0.0,8.6368,8.7041,8.6144,8.6406,8.7004,8.6107,8.5807,8.5807,8.5807,8.6443,8.7153,8.7153,8.7963,8.884,8.8833,8.8953,8.9038,8.9028,8.9028,8.9028,8.9028,8.8906,8.8789,8.8789,8.8696,0.0,8.6455,8.6004,8.5721,8.5177,8.501,8.4382,8.281,8.2569,8.2055,8.0734,8.0622,8.0521,8.0387,7.9654,0.0,0.0,0.0,7.9,7.7959,7.7631,0.0,0.0,0.0,7.3175,7.3801,7.1679,0.0,0.0,6.8462,6.7749,0.0,0.0,0.0,0.0,0.0,0.0,0.0,0.0,0.0,0.0,0.0,0.0,0.0,0.0,0.0,0.0,7.3159,7.3191,7.2474,7.1977,7.2921,7.6296,7.7414,7.8338,7.9576,8.0377,8.0631,8.021,7.9795,7.9564,7.9502,7.9403,7.9328,7.929,7.9328,7.9892,8.102,8.1095,8.1967,8.3652,8.3542,8.3802,8.4302,8.4215,8.4088,8.4006,8.5188,8.5661,8.5605,8.5504,8.6181,8.7004,8.42,8.3377,8.3788,8.3788,8.4499,8.5321,8.4162,8.4499,8.5284,8.4162,8.3788,8.3788,8.3788,8.4574,8.5471,8.5466,8.6423,8.7483,8.7513,8.7563,8.7647,8.7674,8.7674,8.7674,8.7674,8.7563,8.7415,8.7415,8.729,8.6471,8.4554,8.4229,8.4127,8.3791,8.3647,8.2936,8.1095,8.0932,8.038,7.8778,7.8784,7.8813,7.8598,7.8068,7.7894,7.8162,7.8304,7.8496,7.8705,7.7399,7.6041,7.4618,7.2189,7.0664,0.0,0.0,0.0,0.0,0.0,0.0,0.0,0.0,0.0,0.0,0.0,0.0,0.0,0.0,0.0,0.0,0.0,0.0,0.0,0.0,0.0,0.0,0.0,0.0,7.2242,7.1085,7.1299,7.4714,7.3695,7.4574,7.9255,7.827,7.8606,8.1705,8.0544,7.9658,7.9526,7.9502,7.9441,7.929,7.9403,7.954,7.9578,7.969,8.0456,8.1922,8.1914,8.2723,8.4178,8.4178,8.4088,8.3969,8.4025,8.3967,8.3877,8.3858,8.3863,8.3751,8.2031,8.233,8.3788,8.3788,8.3826,8.3826,8.3788,8.3826,8.3826,8.3788,8.3788,8.3788,8.3788,8.3826,8.3858,8.3846,8.3877,8.3945,8.4091,8.4146,8.4146,8.4265,8.4328,8.4328,8.4328,8.4328,8.4302,8.4302,8.4302,8.4316,8.4325,8.4349,8.3828,8.2311,8.2104,0.0,7.9623,7.9397,7.9354,7.929,7.929,7.929,7.929,7.7444,7.6976,7.8591,7.6721,7.6045,7.7203,7.393,7.1884,7.1493,7.1163,7.0215,6.8671,0.0,0.0,0.0,0.0,0.0,0.0,0.0,0.0,0.0,0.0,0.0,0.0,0.0,0.0,0.0,0.0,0.0,0.0,0.0,0.0,0.0,0.0,0.0,0.0,7.1299,7.2096,7.3211,7.3842,7.4361,7.4756,7.6397,7.7841,7.887,7.9468,7.9812,7.9766,7.969,7.9615,7.9578,7.954,7.9502,7.9502,7.9441,7.9704,8.0268,8.0198,8.0499,8.1057,8.0982,8.0944,8.0932,8.1914,8.228,8.2213,8.2168,8.1433,8.0386,7.9788,7.9937,8.0423,8.0423,8.0423,8.0573,8.1732,8.1358,8.0423,8.0423,8.0423,8.0423,8.0423,8.1209,8.2106,8.2199,8.3038,8.3921,8.3969,8.4023,8.4114,8.4178,8.4178,8.4178,8.4178,8.4178,8.4178,8.4178,8.2411,8.0617,7.9527,8.0264,8.0515,7.9042,7.9704,8.0159,7.9629,7.9404,7.9301,7.9316,7.9301,7.929,7.929,7.8563,7.8371,7.8934,7.7886,7.7393,7.78,7.6333,7.5345,7.494,7.4842,7.1765,6.549,0.0,0.0,0.0,0.0,0.0,0.0,0.0,0.0,0.0,0.0,0.0,0.0,0.0,0.0,0.0,0.0,0.0,0.0,0.0,0.0,0.0,0.0,0.0,0.0,0.0,0.0,7.2432,7.2926,0.0,7.2418,7.4446,7.5977,7.6494,7.7533,7.8385,7.8976,7.8914,7.9121,7.9686,7.963,7.9586,7.9578,7.9502,7.9502,7.9578,7.9441,7.9403,7.9502,7.9365,7.929,7.9365,8.0253,8.0584,8.0518,8.044,7.9781,7.8801,7.8801,7.8801,7.8793,7.8801,7.8801,7.895,7.9975,7.9638,7.8704,7.8704,7.836,7.7903,7.7903,7.8277,7.883,7.9515,8.0509,8.1464,8.2145,8.2385,8.2448,8.2448,8.2448,8.2448,8.2448,8.2448,8.2448,8.2448,8.0757,7.8774,7.7119,7.7762,7.8197,7.7359,7.8101,7.8977,7.9614,7.948,7.9364,7.9284,7.9286,7.929,7.929,7.9203,7.9089,7.9051,7.8666,7.8304,7.8167,7.7645,7.6594,7.508,7.4381,7.0703,0.0,0.0,0.0,0.0,0.0,0.0,0.0,0.0,0.0,0.0,0.0,0.0,0.0,0.0,0.0,0.0,0.0,0.0,0.0,0.0,0.0,0.0,0.0,0.0,0.0,0.0,0.0,7.2324,7.1093,0.0,0.0,0.0,0.0,7.4676,7.4862,7.5607,7.7186,7.7231,7.797,7.9546,7.9597,7.9642,7.969,7.9714,7.9677,7.9677,7.9564,7.9526,7.9502,7.9365,7.9328,7.929,7.9178,7.9025,7.8934,7.8813,7.8784,7.8784,7.8709,7.8691,7.8671,7.8775,7.8747,7.8709,7.8696,7.8696,7.8584,7.8479,7.7491,7.6238,7.6088,7.4992,0.0,0.0,7.6336,7.6774,7.8689,7.9177,7.9215,7.929,7.929,7.929,7.929,7.929,7.9253,7.9102,7.9051,7.8519,7.6801,0.0,7.6678,7.6934,7.7148,7.7805,7.9402,7.955,7.9443,7.9343,7.9309,7.9314,7.929,7.9203,7.9089,7.8961,7.8916,7.871,7.8206,7.7534,7.5503,7.1955,6.989,0.0,0.0,0.0,0.0,0.0,0.0,0.0,0.0,0.0,0.0,0.0,0.0,0.0,0.0,0.0,0.0,0.0,0.0,0.0,0.0,0.0,0.0,0.0,0.0,0.0,0.0,6.996,7.0612,7.232,7.2124,7.1051,0.0,0.0,0.0,0.0,0.0,0.0,7.5547,7.5635,7.6389,7.8042,7.7987,7.8579,7.9841,7.9744,7.9689,7.9689,7.9651,7.9631,7.9653,7.9502,7.9441,7.9441,7.9216,7.9025,7.8821,7.7648,7.7107,7.6912,7.5768,7.5308,7.5458,7.6732,7.6368,7.5656,7.8035,7.8044,7.6809,7.5517,7.4835,7.4066,7.1606,0.0,0.0,0.0,0.0,7.3657,7.6659,7.7434,7.7772,7.899,7.929,7.929,7.929,7.929,7.8576,7.6057,7.5636,7.4403,7.031,7.0639,0.0,7.1721,7.3853,7.6075,7.7767,7.8948,7.9588,7.9461,7.9343,7.9332,7.9314,7.929,7.9203,7.9089,7.8998,7.8888,7.871,7.6165,7.3597,7.1101,0.0,0.0,0.0,0.0,0.0,0.0,0.0,0.0,0.0,0.0,0.0,0.0,0.0,0.0,0.0,0.0,0.0,0.0,0.0,0.0,0.0,0.0,0.0,0.0,0.0,0.0,0.0,6.6282,6.7351,6.8981,6.9198,6.8424,0.0,0.0,0.0,0.0,0.0,0.0,0.0,0.0,0.0,7.5286,7.4529,7.4573,7.5519,7.6956,7.7649,7.7687,7.909,7.9781,7.9766,7.9628,7.9569,7.9478,7.9341,7.8376,7.6892,7.6003,7.5645,7.5472,0.0,0.0,0.0,0.0,7.3447,7.2184,7.397,7.3943,7.3007,7.2018,0.0,0.0,0.0,0.0,0.0,0.0,0.0,7.2328,7.5004,7.6771,7.8125,7.9065,7.929,7.929,7.929,7.6997,7.4425,7.2492,7.2216,7.1126,6.7753,6.7924,0.0,0.0,0.0,7.461,7.7072,7.8711,7.9658,7.9536,7.9384,7.9316,7.9314,7.929,7.9266,7.9115,7.9025,7.8269,7.6837,7.4018,7.0637,0.0,0.0,0.0,0.0,0.0,0.0,0.0,0.0,0.0,0.0,0.0,0.0,0.0,0.0,0.0,0.0,0.0,0.0,0.0,0.0,0.0,0.0,0.0,0.0,0.0,0.0,0.0,0.0,0.0,6.3479,6.5073,0.0,0.0,0.0,0.0,0.0,0.0,0.0,0.0,0.0,0.0,0.0,0.0,0.0,6.9971,6.9971,7.2894,7.4375,7.4375,7.7208,7.8568,7.8589,7.8432,7.844,7.8538,7.8538,0.0,7.4434,7.4216,0.0,0.0,0.0,0.0,0.0,0.0,0.0,0.0,0.0,0.0,0.0,0.0,0.0,0.0,0.0,0.0,0.0,0.0,0.0,0.0,0.0,0.0,7.8238,7.805,7.8313,7.8538,7.8087,7.3463,6.9198,6.8545,6.8602,6.8146,0.0,0.0,0.0,0.0,0.0,0.0,7.6579,7.8612,7.9674,7.9536,7.9404,7.9338,7.9314,7.929,7.9266,7.9178,7.8387,7.6657,7.3831,7.1443,0.0,0.0,0.0,0.0,0.0,0.0,0.0,0.0,0.0,0.0,0.0,0.0,0.0,0.0,0.0,0.0,0.0,0.0,0.0,0.0,0.0,0.0,0.0,0.0,0.0,0.0,0.0,0.0,0.0,0.0,0.0,0.0,0.0,0.0,0.0,0.0,0.0,0.0,0.0,0.0,0.0,0.0,0.0,0.0,0.0,0.0,0.0,0.0,0.0,0.0,7.144,7.1692,7.1722,7.1572,7.229,7.3571,7.3571,7.3905,7.4345,7.3065,0.0,0.0,0.0,0.0,0.0,0.0,0.0,0.0,0.0,0.0,0.0,0.0,0.0,0.0,0.0,0.0,0.0,0.0,0.0,0.0,0.0,0.0,7.2711,7.1433,7.32,7.4403,7.1696,0.0,0.0,0.0,0.0,0.0,0.0,0.0,0.0,0.0,0.0,0.0,7.4837,7.7969,7.9771,7.9536,7.9499,7.9422,7.9314,7.929,7.929,7.929,7.5185,7.2559,0.0,0.0,0.0,0.0,0.0,0.0,0.0,0.0,0.0,0.0,0.0,0.0,0.0,0.0,0.0,0.0,0.0,0.0,0.0,0.0,0.0,0.0,0.0,0.0,0.0,0.0,0.0,0.0,0.0,0.0,0.0,0.0,0.0,0.0,0.0,0.0,0.0,0.0,0.0,0.0,0.0,0.0,0.0,0.0,0.0,0.0,0.0,0.0,0.0,0.0,0.0,0.0,0.0,0.0,0.0,0.0,0.0,0.0,6.9128,6.8106,0.0,0.0,0.0,0.0,0.0,0.0,0.0,0.0,0.0,0.0,0.0,0.0,0.0,0.0,0.0,0.0,0.0,0.0,0.0,0.0,0.0,0.0,0.0,0.0,0.0,0.0,0.0,0.0,0.0,0.0,0.0,0.0,0.0,0.0,0.0,0.0,0.0,0.0,0.0,0.0,7.4421,7.7791,7.9836,7.9604,7.9553,7.9461,7.9332,7.9301,7.8538,7.6809,7.3421,0.0,0.0,0.0,0.0,0.0,0.0,0.0,0.0,0.0,0.0,0.0,0.0,0.0,0.0,0.0,0.0,0.0,0.0,0.0,0.0,0.0,0.0,0.0,0.0,0.0,0.0,0.0,0.0,0.0,0.0,0.0,0.0,0.0,0.0,0.0,0.0,0.0,0.0,0.0,0.0,0.0,0.0,0.0,0.0,0.0,0.0,0.0,0.0,0.0,0.0,0.0,0.0,0.0,0.0,0.0,0.0,0.0,0.0,0.0,6.5554,6.3479,0.0,0.0,0.0,0.0,0.0,0.0,0.0,0.0,0.0,0.0,0.0,0.0,0.0,0.0,0.0,0.0,0.0,0.0,0.0,0.0,0.0,0.0,0.0,0.0,0.0,0.0,0.0,0.0,0.0,0.0,0.0,0.0,0.0,0.0,0.0,0.0,0.0,0.0,0.0,0.0,7.4421,7.7791,7.9849,7.9727,7.9571,7.9443,7.9343,7.9286,7.7862,7.4478,7.1943,0.0,0.0,0.0,0.0,0.0,0.0,0.0,0.0,0.0,0.0,0.0,0.0,0.0,0.0,0.0,0.0,0.0,0.0,0.0,0.0,0.0,0.0,0.0,0.0,0.0,0.0,0.0,0.0,0.0,0.0,0.0,0.0,0.0,0.0,0.0,0.0,0.0,0.0,0.0,0.0,0.0,0.0,0.0,0.0,0.0,0.0,0.0,0.0,0.0,0.0,0.0,0.0,0.0,0.0,0.0,0.0,0.0,0.0,0.0,0.0,0.0,0.0,0.0,0.0,0.0,0.0,0.0,0.0,0.0,0.0,0.0,0.0,0.0,0.0,0.0,0.0,0.0,0.0,0.0,0.0,0.0,0.0,0.0,0.0,0.0,0.0,0.0,0.0,0.0,0.0,0.0,0.0,0.0,0.0,0.0,0.0,0.0,0.0,0.0,0.0,0.0,7.4421,7.7791,7.9849,7.9727,7.9571,7.9443,7.9343,7.9286,7.7862,7.4478,0.0,0.0,0.0,0.0,0.0,0.0,0.0,0.0,0.0,0.0,0.0,0.0,0.0,0.0,0.0,0.0,0.0,0.0,0.0,0.0,0.0,0.0,0.0,0.0,0.0,0.0,0.0,0.0,0.0,0.0,0.0,0.0,0.0,0.0,0.0,0.0,0.0,0.0,0.0,0.0,0.0,0.0,0.0,0.0,0.0,0.0,0.0,0.0,0.0,0.0,0.0,0.0,0.0,0.0,0.0,0.0,0.0,0.0,0.0,0.0,0.0,0.0,0.0,0.0,0.0,0.0,0.0,0.0,0.0,0.0,0.0,0.0,0.0,0.0,0.0,0.0,0.0,0.0,0.0,0.0,0.0,0.0,0.0,0.0,0.0,0.0,0.0,0.0,0.0,0.0,0.0,0.0,0.0,0.0,0.0,0.0,0.0,0.0,0.0,0.0,0.0,0.0,7.4421,7.7791,7.9862,7.9798,7.9604,7.9499,7.9423,7.9332,7.7035,7.1658,0.0,0.0,0.0,0.0,0.0,0.0,0.0,0.0,0.0,0.0,0.0,0.0,0.0,0.0,0.0,0.0,0.0,0.0,0.0,0.0,0.0,0.0,0.0,0.0,0.0,0.0,0.0,0.0,0.0,0.0,0.0,0.0,0.0,0.0,0.0,0.0,0.0,0.0,0.0,0.0,0.0,0.0,0.0,0.0,0.0,0.0,0.0,0.0,0.0,0.0,0.0,0.0,0.0,0.0,0.0,0.0,0.0,0.0,0.0,0.0,0.0,0.0,0.0,0.0,0.0,0.0,0.0,0.0,0.0,0.0,0.0,0.0,0.0,0.0,0.0,0.0,0.0,0.0,0.0,0.0,0.0,0.0,0.0,0.0,0.0,0.0,0.0,0.0,0.0,0.0,0.0,0.0,0.0,0.0,0.0,0.0,0.0,0.0,0.0,0.0,0.0,0.0,7.4345,7.7375,7.9344,7.9837,7.9658,7.9518,7.9518,7.9392,7.6471,6.9816,0.0,0.0,0.0,0.0,0.0,0.0,0.0,0.0,0.0,0.0,0.0,0.0,0.0,0.0,0.0,0.0,0.0,0.0,0.0,0.0,0.0,0.0,0.0,0.0,0.0,0.0,0.0,0.0,0.0,0.0,0.0,0.0,0.0,0.0,0.0,0.0,0.0,0.0,0.0,0.0,0.0,0.0,0.0,0.0,0.0,0.0,0.0,0.0,0.0,0.0,0.0,0.0,0.0,0.0,0.0,0.0,0.0,0.0,0.0,0.0,0.0,0.0,0.0,0.0,0.0,0.0,0.0,0.0,0.0,0.0,0.0,0.0,0.0,0.0,0.0,0.0,0.0,0.0,0.0,0.0,0.0,0.0,0.0,0.0,0.0,0.0,0.0,0.0,0.0,0.0,0.0,0.0,0.0,0.0,0.0,0.0,0.0,0.0,0.0,0.0,0.0,0.0,7.4182,7.6352,7.8019,7.9723,7.9658,7.9518,7.9518,7.9392,7.6471,0.0,0.0,0.0,0.0,0.0,0.0,0.0,0.0,0.0,0.0,0.0,0.0,0.0,0.0,0.0,0.0,0.0,0.0,0.0,0.0,0.0,0.0,0.0,0.0,0.0,0.0,0.0,0.0,0.0,0.0,0.0,0.0,0.0,0.0,0.0,0.0,0.0,0.0,0.0,0.0,0.0,0.0,0.0,0.0,0.0,0.0,0.0,0.0,0.0,0.0,0.0,0.0,0.0,0.0,0.0,0.0,0.0,0.0,0.0,0.0,0.0,0.0,0.0,0.0,0.0,0.0,0.0,0.0,0.0,0.0,0.0,0.0,0.0,0.0,0.0,0.0,0.0,0.0,0.0,0.0,0.0,0.0,0.0,0.0,0.0,0.0,0.0,0.0,0.0,0.0,0.0,0.0,0.0,0.0,0.0,0.0,0.0,0.0,0.0,0.0,0.0,0.0,0.0,7.4057,7.6253,7.8019,7.9723,7.9658,7.9027,7.7856,7.7681,7.4741,6.8087,0.0,0.0,0.0,0.0,0.0,0.0,0.0,0.0,0.0,0.0,0.0,0.0,0.0,0.0,0.0,0.0,0.0,0.0,0.0,0.0,0.0,0.0,0.0,0.0,0.0,0.0,0.0,0.0,0.0,0.0,0.0,0.0,0.0,0.0,0.0,0.0,0.0,0.0,0.0,0.0,0.0,0.0,0.0,0.0,0.0,0.0,0.0,0.0,0.0,0.0,0.0,0.0,0.0,0.0,0.0,0.0,0.0,0.0,0.0,0.0,0.0,0.0,0.0,0.0,0.0,0.0,0.0,0.0,0.0,0.0,0.0,0.0,0.0,0.0,0.0,0.0,0.0,0.0,0.0,0.0,0.0,0.0,0.0,0.0,0.0,0.0,0.0,0.0,0.0,0.0,0.0,0.0,0.0,0.0,0.0,0.0,0.0,0.0,0.0,0.0,0.0,0.0,0.0,7.5672,7.7022,7.8701,7.8697,7.7894,7.6159,7.5906,7.3275,6.726,0.0,0.0,0.0,0.0,0.0,0.0,0.0,0.0,0.0,0.0,0.0,0.0,0.0,0.0,0.0,0.0,0.0,0.0,0.0,0.0,0.0,0.0,0.0,0.0,0.0,0.0,0.0,0.0,0.0,0.0,0.0,0.0,0.0,0.0,0.0,0.0,0.0,0.0,0.0,0.0,0.0,0.0,0.0,0.0,0.0,0.0,0.0,0.0,0.0,0.0,0.0,0.0,0.0,0.0,0.0,0.0,0.0,0.0,0.0,0.0,0.0,0.0,0.0,0.0,0.0,0.0,0.0,0.0,0.0,0.0,0.0,0.0,0.0,0.0,0.0,0.0,0.0,0.0,0.0,0.0,0.0,0.0,0.0,0.0,0.0,0.0,0.0,0.0,0.0,0.0,0.0,0.0,0.0,0.0,0.0,0.0,0.0,0.0,0.0,0.0,0.0,0.0,0.0,7.4562,7.5256,7.6829,7.6867,7.6122,7.4443,7.4169,7.1959,6.6996,6.6696,0.0,0.0,0.0,0.0,0.0,0.0,0.0,0.0,0.0,0.0,0.0,0.0,0.0,0.0,0.0,0.0,0.0,0.0,0.0,0.0,0.0,0.0,0.0,0.0,0.0,0.0,0.0,0.0,0.0,0.0,0.0,0.0,0.0,0.0,0.0,0.0,0.0,0.0,0.0,0.0,0.0,0.0,0.0,0.0,0.0,0.0,0.0,0.0,0.0,0.0,0.0,0.0,0.0,0.0,0.0,0.0,0.0,0.0,0.0,0.0,0.0,0.0,0.0,0.0,0.0,0.0,0.0,0.0,0.0,0.0,0.0,0.0,0.0,0.0,0.0,0.0,0.0,0.0,0.0,0.0,0.0,0.0,0.0,0.0,0.0,0.0,0.0,0.0,0.0,0.0,0.0,0.0,0.0,0.0,0.0,0.0,0.0,0.0,0.0,0.0,0.0,0.0,7.2754,7.351,7.5083,7.5213,7.45,7.2803,7.2459,7.023,6.5267,6.4926,0.0,0.0,0.0,0.0,0.0,0.0,0.0,0.0,0.0,0.0,0.0,0.0,0.0,0.0,0.0,0.0,0.0,0.0,0.0,0.0,0.0,0.0,0.0,0.0,0.0,0.0,0.0,0.0,0.0,0.0,0.0,0.0,0.0,0.0,0.0,0.0,0.0,0.0,0.0,0.0,0.0,0.0,0.0,0.0,0.0,0.0,0.0,0.0,0.0,0.0,0.0,0.0,0.0,0.0,0.0,0.0,0.0,0.0,0.0,0.0,0.0,0.0,0.0,0.0,0.0,0.0,0.0,0.0,0.0,0.0,0.0,0.0,0.0,0.0,0.0,0.0,0.0,0.0,0.0,0.0,0.0,0.0,0.0,0.0,0.0,0.0,0.0,0.0,0.0,0.0,0.0,0.0,0.0,0.0,0.0,0.0,0.0,0.0,0.0,0.0,0.0,0.0,6.9936,7.1605,7.3307,7.3459,7.2803,7.1031,7.0723,6.8839,6.4608,6.4283,0.0,0.0,0.0,0.0,0.0,0.0,0.0,0.0,0.0,0.0,0.0,0.0,0.0,0.0,0.0,0.0,0.0,0.0,0.0,0.0,0.0,0.0,0.0,0.0,0.0,0.0,0.0,0.0,0.0,0.0,0.0,0.0,0.0,0.0,0.0,0.0,0.0,0.0,0.0,0.0,0.0,0.0,0.0,0.0,0.0,0.0,0.0,0.0,0.0,0.0,0.0,0.0,0.0,0.0,0.0,0.0,0.0,0.0,0.0,0.0,0.0,0.0,0.0,0.0,0.0,0.0,0.0,0.0,0.0,0.0,0.0,0.0,0.0,0.0,0.0,0.0,0.0,0.0,0.0,0.0,0.0,0.0,0.0,0.0,0.0,0.0,0.0,0.0,0.0,0.0,0.0,0.0,0.0,0.0,0.0,0.0,0.0,0.0,0.0,0.0,0.0,0.0,0.0,6.9767,7.1561,7.174,7.1107,6.9536,6.9402,6.7974,6.4533,0.0,0.0,0.0,0.0,0.0,0.0,0.0,0.0,0.0,0.0,0.0,0.0,0.0,0.0,0.0,0.0,0.0,0.0,0.0,0.0,0.0,0.0,0.0,0.0,0.0,0.0,0.0,0.0,0.0,0.0,0.0,0.0,0.0,0.0,0.0,0.0,0.0,0.0,0.0,0.0,0.0,0.0,0.0,0.0,0.0,0.0,0.0,0.0,0.0,0.0,0.0,0.0,0.0,0.0,0.0,0.0,0.0,0.0,0.0,0.0,0.0,0.0,0.0,0.0,0.0,0.0,0.0,0.0,0.0,0.0,0.0,0.0,0.0,0.0,0.0,0.0,0.0,0.0,0.0,0.0,0.0,0.0,0.0,0.0,0.0,0.0,0.0,0.0,0.0,0.0,0.0,0.0,0.0,0.0,0.0,0.0,0.0,0.0,0.0,0.0,0.0,0.0,0.0,0.0,6.8107,6.9937,7.0049,6.9852,6.9595,6.944,6.7974,6.4533,0.0,0.0,0.0,0.0,0.0,0.0,0.0,0.0,0.0,0.0,0.0,0.0,0.0,0.0]}],[{"header":{"parameterUnit":"kt","parameterCategory":2,"dx":1,"dy":1,"la1":29.285339999999998,"la2":30.599998999999997,"lo1":-89.70041500000002,"lo2":-87.6738589999976,"nx":112,"ny":82,"refTime":"2022-09-24T06:00:00:Z","depth":0,"parameterNumber":2,"parameterNumberName":"V-component_of_WINDS"},"data":[-0.6282,-0.6324,-0.6099,-0.5413,-0.4953,-0.4498,-0.4089,-0.3879,-0.3713,-0.4086,-0.3751,-0.3611,-0.4046,-0.3797,-0.3357,-0.3315,-0.3122,-0.3287,0.0,-0.4787,-0.5666,-0.6004,-0.6351,0.0,0.0,-0.6663,-0.6875,-0.7238,-0.7225,-0.7341,-0.7662,-0.768,-0.768,-0.768,-0.768,-0.768,-0.768,-0.768,-0.7198,-0.6717,-0.5996,-0.3836,-0.0958,-0.024,0.1439,0.3842,0.3842,0.3842,0.3842,0.3842,0.3842,0.3842,0.3842,0.3842,0.3842,0.3842,0.312,0.1918,0.1918,0.2879,0.3842,0.3842,0.3842,0.3842,0.3842,0.3842,0.3842,0.3842,0.3842,0.3842,0.3842,0.3842,0.3842,0.3842,0.3842,0.3842,0.3842,0.3842,0.3836,0.3815,0.378,0.3728,0.3648,0.3603,0.3556,0.3498,0.3489,0.3489,0.3489,0.3489,0.3489,0.3489,0.3489,0.3489,0.3489,0.3926,0.4144,0.4144,0.4578,0.4796,0.4796,0.4796,0.5001,0.5836,0.5869,0.6303,0.691,0.6952,0.6973,0.6973,0.8057,0.8489,-0.5965,-0.5799,-0.5364,-0.4685,-0.4255,-0.3829,-0.343,-0.3257,-0.311,-0.3428,-0.3125,-0.299,-0.3342,-0.3152,-0.2947,-0.2887,-0.2928,-0.3138,0.0,-0.4435,-0.5109,-0.5667,-0.6286,-0.6663,-0.674,-0.6814,-0.6989,-0.7304,-0.7251,-0.7347,-0.7664,-0.768,-0.768,-0.768,-0.768,-0.768,-0.768,-0.768,-0.7198,-0.6717,-0.6717,-0.5036,-0.1917,-0.1917,-0.024,0.2879,0.2879,0.336,0.3842,0.3842,0.3842,0.3842,0.3842,0.3842,0.3842,0.3842,0.312,0.1918,0.1198,0.1918,0.3119,0.3601,0.3842,0.3842,0.3842,0.3842,0.3842,0.3842,0.3842,0.3842,0.3842,0.3842,0.3842,0.3842,0.3842,0.3842,0.3842,0.3842,0.3842,0.3842,0.3811,0.3759,0.3679,0.365,0.3603,0.3505,0.3506,0.3511,0.3491,0.3489,0.3489,0.3489,0.3489,0.3489,0.3489,0.3489,0.3489,0.3489,0.3489,0.3489,0.3489,0.3489,0.3926,0.4582,0.4582,0.5016,0.5885,0.5885,0.5885,0.5885,0.5885,0.6103,-0.5667,-0.5239,-0.4578,-0.3954,-0.3767,-0.3576,-0.2835,-0.2927,-0.3017,-0.2904,-0.2969,-0.3029,-0.2973,-0.2964,-0.2944,-0.2887,-0.2931,0.0,0.0,-0.4345,-0.4624,-0.4713,-0.5893,-0.6735,-0.6963,-0.6785,-0.6846,-0.7304,-0.7119,-0.7188,-0.7654,-0.768,-0.768,-0.768,-0.768,-0.768,-0.768,-0.768,-0.6717,-0.5036,-0.5036,-0.3836,-0.2156,-0.2156,-0.0958,0.0958,0.0958,0.1918,0.3602,0.3842,0.3842,0.3842,0.3842,0.3842,0.3842,0.3842,0.3842,0.3601,0.1678,0.0958,0.1198,0.336,0.3842,0.3842,0.3842,0.3842,0.3842,0.3842,0.3842,0.3842,0.3842,0.3842,0.3842,0.3842,0.3842,0.3842,0.3842,0.3842,0.3842,0.3842,0.3842,0.3805,0.3686,0.3714,0.3694,0.352,0.3542,0.3556,0.3499,0.349,0.3489,0.3489,0.3489,0.3489,0.3489,0.3489,0.3489,0.3489,0.3489,0.3489,0.3489,0.3489,0.3489,0.3489,0.3489,0.3489,0.3489,0.3489,0.3489,0.3489,0.3489,0.4144,-0.4677,-0.4348,-0.4192,-0.3446,-0.3267,-0.3276,-0.2948,-0.2922,-0.293,-0.294,-0.29,0.0,0.0,0.0,-0.2898,-0.2881,0.0,-0.3653,-0.3227,-0.4585,-0.5614,-0.5708,-0.6411,-0.6973,-0.7206,-0.7174,-0.7262,-0.7561,-0.7362,-0.7362,-0.7664,-0.768,-0.768,-0.768,-0.768,-0.768,-0.768,-0.768,-0.7438,-0.6717,-0.6717,-0.5756,-0.4075,-0.4075,-0.2876,-0.1198,-0.1198,-0.0958,-0.024,0.1199,0.1678,0.1918,0.336,0.3119,0.1678,0.1678,0.1678,0.1918,0.2879,0.2158,0.1198,0.336,0.3842,0.3842,0.3842,0.3842,0.3842,0.3842,0.3842,0.3842,0.3842,0.3842,0.3842,0.3842,0.3842,0.3842,0.3842,0.3842,0.3842,0.3842,0.3842,0.3805,0.3686,0.3714,0.3722,0.363,0.3595,0.3571,0.3555,0.3515,0.3489,0.3489,0.3489,0.3489,0.3489,0.3489,0.3489,0.3489,0.3489,0.3489,0.3489,0.3489,0.3489,0.3489,0.3489,0.3489,0.3489,0.3489,0.3489,0.3489,0.4362,0.5018,-0.403,-0.3707,-0.3564,-0.3269,-0.3099,-0.3106,-0.2963,-0.296,-0.2979,-0.2937,0.0,0.0,0.0,0.0,0.0,0.0,-0.3611,-0.3918,-0.3713,-0.493,-0.5991,-0.6306,-0.6925,-0.7283,-0.7323,-0.7328,-0.7423,-0.7662,-0.746,-0.7429,-0.7667,-0.768,-0.768,-0.768,-0.768,-0.768,-0.768,-0.768,-0.768,-0.768,-0.768,-0.6959,-0.5996,-0.5996,-0.5036,-0.3116,-0.3116,-0.2636,-0.1917,-0.0719,-0.024,-0.024,0.0959,0.0719,-0.024,-0.024,-0.024,-0.0,0.0959,0.1199,0.1198,0.2399,0.312,0.3842,0.3842,0.3842,0.3842,0.3842,0.3842,0.3842,0.3842,0.3842,0.3842,0.3842,0.3842,0.3842,0.3842,0.3842,0.3842,0.3842,0.3842,0.3812,0.3718,0.3752,0.3763,0.3678,0.3636,0.3605,0.358,0.3526,0.3489,0.3489,0.3489,0.3489,0.3489,0.3489,0.3489,0.3489,0.3489,0.3489,0.3489,0.3489,0.3489,0.3489,0.3489,0.3489,0.3489,0.3489,0.3489,0.3489,0.4144,0.458,-0.3829,-0.3479,-0.313,-0.3078,-0.3104,-0.3103,-0.2953,0.0,-0.3102,-0.2957,0.0,-0.305,-0.3005,0.0,0.0,-0.2996,-0.3672,-0.418,-0.425,-0.545,-0.6265,-0.6375,-0.7192,-0.7595,-0.7389,-0.7368,-0.7455,-0.7664,-0.7484,-0.7458,-0.767,-0.768,-0.768,-0.768,-0.768,-0.768,-0.768,-0.768,-0.768,-0.768,-0.768,-0.768,-0.768,-0.768,-0.6724,-0.5288,-0.5279,-0.4078,-0.2642,-0.2399,-0.2156,-0.2396,-0.2397,-0.2397,-0.2156,-0.2156,-0.2156,-0.1917,-0.1917,-0.0719,0.0719,0.0719,0.1918,0.3601,0.3601,0.3601,0.3601,0.3601,0.3361,0.3121,0.3121,0.3361,0.3601,0.3601,0.3841,0.3842,0.3842,0.3842,0.3842,0.3842,0.3842,0.3825,0.3772,0.3808,0.3807,0.3702,0.3679,0.3654,0.3595,0.3536,0.3497,0.349,0.3489,0.3489,0.3489,0.3489,0.3489,0.3489,0.3489,0.3489,0.3489,0.3489,0.3489,0.3489,0.3489,0.3489,0.3489,0.3489,0.3489,0.3489,0.3489,0.3489,-0.3201,-0.3062,-0.314,-0.3128,-0.3135,-0.3147,0.0,0.0,0.0,-0.3217,-0.3175,-0.3136,-0.3173,-0.318,-0.318,-0.318,-0.4095,-0.4823,-0.4418,-0.5923,-0.7076,-0.7282,-0.7387,-0.7662,-0.7617,-0.7611,-0.763,-0.7675,-0.7638,-0.7633,-0.7678,-0.768,-0.768,-0.768,-0.768,-0.768,-0.768,-0.768,-0.768,-0.768,-0.768,-0.768,-0.768,-0.768,-0.7484,-0.7318,-0.6992,-0.7002,-0.6582,-0.506,-0.4315,-0.4555,-0.5996,-0.5517,-0.4315,-0.4315,-0.3355,-0.1917,-0.1917,-0.1677,-0.1438,-0.1438,-0.0,0.1438,0.1438,0.1438,0.1438,0.1438,0.0479,-0.0719,-0.0719,0.024,0.1438,0.1438,0.2639,0.3842,0.3842,0.3842,0.3842,0.3842,0.3842,0.3838,0.3827,0.3834,0.3834,0.3812,0.3767,0.3715,0.3656,0.3597,0.3542,0.3494,0.3489,0.3489,0.3489,0.3489,0.3489,0.3489,0.3489,0.3489,0.3489,0.3489,0.3489,0.3489,0.3489,0.3489,0.3489,0.3489,0.3489,0.3489,0.3489,0.3489,-0.2983,-0.303,-0.3106,-0.3135,-0.3143,0.0,0.0,-0.3143,-0.3159,-0.3216,-0.3206,-0.3205,-0.3262,-0.3271,-0.3271,-0.3271,-0.439,-0.4936,-0.506,-0.6129,-0.7246,-0.7417,-0.768,-0.768,-0.768,-0.768,-0.768,-0.768,-0.768,-0.768,-0.768,-0.768,-0.768,-0.768,-0.768,-0.768,-0.768,-0.7733,-0.7762,-0.7762,-0.7821,-0.785,-0.785,-0.785,-0.7879,-0.7929,-0.7874,-0.7881,-0.7674,-0.683,-0.6332,-0.662,-0.7357,-0.7081,-0.6302,-0.6302,-0.5551,-0.4555,-0.3834,-0.3355,-0.3355,-0.2156,-0.1198,-0.0479,-0.0479,-0.0479,-0.0479,-0.0479,-0.1198,-0.1917,-0.1917,-0.1198,-0.0479,-0.0479,0.024,0.1199,0.2159,0.2399,0.2639,0.3601,0.2399,0.1199,0.2159,0.2399,0.2639,0.3841,0.3792,0.3743,0.3714,0.3632,0.3566,0.3536,0.3507,0.3489,0.3489,0.3489,0.3489,0.3489,0.3489,0.3489,0.3489,0.3489,0.3489,0.3489,0.3489,0.3489,0.3489,0.3489,0.3489,0.3489,0.3489,0.3489,-0.2956,-0.3001,-0.3066,-0.3114,-0.3126,0.0,-0.3108,-0.3142,-0.3183,-0.3205,-0.3248,-0.3295,-0.3339,-0.3347,-0.3347,-0.3347,-0.4246,-0.5022,-0.5482,-0.6278,-0.7074,-0.7425,-0.768,-0.767,-0.7646,-0.7667,-0.767,-0.7646,-0.7667,-0.768,-0.768,-0.768,-0.768,-0.768,-0.7699,-0.7712,-0.7712,-0.7823,-0.7876,-0.7879,-0.7974,-0.8019,-0.8019,-0.8019,-0.8032,-0.8051,-0.803,-0.8032,-0.8046,-0.7927,-0.7948,-0.8051,-0.803,-0.7961,-0.7876,-0.7876,-0.7821,-0.75,-0.6027,-0.5538,-0.5055,-0.3599,-0.2876,-0.2397,-0.2397,-0.2156,-0.1917,-0.2396,-0.2876,-0.3116,-0.3116,-0.2876,-0.2397,-0.2397,-0.2156,-0.1438,0.0,0.0479,0.0719,0.1678,-0.024,-0.1916,-0.024,0.024,0.0959,0.3119,0.2849,0.2823,0.305,0.2981,0.2929,0.2921,0.332,0.3506,0.3506,0.3495,0.3489,0.3489,0.3489,0.3489,0.3489,0.3489,0.3489,0.3489,0.3489,0.3489,0.3489,0.3489,0.3489,0.3489,0.3489,0.3489,-0.2916,-0.2969,-0.3055,-0.3063,-0.3065,0.0,-0.325,-0.3289,-0.3323,-0.3429,-0.3456,-0.3462,-0.3467,-0.3469,-0.3469,-0.3469,-0.4179,-0.4726,-0.5583,-0.6791,-0.7545,-0.7667,-0.768,-0.7638,-0.7535,-0.7619,-0.7635,-0.7529,-0.7619,-0.768,-0.768,-0.768,-0.768,-0.768,-0.7773,-0.7826,-0.7826,-0.794,-0.8001,-0.8001,-0.8014,-0.8019,-0.8019,-0.8019,-0.8077,-0.817,-0.8067,-0.808,-0.8168,-0.8048,-0.807,-0.8168,-0.8059,-0.8011,-0.8001,-0.8001,-0.7993,-0.7966,-0.7615,-0.7335,-0.732,-0.6988,-0.5756,-0.4555,-0.4555,-0.3355,-0.2396,-0.4075,-0.5756,-0.6959,-0.6959,-0.5756,-0.4555,-0.4555,-0.3116,-0.1917,-0.1677,-0.1677,-0.2156,-0.4305,-0.4067,-0.359,-0.3351,-0.2394,-0.0958,0.0958,-0.0239,-0.0714,0.0938,0.1167,0.1159,0.1143,0.2477,0.3568,0.3568,0.3519,0.3489,0.3489,0.3489,0.3489,0.3489,0.3489,0.3489,0.3489,0.3489,0.3489,0.3489,0.3489,0.3489,0.3489,0.3489,0.3489,-0.2891,-0.2964,-0.3054,-0.3054,0.0,0.0,-0.3249,-0.329,-0.3336,-0.3421,-0.3437,-0.3449,-0.3483,-0.3489,-0.3501,-0.3535,-0.3815,-0.4328,-0.5536,-0.6106,-0.6906,-0.7433,-0.768,-0.7633,-0.7513,-0.7611,-0.763,-0.7513,-0.7614,-0.768,-0.768,-0.768,-0.7707,-0.7773,-0.7818,-0.7876,-0.7945,-0.8064,-0.8122,-0.8122,-0.8191,-0.8226,-0.8226,-0.8226,-0.8252,-0.8297,-0.8247,-0.8252,-0.8295,-0.8247,-0.8255,-0.8295,-0.8244,-0.8183,-0.8122,-0.8122,-0.808,-0.8014,-0.7964,-0.79,-0.7834,-0.8515,-0.8204,-0.7664,-0.8379,-0.8137,-0.7656,-0.8379,-0.9337,-0.9822,-0.9822,-0.9337,-0.8618,-0.8618,-0.8137,-0.7179,-0.5983,-0.5744,-0.6462,-0.8609,-0.8609,-0.7892,-0.6698,-0.622,-0.5264,-0.3348,-0.3111,-0.2866,-0.2136,-0.1177,-0.0701,-0.0696,-0.0229,0.0677,0.179,0.1999,0.2423,0.3491,0.3489,0.3489,0.3489,0.3489,0.3489,0.3489,0.3489,0.3489,0.3489,0.3489,0.3489,0.3489,0.3489,0.3489,-0.2878,0.0,0.0,0.0,0.0,0.0,-0.3267,-0.3308,-0.3354,-0.3413,-0.3425,-0.3438,-0.3481,-0.3489,-0.3509,-0.3568,-0.3853,-0.4358,-0.5296,-0.5894,-0.6477,-0.7198,-0.7412,-0.7585,-0.7466,-0.7532,-0.7532,-0.7415,-0.7545,-0.763,-0.763,-0.7662,-0.7731,-0.7839,-0.7874,-0.7948,-0.8067,-0.8186,-0.8244,-0.8247,-0.8332,-0.8374,-0.8374,-0.8374,-0.8374,-0.8374,-0.8374,-0.8374,-0.8374,-0.8374,-0.8374,-0.8374,-0.8374,-0.8581,-0.8759,-0.8759,-0.8955,-0.9124,-0.9085,-0.926,-0.9166,-1.0066,-1.021,-1.0349,-1.1258,-1.1481,-1.1481,-1.1481,-1.1481,-1.1481,-1.1481,-1.1481,-1.1481,-1.1481,-1.1481,-1.1004,-0.9569,-1.0043,-1.0762,-1.2196,-1.2196,-1.1481,-1.0047,-0.9569,-0.8612,-0.6932,-0.6218,-0.574,-0.5262,-0.4266,-0.3533,-0.3297,-0.2787,-0.1829,-0.0,0.0,0.0665,0.1964,0.2398,0.2835,0.2835,0.3271,0.3489,0.3489,0.3489,0.3489,0.3489,0.3489,0.3489,0.3489,0.3489,0.3489,0.0,0.0,0.0,-0.3111,-0.3143,-0.3189,-0.3358,-0.3397,-0.3416,-0.3474,-0.3486,-0.3487,-0.3489,-0.3489,-0.3509,-0.3568,-0.4081,-0.4605,-0.4672,-0.5936,-0.6717,-0.6717,-0.7341,-0.7463,-0.7344,-0.7336,-0.7288,-0.7169,-0.7378,-0.7508,-0.7508,-0.7617,-0.7731,-0.7839,-0.7953,-0.8072,-0.8189,-0.8308,-0.8369,-0.8369,-0.8371,-0.8374,-0.8374,-0.8374,-0.8374,-0.8374,-0.8374,-0.8374,-0.8374,-0.8374,-0.8374,-0.8374,-0.8374,-0.9152,-1.0453,-1.0453,-1.1231,-1.2245,-1.233,-1.2271,-1.2207,-1.1862,-1.1747,-1.1711,-1.1536,-1.1481,-1.1481,-1.1481,-1.1481,-1.1481,-1.1481,-1.1481,-1.1481,-1.1481,-1.1481,-1.1481,-1.1481,-1.339,-1.5059,-1.5302,-1.4108,-1.339,-1.339,-1.2196,-1.0766,-0.885,-1.0047,-1.0524,-0.8612,-0.837,-0.789,-0.6701,-0.4954,-0.3251,-0.183,-0.1802,-0.1773,-0.1528,-0.0,0.0872,0.0872,0.2617,0.3489,0.3489,0.3489,0.3489,0.3489,0.3489,0.3489,0.3489,0.3489,0.3489,-0.2888,-0.3008,-0.3143,-0.3143,-0.3229,-0.333,-0.3388,-0.3432,-0.3465,-0.3485,-0.3489,-0.3489,-0.3489,-0.3489,-0.3495,-0.3515,-0.3826,-0.4132,-0.4614,-0.5191,-0.5756,-0.6717,-0.6863,-0.699,-0.7339,-0.7328,-0.7278,-0.7158,-0.7368,-0.7503,-0.7503,-0.7617,-0.7696,-0.7733,-0.7921,-0.8115,-0.8311,-0.8353,-0.8374,-0.8374,-0.8374,-0.8374,-0.8374,-0.8374,-0.8374,-0.8374,-0.8374,-0.8374,-0.8374,-0.8374,-0.8894,-0.9677,-0.9677,-1.072,-1.1763,-1.1763,-1.2024,-1.2536,-1.2477,-1.2378,-1.2497,-1.3001,-1.3414,-1.3598,-1.3976,-1.4206,-1.4294,-1.4147,-1.4108,-1.4108,-1.4108,-1.4108,-1.4108,-1.4108,-1.4108,-1.4108,-1.4108,-1.4822,-1.5302,-1.5302,-1.5059,-1.4822,-1.4822,-1.4346,-1.3866,-1.3148,-1.291,-1.2434,-1.1953,-1.1004,-1.0285,-0.9808,-0.9286,-0.8254,-0.6504,-0.5488,-0.4501,-0.332,-0.1753,-0.0872,-0.0872,-0.0218,0.0436,0.1744,0.1744,0.109,0.0,0.109,0.1744,0.1744,0.2835,0.3489,-0.2935,-0.3051,-0.3173,-0.3197,-0.3303,-0.3407,-0.3428,-0.3462,-0.3489,-0.3489,-0.3489,-0.3489,-0.3489,-0.3489,-0.3489,-0.3489,-0.3571,-0.3869,-0.435,-0.4682,-0.5242,-0.6233,-0.6626,-0.6757,-0.7339,-0.7288,-0.7214,-0.7095,-0.7307,-0.7439,-0.7439,-0.7593,-0.768,-0.768,-0.79,-0.8093,-0.8244,-0.8332,-0.8374,-0.8374,-0.8374,-0.8374,-0.8374,-0.8374,-0.8374,-0.8374,-0.8374,-0.8374,-0.8374,-0.8894,-0.9677,-1.046,-1.0981,-1.202,-1.3317,-1.3317,-1.3577,-1.4101,-1.4101,-1.4016,-1.4134,-1.4695,-1.4878,-1.5045,-1.533,-1.5592,-1.5714,-1.5392,-1.536,-1.5408,-1.5323,-1.5302,-1.5302,-1.5302,-1.5302,-1.5302,-1.5302,-1.5302,-1.5302,-1.5302,-1.5302,-1.5302,-1.5302,-1.5302,-1.5302,-1.5302,-1.4584,-1.4104,-1.4104,-1.339,-1.2676,-1.2196,-1.2196,-1.1409,-0.9835,-0.8809,-0.7532,-0.5803,-0.4198,-0.3287,-0.2616,-0.218,-0.1308,-0.0218,-0.0218,-0.0654,-0.1744,-0.0654,-0.0218,-0.0,0.109,0.1526,-0.3008,-0.3062,-0.3107,-0.3271,-0.3359,-0.342,-0.3477,-0.3489,-0.3489,-0.3489,-0.3489,-0.3489,-0.3489,-0.3489,-0.3489,-0.3489,-0.3539,-0.3597,-0.3653,-0.4175,-0.4947,-0.5738,-0.6149,-0.676,-0.7347,-0.723,-0.7111,-0.7,-0.7206,-0.7336,-0.7336,-0.7556,-0.768,-0.768,-0.7895,-0.8014,-0.8019,-0.8247,-0.8369,-0.8374,-0.8374,-0.8374,-0.8374,-0.8374,-0.8374,-0.8371,-0.8371,-0.8633,-0.8633,-0.9938,-1.072,-1.072,-1.202,-1.3317,-1.4607,-1.4607,-1.5649,-1.6692,-1.6692,-1.6692,-1.6655,-1.6433,-1.6369,-1.6295,-1.582,-1.5841,-1.5931,-1.5466,-1.5497,-1.5619,-1.5381,-1.5318,-1.5318,-1.5302,-1.5302,-1.5302,-1.5302,-1.5302,-1.5302,-1.5302,-1.5302,-1.5302,-1.5302,-1.5302,-1.5302,-1.5302,-1.5302,-1.5302,-1.5302,-1.5302,-1.4822,-1.3628,-1.3628,-1.2843,-1.1496,-1.1243,-1.0631,-0.9194,-0.7368,-0.5758,-0.458,-0.2834,-0.1962,-0.1962,-0.1962,-0.1962,-0.1962,-0.1962,-0.1962,-0.1962,-0.1744,-0.1744,-0.303,-0.3149,-0.3258,-0.3302,-0.3389,-0.347,-0.3486,-0.3489,-0.3489,-0.3489,-0.3489,-0.3489,-0.3489,-0.3489,-0.3489,-0.3489,-0.3539,-0.3583,-0.3597,-0.3687,-0.4227,-0.4947,-0.5402,-0.6083,-0.676,-0.712,-0.727,-0.7241,-0.7376,-0.7458,-0.7458,-0.7601,-0.768,-0.768,-0.7815,-0.7929,-0.8019,-0.8168,-0.8287,-0.8374,-0.8374,-0.8374,-0.8374,-0.8374,-0.8894,-0.9938,-0.9938,-1.046,-1.1502,-1.1763,-1.254,-1.3568,-1.3832,-1.4871,-1.6173,-1.6173,-1.6432,-1.6692,-1.6692,-1.6692,-1.6655,-1.6433,-1.6475,-1.6522,-1.6057,-1.6084,-1.6211,-1.5915,-1.5873,-1.5862,-1.5629,-1.5566,-1.5524,-1.5339,-1.5302,-1.5302,-1.5302,-1.5302,-1.5302,-1.5302,-1.5302,-1.5302,-1.5302,-1.5302,-1.5302,-1.5302,-1.5302,-1.5302,-1.5302,-1.5302,-1.5302,-1.4822,-1.4822,-1.4321,-1.3084,-1.178,-1.0734,-0.9262,-0.7921,-0.6909,-0.6438,-0.5923,-0.501,-0.3702,-0.501,-0.5665,-0.5665,-0.4357,-0.3702,-0.3702,-0.2397,-0.1744,-0.3014,-0.3144,-0.3283,-0.3306,-0.3401,-0.3489,-0.3489,-0.3489,-0.3489,-0.3489,-0.3489,-0.3489,-0.3489,-0.3489,-0.3489,-0.3489,-0.3516,-0.3547,-0.3573,-0.3657,-0.3956,-0.4916,-0.5421,-0.6139,-0.7037,-0.721,-0.7384,-0.7331,-0.7437,-0.7503,-0.7503,-0.7617,-0.768,-0.768,-0.7786,-0.79,-0.8019,-0.8136,-0.8255,-0.8374,-0.8374,-0.8374,-0.8374,-0.8374,-0.9155,-1.046,-1.046,-1.1242,-1.2544,-1.3061,-1.3832,-1.4607,-1.539,-1.5909,-1.6692,-1.6692,-1.6692,-1.6692,-1.6692,-1.6692,-1.6676,-1.6549,-1.6591,-1.6628,-1.6269,-1.6327,-1.6438,-1.61,-1.6084,-1.6084,-1.5746,-1.5656,-1.5598,-1.5355,-1.5302,-1.5302,-1.5302,-1.5302,-1.5302,-1.5302,-1.5302,-1.5302,-1.5302,-1.5302,-1.5302,-1.5302,-1.5302,-1.5302,-1.5302,-1.5302,-1.5302,-1.5302,-1.5302,-1.5064,-1.4341,-1.3529,-1.2253,-1.0309,-0.9905,-0.9066,-0.7376,-0.7747,-0.7243,-0.5445,-0.6535,-0.6973,-0.6973,-0.588,-0.5445,-0.5443,-0.4575,-0.4141,-0.3001,-0.3102,-0.3234,-0.3297,-0.3401,-0.3489,-0.3489,-0.3489,-0.3489,-0.3489,-0.3489,-0.3489,-0.3489,-0.3489,-0.3489,-0.3489,-0.3489,-0.3507,-0.3558,-0.3617,-0.4135,-0.5129,-0.5685,-0.619,-0.7299,-0.7527,-0.7484,-0.7381,-0.7468,-0.7527,-0.7527,-0.7625,-0.768,-0.768,-0.7773,-0.7876,-0.7995,-0.8115,-0.8231,-0.835,-0.8366,-0.8374,-0.8374,-0.8633,-0.9416,-1.0978,-1.0978,-1.1759,-1.3061,-1.4352,-1.4866,-1.4866,-1.6168,-1.6692,-1.6692,-1.6692,-1.6692,-1.6692,-1.6692,-1.6692,-1.6692,-1.6692,-1.6692,-1.6655,-1.6464,-1.6544,-1.6612,-1.6211,-1.6248,-1.6306,-1.5867,-1.5725,-1.564,-1.5402,-1.5323,-1.5302,-1.5302,-1.5302,-1.5302,-1.5302,-1.5302,-1.5302,-1.5302,-1.5302,-1.5302,-1.5302,-1.5302,-1.5302,-1.5302,-1.5302,-1.5302,-1.5302,-1.5302,-1.5297,-1.5059,-1.5059,-1.403,-1.1513,-1.2418,-1.133,-0.788,-0.8727,-0.865,-0.7433,-0.7433,-0.7425,-0.7405,-0.7405,-0.7408,-0.7191,-0.7191,-0.7191,-0.3102,-0.3135,-0.3183,-0.3287,-0.3401,-0.3489,-0.3489,-0.3489,-0.3489,-0.3489,-0.3489,-0.3489,-0.3489,-0.3489,-0.3489,-0.3489,-0.3489,-0.3493,-0.3503,-0.3555,-0.3615,-0.3902,-0.4895,-0.5905,-0.6205,-0.693,-0.764,-0.7619,-0.7638,-0.7648,-0.7648,-0.767,-0.768,-0.768,-0.7696,-0.7762,-0.7874,-0.799,-0.8109,-0.8228,-0.8326,-0.8374,-0.8374,-0.9677,-1.1495,-1.3828,-1.3828,-1.4612,-1.5914,-1.6173,-1.6432,-1.6432,-1.6692,-1.6692,-1.6692,-1.6692,-1.6692,-1.6692,-1.6692,-1.6692,-1.6692,-1.6692,-1.6692,-1.6686,-1.6644,-1.666,-1.6676,-1.6596,-1.6607,-1.6575,-1.6311,-1.6094,-1.5888,-1.5651,-1.5445,-1.5302,-1.5302,-1.5302,-1.5302,-1.5302,-1.5302,-1.5302,-1.5302,-1.5302,-1.5302,-1.5302,-1.5302,-1.5302,-1.5302,-1.5302,-1.5302,-1.5302,-1.5302,-1.4822,-1.3866,-1.3866,-1.3139,-1.1441,-1.1549,-1.1211,-1.0685,-0.9737,-0.9584,-1.0221,-1.0221,-1.0152,-0.9791,-0.9791,-0.9357,-0.8492,-0.8492,-0.784,-0.309,-0.3096,-0.3124,-0.3241,-0.3358,-0.3452,-0.3482,-0.3489,-0.3489,-0.3489,-0.3489,-0.3489,-0.3489,-0.3489,-0.3489,-0.3489,-0.3489,-0.3489,-0.3489,-0.354,-0.3599,-0.4117,-0.5108,-0.5894,-0.6227,-0.7198,-0.768,-0.768,-0.768,-0.768,-0.768,-0.768,-0.768,-0.768,-0.768,-0.7733,-0.7842,-0.7958,-0.808,-0.8197,-0.8316,-0.8374,-0.8374,-0.9938,-1.2016,-1.4607,-1.4607,-1.539,-1.6692,-1.6692,-1.6692,-1.6692,-1.6692,-1.6692,-1.6692,-1.6692,-1.6692,-1.6692,-1.6692,-1.6692,-1.6692,-1.6692,-1.6692,-1.6692,-1.6692,-1.6692,-1.6692,-1.6692,-1.6612,-1.647,-1.6237,-1.6005,-1.5762,-1.5529,-1.5381,-1.5302,-1.5302,-1.5302,-1.5302,-1.5302,-1.5302,-1.5302,-1.5302,-1.5302,-1.5302,-1.5302,-1.5302,-1.5302,-1.5302,-1.5302,-1.5302,-1.5302,-1.5302,-1.5059,-1.4584,-1.4346,-1.3866,-1.2672,-1.3066,-1.2736,-1.1239,-1.1306,-1.1441,-1.2124,-1.1251,-1.0885,-1.08,-1.0485,-1.0224,-0.9574,-0.9574,-0.9357,-0.3242,-0.3256,-0.3296,-0.322,-0.3316,-0.3401,-0.3473,-0.3489,-0.3489,-0.3489,-0.3489,-0.3489,-0.3489,-0.3489,-0.3489,-0.3489,-0.3489,-0.3489,-0.3489,-0.3528,-0.3809,-0.4344,-0.5093,-0.5874,-0.6466,-0.7198,-0.768,-0.768,-0.768,-0.768,-0.768,-0.768,-0.768,-0.768,-0.768,-0.772,-0.7807,-0.7948,-0.8067,-0.816,-0.8303,-0.8633,-0.8897,-1.0717,-1.2532,-1.4607,-1.4866,-1.5649,-1.6692,-1.6692,-1.6692,-1.6692,-1.6692,-1.6692,-1.6692,-1.6692,-1.6692,-1.6692,-1.6692,-1.6692,-1.6692,-1.6692,-1.6692,-1.6692,-1.6692,-1.6692,-1.6681,-1.6633,-1.6496,-1.6311,-1.6068,-1.583,-1.5598,-1.5355,-1.5302,-1.5302,-1.5302,-1.5302,-1.5302,-1.5302,-1.5302,-1.5302,-1.5302,-1.5302,-1.5302,-1.5302,-1.5302,-1.5302,-1.5302,-1.5302,-1.5302,-1.5302,-1.5302,-1.5302,-1.5302,-1.5302,-1.4822,-1.3871,-1.4822,-1.4508,-1.2236,-1.3163,-1.3593,-1.3506,-1.2267,-1.1617,-1.1535,-1.1381,-1.1091,-1.0874,-1.0874,-1.0658,-0.3611,-0.3675,-0.3755,-0.3481,-0.3314,-0.335,-0.3464,-0.3489,-0.3489,-0.3489,-0.3489,-0.3489,-0.3489,-0.3489,-0.3489,-0.3489,-0.3489,-0.3489,-0.3489,-0.3494,-0.3539,-0.3652,-0.4813,-0.5801,-0.5979,-0.6959,-0.768,-0.768,-0.768,-0.768,-0.768,-0.768,-0.768,-0.768,-0.768,-0.7686,-0.7693,-0.7911,-0.8024,-0.8038,-0.8265,-0.9155,-1.046,-1.3053,-1.4347,-1.4607,-1.5909,-1.6692,-1.6692,-1.6692,-1.6692,-1.6692,-1.6692,-1.6692,-1.6692,-1.6692,-1.6692,-1.6692,-1.6692,-1.6692,-1.6692,-1.6692,-1.6692,-1.6692,-1.6692,-1.6692,-1.6649,-1.6448,-1.638,-1.6311,-1.6068,-1.583,-1.5598,-1.5355,-1.5302,-1.5302,-1.5302,-1.5302,-1.5302,-1.5302,-1.5302,-1.5302,-1.5302,-1.5302,-1.5302,-1.5302,-1.5302,-1.5302,-1.5302,-1.5302,-1.5302,-1.5302,-1.5302,-1.5302,-1.5302,-1.5302,-1.5297,-1.5297,-1.5297,-1.5291,-1.5033,-1.5033,-1.4835,-1.443,-1.4378,-1.4149,-1.3722,-1.3701,-1.3038,-1.2173,-1.2173,-1.1524,-0.3678,-0.3739,-0.363,-0.3334,-0.321,-0.3285,-0.3364,-0.3624,-0.3878,-0.3917,-0.3926,-0.3926,-0.3489,-0.3489,-0.3489,-0.3489,-0.3489,-0.3489,-0.3489,-0.3489,-0.3519,-0.3603,-0.4778,-0.577,-0.5665,-0.692,-0.768,-0.768,-0.768,-0.768,-0.768,-0.768,-0.768,-0.768,-0.768,-0.768,-0.768,-0.7834,-0.7948,-0.8022,-0.8952,-1.0373,-1.1759,-1.3573,-1.5126,-1.5909,-1.6432,-1.6692,-1.6692,-1.6692,-1.6692,-1.6692,-1.6692,-1.6692,-1.6692,-1.6692,-1.6692,-1.6692,-1.6692,-1.6692,-1.6692,-1.6692,-1.6692,-1.6692,-1.6692,-1.6602,-1.6475,-1.639,-1.6158,-1.5915,-1.582,-1.5619,-1.5418,-1.5323,-1.5302,-1.5302,-1.5302,-1.5302,-1.5302,-1.5302,-1.5302,-1.5302,-1.5302,-1.5302,-1.5302,-1.5302,-1.5302,-1.5302,-1.5302,-1.5302,-1.5302,-1.5302,-1.5302,-1.5302,-1.5302,-1.5302,-1.5302,-1.5302,-1.5302,-1.5302,-1.5302,-1.5302,-1.5217,-1.5032,-1.4752,-1.452,-1.433,-1.4044,-1.3691,-1.3259,-1.3259,-1.3038,-0.3958,-0.3851,-0.3758,-0.3258,-0.3156,-0.3453,-0.3529,-0.3988,-0.446,-0.4561,-0.458,-0.4362,-0.3926,-0.3926,-0.3926,-0.3489,-0.3707,-0.3707,-0.3489,-0.3489,-0.3511,-0.3794,-0.4987,-0.5756,-0.5849,-0.6894,-0.768,-0.768,-0.768,-0.768,-0.768,-0.768,-0.768,-0.768,-0.768,-0.768,-0.768,-0.7789,-0.7903,-0.8022,-0.9661,-1.1295,-1.2904,-1.4556,-1.5615,-1.6602,-1.6665,-1.6692,-1.6692,-1.6692,-1.6692,-1.6692,-1.6692,-1.6692,-1.6692,-1.6692,-1.6692,-1.6692,-1.6692,-1.6692,-1.6692,-1.6692,-1.6692,-1.6692,-1.6692,-1.6538,-1.6348,-1.6279,-1.5968,-1.564,-1.5566,-1.5423,-1.5302,-1.5302,-1.5302,-1.5302,-1.5302,-1.5302,-1.5302,-1.5302,-1.5302,-1.5302,-1.5302,-1.5302,-1.5302,-1.5302,-1.5302,-1.5302,-1.5302,-1.5302,-1.5302,-1.5302,-1.5302,-1.5302,-1.5302,-1.5302,-1.5302,-1.5302,-1.5302,-1.5302,-1.5302,-1.5302,-1.527,-1.5201,-1.4816,-1.4578,-1.4509,-1.4102,-1.3907,-1.3907,-1.3907,-1.3907,-0.4499,-0.4443,-0.4211,-0.3321,-0.3187,-0.3464,-0.4218,-0.4616,-0.5023,-0.52,-0.5236,-0.5018,-0.4362,-0.48,-0.48,-0.3707,-0.3926,-0.4144,-0.3489,-0.3489,-0.3731,-0.4465,-0.5214,-0.5986,-0.6552,-0.7134,-0.768,-0.768,-0.768,-0.768,-0.768,-0.768,-0.768,-0.768,-0.768,-0.768,-0.768,-0.7789,-0.7903,-0.8022,-0.9661,-1.1681,-1.4029,-1.5968,-1.6575,-1.638,-1.6596,-1.6692,-1.6692,-1.6692,-1.6692,-1.6692,-1.6692,-1.6692,-1.6692,-1.6692,-1.6692,-1.6692,-1.6692,-1.6692,-1.6692,-1.6692,-1.6692,-1.6692,-1.6692,-1.6538,-1.6316,-1.6079,-1.5841,-1.5603,-1.5365,-1.5302,-1.5302,-1.5302,-1.5302,-1.5302,-1.5302,-1.5302,-1.5302,-1.5302,-1.5302,-1.5302,-1.5302,-1.5302,-1.5302,-1.5302,-1.5302,-1.5302,-1.5302,-1.5302,-1.5302,-1.5302,-1.5302,-1.5302,-1.5302,-1.5302,-1.5302,-1.5302,-1.5302,-1.5302,-1.5302,-1.5302,-1.5196,-1.498,-1.4737,-1.4499,-1.4261,-1.4023,-1.3907,-1.3907,-1.3907,-1.3907,-0.4758,-0.4716,-0.468,-0.4149,-0.4064,-0.4397,-0.518,-0.5409,-0.563,-0.6183,-0.6001,-0.5575,-0.493,-0.498,-0.5236,-0.48,-0.48,-0.48,-0.4144,-0.4362,-0.459,-0.4395,-0.5405,-0.6191,-0.6453,-0.7089,-0.768,-0.768,-0.768,-0.768,-0.768,-0.768,-0.768,-0.768,-0.768,-0.768,-0.768,-0.7715,-0.8272,-0.9129,-0.9666,-1.0957,-1.2765,-1.4396,-1.5516,-1.6364,-1.6438,-1.6554,-1.6692,-1.6692,-1.6692,-1.6692,-1.6692,-1.6692,-1.6692,-1.6692,-1.6692,-1.6692,-1.6692,-1.6692,-1.6665,-1.6517,-1.647,-1.6438,-1.6274,-1.6063,-1.5862,-1.5788,-1.5592,-1.5397,-1.5318,-1.5302,-1.5302,-1.5302,-1.5302,-1.5302,-1.5302,-1.5302,-1.5302,-1.5302,-1.5302,-1.5302,-1.5302,-1.5302,-1.5302,-1.5302,-1.5302,-1.5302,-1.5302,-1.5302,-1.5302,-1.5302,-1.5302,-1.5302,-1.5302,-1.5302,-1.5302,-1.5302,-1.5302,-1.5302,-1.5302,-1.5302,-1.5265,-1.5196,-1.4974,-1.4742,-1.4504,-1.4261,-1.4065,-1.3907,-1.3907,-1.3907,-0.511,-0.5062,-0.5009,-0.4675,-0.4987,-0.534,-0.591,-0.5951,-0.6185,-0.6711,-0.6527,-0.6121,-0.5733,-0.5851,-0.5943,-0.5503,-0.5503,-0.5491,-0.4803,-0.5018,-0.5236,-0.5014,-0.5835,-0.6409,-0.6866,-0.7305,-0.768,-0.768,-0.768,-0.768,-0.768,-0.768,-0.768,-0.768,-0.768,-0.768,-0.768,-0.768,-0.819,-0.9712,-0.9712,-1.0735,-1.255,-1.3611,-1.4961,-1.6105,-1.6285,-1.6438,-1.6575,-1.6655,-1.6692,-1.6692,-1.6692,-1.6692,-1.6692,-1.6692,-1.6692,-1.6681,-1.6596,-1.657,-1.6533,-1.6306,-1.6232,-1.62,-1.6052,-1.5841,-1.5656,-1.5656,-1.5482,-1.5302,-1.5302,-1.5302,-1.5302,-1.5302,-1.5302,-1.5302,-1.5302,-1.5302,-1.5302,-1.5302,-1.5302,-1.5302,-1.5302,-1.5302,-1.5302,-1.5302,-1.5302,-1.5302,-1.5302,-1.5302,-1.5302,-1.5302,-1.5302,-1.5302,-1.5302,-1.5302,-1.5302,-1.5302,-1.5302,-1.5302,-1.5302,-1.5302,-1.5302,-1.5302,-1.4995,-1.4763,-1.4615,-1.4282,-1.405,-1.3907,-1.3907,-1.3907,-0.5206,-0.5122,-0.5031,-0.4744,-0.5417,-0.6311,-0.643,-0.6457,-0.6488,-0.6597,-0.6621,-0.665,-0.6753,-0.6957,-0.6894,-0.5794,-0.6037,-0.6019,-0.5265,-0.526,-0.5481,-0.5903,-0.6297,-0.6647,-0.7328,-0.754,-0.768,-0.768,-0.768,-0.768,-0.768,-0.768,-0.768,-0.768,-0.768,-0.768,-0.768,-0.768,-0.8154,-0.9337,-0.9566,-1.0989,-1.3376,-1.3812,-1.4644,-1.5656,-1.611,-1.6322,-1.6353,-1.6559,-1.6644,-1.6644,-1.6644,-1.6644,-1.6644,-1.6644,-1.6644,-1.6612,-1.6411,-1.6337,-1.6295,-1.6057,-1.5983,-1.5978,-1.5962,-1.5804,-1.5629,-1.5629,-1.5471,-1.5302,-1.5302,-1.5302,-1.5302,-1.5302,-1.5302,-1.5302,-1.5302,-1.5302,-1.5302,-1.5302,-1.5302,-1.5302,-1.5302,-1.5302,-1.5302,-1.5302,-1.5302,-1.5302,-1.5302,-1.5302,-1.5302,-1.5302,-1.5302,-1.5302,-1.5302,-1.5302,-1.5302,-1.5302,-1.5302,-1.5302,-1.5302,-1.5302,-1.5302,-1.5302,-1.4869,-1.4631,-1.4615,-1.4155,-1.3923,-1.3907,-1.3907,-1.3907,-0.5879,-0.5786,-0.5878,-0.5714,-0.5999,-0.6311,-0.643,-0.6457,-0.6465,-0.6491,-0.6496,-0.6504,-0.6531,-0.6655,-0.6812,-0.6548,-0.7015,-0.6915,-0.5671,-0.6406,-0.6656,-0.5665,-0.668,-0.7426,-0.7336,-0.754,-0.768,-0.768,-0.768,-0.768,-0.768,-0.768,-0.768,-0.768,-0.768,-0.768,-0.768,-0.768,-0.7678,-0.8151,-0.9001,-1.0121,-1.1763,-1.2749,-1.4035,-1.5397,-1.5693,-1.5925,-1.6094,-1.6147,-1.6168,-1.6168,-1.6168,-1.6168,-1.6168,-1.6168,-1.6168,-1.6163,-1.611,-1.6089,-1.6052,-1.5814,-1.5735,-1.5703,-1.5519,-1.5429,-1.5381,-1.5381,-1.5344,-1.5302,-1.5302,-1.5302,-1.5302,-1.5302,-1.5302,-1.5302,-1.5302,-1.5302,-1.5302,-1.5302,-1.5302,-1.5302,-1.5302,-1.5302,-1.5302,-1.5302,-1.5302,-1.5302,-1.5302,-1.5302,-1.5302,-1.5302,-1.5302,-1.5302,-1.5302,-1.5302,-1.5302,-1.5302,-1.5302,-1.5302,-1.5302,-1.5302,-1.5302,-1.5302,-1.5027,-1.48,-1.4615,-1.4319,-1.4081,-1.3907,-1.3907,-1.3907,-0.5993,-0.6054,-0.6115,-0.6171,-0.6232,-0.6295,-0.6361,-0.6375,-0.6375,-0.6375,-0.6375,-0.6409,-0.6518,-0.6631,-0.6785,-0.7015,-0.7214,-0.7089,-0.6346,-0.6799,-0.7048,-0.6404,-0.692,-0.7439,-0.7484,-0.7606,-0.768,-0.768,-0.768,-0.768,-0.768,-0.768,-0.768,-0.768,-0.768,-0.768,-0.768,-0.768,-0.789,-0.8306,-0.8875,-1.0192,-1.1808,-1.2499,-1.3767,-1.517,-1.5508,-1.573,-1.5851,-1.5962,-1.601,-1.601,-1.601,-1.601,-1.601,-1.601,-1.601,-1.5989,-1.5883,-1.5846,-1.5809,-1.5571,-1.5492,-1.5466,-1.5339,-1.5302,-1.5302,-1.5302,-1.5302,-1.5302,-1.5302,-1.5302,-1.5302,-1.5302,-1.5302,-1.5302,-1.5302,-1.5302,-1.5302,-1.5302,-1.5302,-1.5302,-1.5302,-1.5302,-1.5302,-1.5302,-1.5302,-1.5302,-1.5302,-1.5302,-1.5302,-1.5302,-1.5302,-1.5302,-1.5302,-1.5302,-1.5302,-1.5302,-1.5302,-1.5302,-1.5302,-1.5302,-1.5302,-1.5302,-1.5085,-1.4853,-1.4615,-1.4377,-1.4139,-1.3907,-1.3907,-1.3907,-0.6102,-0.6131,-0.6155,-0.6255,-0.6279,-0.6279,-0.6279,-0.6279,-0.6279,-0.6279,-0.6279,-0.634,-0.6541,-0.6669,-0.6822,-0.7058,-0.7111,-0.7143,-0.6971,-0.7116,-0.7121,-0.7304,-0.7344,-0.7426,-0.7609,-0.7656,-0.768,-0.768,-0.768,-0.768,-0.768,-0.768,-0.768,-0.768,-0.768,-0.768,-0.768,-0.7678,-0.8329,-0.9368,-0.9449,-1.073,-1.2516,-1.2973,-1.3756,-1.4884,-1.5349,-1.555,-1.5566,-1.5804,-1.5899,-1.5899,-1.5899,-1.5899,-1.5899,-1.5899,-1.5899,-1.5873,-1.5672,-1.5603,-1.5566,-1.5365,-1.5302,-1.5302,-1.5302,-1.5302,-1.5302,-1.5302,-1.5302,-1.5302,-1.5302,-1.5302,-1.5302,-1.5302,-1.5302,-1.5302,-1.5302,-1.5302,-1.5302,-1.5302,-1.5302,-1.5302,-1.5302,-1.5302,-1.5302,-1.5302,-1.5302,-1.5302,-1.5302,-1.5302,-1.5302,-1.5302,-1.5302,-1.5302,-1.5302,-1.5302,-1.5302,-1.5302,-1.5302,-1.5302,-1.5302,-1.5302,-1.5302,-1.5302,-1.5085,-1.4853,-1.4615,-1.4377,-1.4139,-1.3907,-1.3907,-1.3907,-0.6247,-0.6253,-0.6255,-0.6277,-0.6279,-0.6279,-0.6279,-0.6279,-0.6279,-0.6279,-0.6279,-0.629,-0.6327,-0.643,-0.6584,-0.6812,-0.6936,-0.6881,-0.6478,-0.7199,-0.7166,-0.6416,-0.7181,-0.7452,-0.7386,-0.7561,-0.768,-0.768,-0.768,-0.768,-0.768,-0.768,-0.768,-0.768,-0.768,-0.768,-0.768,-0.8626,-0.9269,-0.9368,-1.1286,-1.2245,-1.2529,-1.342,-1.4112,-1.4393,-1.4869,-1.5075,-1.5091,-1.5318,-1.5408,-1.5408,-1.5408,-1.5408,-1.5408,-1.5408,-1.5408,-1.5402,-1.5365,-1.5355,-1.5349,-1.5312,-1.5302,-1.5302,-1.5302,-1.5302,-1.5302,-1.5302,-1.5302,-1.5302,-1.5302,-1.5302,-1.5302,-1.5302,-1.5302,-1.5302,-1.5302,-1.5302,-1.5302,-1.5302,-1.5302,-1.5302,-1.5302,-1.5302,-1.5302,-1.5302,-1.5302,-1.5302,-1.5302,-1.5302,-1.5302,-1.5302,-1.5302,-1.5302,-1.5302,-1.5302,-1.5302,-1.5302,-1.5302,-1.5302,-1.5302,-1.5302,-1.5302,-1.5302,-1.5085,-1.4853,-1.4615,-1.4377,-1.4139,-1.3907,-1.3907,-1.3907,-0.6279,-0.6279,-0.6279,-0.6279,-0.6279,-0.6279,-0.6279,-0.6279,-0.6279,-0.6279,-0.6279,-0.6298,-0.6364,-0.642,-0.6573,-0.6931,-0.7087,-0.7267,-0.7084,-0.7253,-0.7386,-0.6873,-0.7143,-0.7437,-0.7511,-0.7617,-0.768,-0.768,-0.768,-0.768,-0.768,-0.768,-0.768,-0.768,-0.768,-0.7917,-0.8626,-0.9337,-1.0214,-1.1235,-1.2203,-1.2907,-1.337,-1.4034,-1.4261,-1.4277,-1.4626,-1.4779,-1.4789,-1.4884,-1.4932,-1.4943,-1.5075,-1.5122,-1.5133,-1.5254,-1.5302,-1.5302,-1.5302,-1.5302,-1.5302,-1.5302,-1.5302,-1.5302,-1.5302,-1.5217,-1.5149,-1.5265,-1.5302,-1.5302,-1.5302,-1.5302,-1.5302,-1.5302,-1.5302,-1.5302,-1.5302,-1.5302,-1.5302,-1.5302,-1.5302,-1.5302,-1.5302,-1.5302,-1.5302,-1.5302,-1.5302,-1.5302,-1.5302,-1.5302,-1.5302,-1.5302,-1.5302,-1.5302,-1.5302,-1.5302,-1.5302,-1.5302,-1.5302,-1.5302,-1.5302,-1.5302,-1.5302,-1.5302,-1.5201,-1.4974,-1.4615,-1.4504,-1.4261,-1.3907,-1.3907,-1.3907,-0.6475,0.0,-0.6864,-0.6864,-0.6864,-0.6671,0.0,-0.6475,-0.6279,-0.6279,-0.6279,-0.6306,-0.6398,-0.6438,-0.6581,-0.6965,-0.7174,-0.7357,-0.7566,-0.7487,-0.741,-0.741,-0.741,-0.7479,-0.7662,-0.768,-0.768,-0.768,-0.768,-0.768,-0.768,-0.768,-0.768,-0.768,-0.7917,-0.8626,-0.9573,-1.005,-1.1397,-1.3099,-1.3119,-1.3583,-1.4256,-1.4203,-1.4176,-1.4187,-1.443,-1.453,-1.4536,-1.4594,-1.4615,-1.4636,-1.4816,-1.4884,-1.4906,-1.508,-1.5138,-1.5138,-1.5138,-1.5138,-1.5138,-1.5138,-1.5138,-1.5159,-1.5265,-1.5106,-1.4921,-1.5091,-1.518,-1.5223,-1.5223,-1.526,-1.5302,-1.5302,-1.5302,-1.5302,-1.5302,-1.5302,-1.5302,-1.5302,-1.5302,-1.5302,-1.5302,-1.5302,-1.5302,-1.5302,-1.5302,-1.5302,-1.5302,-1.5302,-1.5302,-1.5302,-1.5302,-1.5302,-1.5302,-1.5302,-1.5302,-1.5302,-1.5302,-1.5302,-1.5302,-1.5302,-1.5302,-1.5302,-1.5302,-1.5128,-1.4779,-1.4895,-1.4595,-1.4128,-1.4339,-1.4339,0.0,-0.8425,-0.9202,-0.9202,-0.8425,-0.7643,-0.7643,-0.6864,0.0,-0.6279,-0.6279,-0.6282,-0.629,-0.6383,-0.6502,-0.6647,-0.6947,-0.7206,-0.7333,-0.7527,-0.7654,-0.7654,-0.7654,-0.7662,-0.7678,-0.768,-0.768,-0.768,-0.768,-0.768,-0.768,-0.768,-0.768,-0.768,-0.8866,-0.9337,-0.9573,-1.1961,-1.3057,-1.3099,-1.404,-1.4263,-1.425,-1.4034,-1.3933,-1.3944,-1.4182,-1.4282,-1.4303,-1.4525,-1.4615,-1.4615,-1.4636,-1.4641,-1.4641,-1.4657,-1.4663,-1.4663,-1.4663,-1.4663,-1.4663,-1.4663,-1.4663,-1.4742,-1.517,-1.499,-1.4641,-1.4657,-1.4821,-1.4995,-1.4995,-1.5149,-1.5302,-1.5302,-1.5302,-1.5302,-1.5302,-1.5302,-1.5302,-1.5302,-1.5302,-1.5302,-1.5302,-1.5302,-1.5302,-1.5302,-1.5302,-1.5302,-1.5302,-1.5302,-1.5302,-1.5302,-1.5302,-1.5302,-1.5302,-1.5302,-1.5302,-1.5302,-1.5302,-1.5302,-1.5302,-1.5302,-1.5302,-1.5302,-1.5302,-1.5281,-1.5249,-1.5511,-1.5264,-1.4787,-1.5213,-1.5213,-0.8425,-0.9007,-0.9397,-0.9397,-0.8617,-0.7839,-0.7839,-0.706,-0.6279,-0.6279,-0.6279,-0.6279,-0.6279,-0.6316,-0.6457,-0.679,-0.6955,-0.7182,-0.759,-0.7667,-0.7651,-0.7577,-0.7505,-0.746,-0.746,-0.7593,-0.768,-0.768,-0.768,-0.768,-0.768,-0.768,-0.768,-0.768,-0.8866,-0.9811,-1.0766,-1.2438,-1.377,-1.4267,-1.4497,-1.4488,-1.425,-1.4018,-1.3907,-1.3912,-1.4002,-1.4039,0.0,-1.4139,-1.4176,-1.4187,-1.4335,-1.4393,-1.4414,-1.4562,-1.4615,-1.4615,-1.4615,-1.4615,-1.4615,-1.4615,-1.4615,-1.4647,-1.4821,-1.4752,-1.4615,-1.4615,-1.4678,-1.4747,-1.4747,-1.4921,-1.5096,-1.5096,-1.5201,-1.5302,-1.5302,-1.5302,-1.5302,-1.5302,-1.5302,-1.5302,-1.5302,-1.5302,-1.5302,-1.5302,-1.5302,-1.5302,-1.5302,-1.5302,-1.5302,-1.5302,-1.5302,-1.5302,-1.5302,-1.5302,-1.5302,-1.5302,-1.5302,-1.5302,-1.5302,-1.5782,-1.6025,-1.6025,-1.6257,-1.6494,-1.6494,-1.6212,-1.5703,-1.5213,-1.5422,-1.5422,-0.9592,-0.9982,-1.0372,-1.0372,-0.9592,-0.8617,-0.8422,-0.7451,-0.6668,-0.6279,-0.6279,-0.6279,-0.6279,-0.6311,-0.6451,-0.6806,-0.6957,-0.7182,-0.7619,-0.768,-0.7648,-0.7569,-0.749,-0.7439,-0.7439,-0.7585,-0.768,-0.768,-0.768,-0.768,-0.768,-0.768,-0.7678,-0.8154,-0.9579,-1.0766,-1.1957,-1.339,-1.4272,-1.5075,-1.4763,-1.453,-1.4361,-1.405,-1.3907,-1.3907,-1.3907,-1.3907,-1.3907,-1.3907,-1.3907,-1.3923,-1.4087,-1.415,-1.4166,-1.433,-1.4393,-1.4393,-1.4393,-1.4393,-1.4393,-1.4393,-1.4441,-1.4488,-1.4414,-1.4393,-1.4393,-1.4393,-1.4499,-1.4599,-1.452,-1.4789,-1.5059,-1.4985,-1.5138,-1.5302,-1.5302,-1.5302,-1.5302,-1.5302,-1.5302,-1.5302,-1.5302,-1.5302,-1.5302,-1.5302,-1.5302,-1.5302,-1.5302,-1.5302,-1.5302,-1.5302,-1.5302,-1.5302,-1.5302,-1.5302,-1.5302,-1.5302,-1.5539,-1.5782,-1.5782,-1.6263,-1.6743,-1.6743,-1.6974,-1.717,-1.7087,-1.663,-1.6184,-1.598,-1.5895,-1.5811,-1.0956,-1.1735,-1.2512,-1.2512,-1.1735,-1.0567,-0.9592,-0.8617,-0.7451,-0.6475,-0.6282,-0.6282,-0.6279,-0.6377,-0.6496,-0.6613,-0.692,-0.7188,-0.7307,-0.7527,-0.7675,-0.7675,-0.7675,-0.7675,-0.7675,-0.7675,-0.7678,-0.768,-0.768,-0.768,-0.768,-0.768,-0.8154,-0.9573,-1.0766,-1.2196,-1.339,-1.4822,-1.5302,-1.5291,-1.4832,-1.4615,-1.4594,-1.4124,-1.3907,-1.3907,-1.3907,-1.3907,-1.3907,-1.3907,-1.3907,-1.3907,-1.3907,-1.3907,-1.3907,-1.3907,-1.3907,-1.3907,-1.3907,-1.3907,-1.3907,-1.3907,-1.4065,-1.4213,-1.3976,-1.3907,-1.3907,-1.3907,-1.4245,-1.4552,-1.4319,-1.4773,-1.5238,-1.5022,-1.5138,-1.5302,-1.5302,-1.5302,-1.5302,-1.5302,-1.5302,-1.5302,-1.5302,-1.5302,-1.5302,-1.5302,-1.5302,-1.5302,-1.5302,-1.5302,-1.5302,-1.5302,-1.5302,-1.5302,-1.5302,-1.5302,-1.5302,-1.5302,-1.6025,-1.6268,-1.6268,-1.6974,-1.7212,-1.7212,-1.7212,-1.7075,-1.6808,-1.6535,-1.6497,-1.6906,-1.6618,-1.6348,-1.173,-1.2123,-1.2512,-1.2512,-1.1735,-1.0762,-1.0567,-0.9592,-0.862,-0.7451,-0.7332,-0.717,-0.6292,-0.6377,-0.6496,-0.6613,-0.6719,-0.6883,-0.7164,-0.7336,-0.7399,-0.7317,-0.7381,-0.7399,-0.7315,-0.7381,-0.75,-0.7667,-0.768,-0.768,-0.768,-0.768,-0.8154,-0.9573,-1.0766,-1.2196,-1.339,-1.4822,-1.5223,-1.5064,-1.4758,-1.4525,-1.4356,-1.4044,-1.3907,-1.3907,-1.3907,-1.3907,-1.3907,-1.3907,-1.3907,-1.3907,-1.3907,-1.3907,-1.3907,-1.3907,-1.3907,-1.3907,-1.3907,-1.3907,-1.3907,-1.3907,-1.3954,-1.3997,-1.3928,-1.3907,-1.3907,-1.3907,-1.4007,-1.4102,-1.4028,-1.4409,-1.4842,-1.4948,-1.5138,-1.5302,-1.5302,-1.5302,-1.5302,-1.5302,-1.5302,-1.5302,-1.5302,-1.5302,-1.5302,-1.5302,-1.5302,-1.5302,-1.5302,-1.5302,-1.5302,-1.5302,-1.5302,-1.5302,-1.5302,-1.5302,-1.5539,-1.6025,-1.6268,-1.6506,-1.6974,-1.7449,-1.7916,-1.7916,-1.8206,-1.8298,-1.7977,-1.7713,-1.7334,-1.7274,-1.6981,-1.6694,-1.2318,-1.2512,-1.2512,-1.2512,-1.1929,-1.1346,-1.0952,-1.0372,-0.9592,-0.862,-0.8153,-0.7834,-0.6957,-0.6647,-0.6563,-0.6679,-0.6737,-0.6841,-0.705,-0.7182,-0.7211,-0.7095,-0.7143,-0.7177,-0.7153,-0.7214,-0.7336,-0.7524,-0.7582,-0.7609,-0.7609,-0.8083,-0.8814,-1.0289,-1.1485,-1.2914,-1.4104,-1.5059,-1.5233,-1.5096,-1.4773,-1.4589,-1.4525,-1.4102,-1.396,-1.4044,-1.3949,-1.3907,-1.3907,-1.3907,-1.3907,-1.3907,-1.3907,-1.3907,-1.3907,-1.3907,-1.3907,-1.3907,-1.3907,-1.3907,-1.3907,-1.3907,-1.397,-1.405,-1.405,-1.4113,-1.4192,-1.4192,-1.4192,-1.4208,-1.4303,-1.4472,-1.4673,-1.4911,-1.5138,-1.5302,-1.5302,-1.5302,-1.5302,-1.5302,-1.5302,-1.5302,-1.5302,-1.5302,-1.5302,-1.5302,-1.5302,-1.5302,-1.5302,-1.5302,-1.5302,-1.5302,-1.5302,-1.5302,-1.5302,-1.5539,-1.6025,-1.6268,-1.6737,-1.7212,-1.7679,-1.8053,-1.8225,-1.8225,-1.8303,-1.8275,-1.8156,-1.7682,-1.7306,-1.7016,-1.6838,-1.66,-1.2512,-1.2512,-1.2512,-1.2512,-1.2512,-1.2123,-1.1151,-1.097,-1.0784,-0.9787,-0.877,-0.809,-0.8067,-0.7375,-0.6888,-0.678,-0.6886,-0.7177,-0.6973,-0.7066,-0.7095,-0.6986,-0.6973,-0.701,-0.7108,-0.7137,-0.719,-0.7288,-0.7413,-0.7479,-0.7455,-0.8651,-1.0139,-1.1715,-1.2914,-1.4104,-1.5302,-1.5302,-1.5302,-1.5297,-1.4858,-1.4747,-1.4916,-1.4245,-1.4044,-1.4213,-1.3997,-1.3907,-1.3907,-1.3907,-1.3907,-1.3907,-1.3907,-1.3907,-1.3907,-1.3907,-1.3907,-1.3907,-1.3907,-1.3907,-1.3907,-1.3907,-1.4065,-1.4261,-1.4261,-1.4425,-1.4615,-1.4615,-1.4615,-1.4663,-1.4884,-1.4795,-1.4705,-1.4916,-1.5138,-1.5302,-1.5302,-1.5302,-1.5302,-1.5302,-1.5302,-1.5302,-1.5302,-1.5302,-1.5302,-1.5302,-1.5302,-1.5302,-1.5302,-1.5302,-1.5539,-1.5771,-1.5755,-1.5513,-1.5534,-1.6003,-1.6235,-1.6472,-1.7431,-1.8128,-1.8078,-1.8537,-1.8624,-1.8598,-1.8018,-1.7589,-1.7332,-1.7035,-1.6739,-1.6449,-1.6449,-1.6304,-1.2512,-1.2512,-1.2512,-1.2512,-1.2512,-1.2318,-1.2123,-1.2262,-1.2146,-1.0793,-1.0168,-0.9374,-0.8104,-0.8063,-0.7822,-0.7002,-0.7664,-0.7935,-0.7177,-0.6994,-0.7002,-0.6976,-0.6973,-0.6947,-0.688,-0.7042,-0.7121,-0.7053,-0.7246,-0.7283,-0.7098,-0.8495,-1.0371,-1.2905,-1.3152,-1.4104,-1.5302,-1.5302,-1.5302,-1.5297,-1.5027,-1.4821,-1.4678,-1.434,-1.4108,-1.3981,-1.3928,-1.3907,-1.3907,-1.3907,-1.3907,-1.3907,-1.3907,-1.3907,-1.3907,-1.3907,-1.3907,-1.3907,-1.3907,-1.3907,-1.3907,-1.3907,-1.4065,-1.4261,-1.4261,-1.4425,-1.4615,-1.4615,-1.4615,-1.4626,-1.4678,-1.4795,-1.4906,-1.4958,-1.5138,-1.5302,-1.5302,-1.5302,-1.5302,-1.5302,-1.5302,-1.5302,-1.5302,-1.5302,-1.5302,-1.5302,-1.5302,-1.5302,-1.5302,-1.5302,-1.6483,-1.9558,-1.818,-1.7208,-1.7419,-1.6547,-1.6204,-1.6664,-1.7557,-1.8193,-1.8211,-1.8361,-1.8222,-1.7985,-1.7411,-1.7088,-1.7029,-1.6726,-1.6442,-1.6165,-1.6165,-1.6007,-1.2512,-1.2512,-1.2512,-1.2512,-1.2512,-1.2512,-1.2512,-1.2607,-1.2495,-1.1893,-1.1157,-1.0345,-0.9921,-0.9374,-0.9037,-0.8484,-0.8494,-0.8308,-0.7742,-0.7372,-0.6973,-0.6973,-0.6973,-0.6949,-0.6888,-0.6941,-0.6955,-0.6894,-0.7055,-0.7275,-0.7458,-0.841,-1.0327,-1.3242,-1.3722,-1.4483,-1.5302,-1.5302,-1.5302,-1.5297,-1.5075,-1.4906,-1.4773,-1.4419,-1.4192,-1.4071,-1.3954,-1.3907,-1.3907,-1.3907,-1.3907,-1.3907,-1.3907,-1.3907,-1.3907,-1.3907,-1.3907,-1.3907,-1.3907,-1.3907,-1.3944,-1.4176,-1.4409,-1.4599,-1.4599,-1.4758,-1.4943,-1.4943,-1.4943,-1.4943,-1.4943,-1.5038,-1.5128,-1.5128,-1.5217,-1.5302,-1.5302,-1.5302,-1.5302,-1.5302,-1.5302,-1.5539,-1.6489,-1.6726,-1.6726,-1.6726,-1.7431,-1.7667,-1.6726,-1.731,-1.8635,-2.05,-1.9656,-1.8935,-1.9088,-1.9193,-1.9267,-1.9352,-1.9586,-1.939,-1.9361,-1.8119,-1.7536,-1.7385,-1.6811,-1.6521,-1.6521,-1.6225,-1.6,-1.5862,-1.5862,-1.5776,-1.2512,-1.2512,-1.2512,-1.2512,-1.2512,-1.2512,-1.2512,-1.2544,-1.2618,-1.2771,-1.1901,-1.1262,-1.1775,-1.0886,-1.004,-0.9821,-0.9193,-0.8537,-0.8111,-0.7582,-0.6989,-0.6947,-0.696,-0.6965,-0.6944,-0.6872,-0.6809,-0.6772,-0.7073,-0.7458,-0.805,-0.8938,-1.0391,-1.2923,-1.4136,-1.4974,-1.5238,-1.5244,-1.526,-1.5297,-1.5075,-1.4948,-1.4895,-1.4456,-1.424,-1.4187,-1.3991,-1.3907,-1.3907,-1.3907,-1.3907,-1.3907,-1.3907,-1.3933,-1.397,-1.397,-1.3991,-1.4028,-1.4028,-1.4028,-1.4097,-1.4713,-1.4773,-1.4969,-1.4969,-1.5122,-1.5302,-1.5302,-1.5302,-1.5302,-1.5302,-1.5302,-1.5534,-1.5777,-1.5777,-1.6014,-1.6246,-1.6246,-1.6246,-1.6246,-1.6009,-1.6489,-1.8383,-1.862,-1.862,-1.862,-2.003,-2.0501,-1.8856,-2.0267,-2.1421,-2.1247,-2.0996,-2.0746,-2.0687,-2.1758,-2.2265,-2.132,-2.1094,-2.0573,-1.9755,-1.7816,-1.6831,-1.6785,-1.6271,-1.6,-1.6,-1.575,-1.5625,-1.5625,-1.5625,-1.5625,-1.2512,-1.2512,-1.2512,-1.2512,-1.2512,-1.2512,-1.2512,-1.2671,-1.2771,-1.2591,-1.2037,-1.1761,-1.1637,-1.153,-1.1114,-0.9268,-0.9636,-0.9325,-0.7383,-0.7273,-0.705,-0.6843,-0.691,-0.6933,-0.683,-0.6899,-0.6867,-0.6669,-0.7498,-0.806,-0.7898,-1.0245,-1.1825,-1.2289,-1.3581,-1.4567,-1.5011,-1.5017,-1.5112,-1.5297,-1.5075,-1.4863,-1.4652,-1.4382,-1.415,-1.3954,-1.3923,-1.3907,-1.3907,-1.3907,-1.3907,-1.3907,-1.3907,-1.4034,-1.4213,-1.4213,-1.4346,-1.452,-1.452,-1.452,-1.453,-1.5268,-1.5232,-1.4969,-1.4969,-1.5122,-1.5302,-1.5302,-1.5302,-1.5302,-1.5302,-1.5302,-1.5777,-1.7437,-1.7673,-1.8147,-1.9794,-2.0265,-2.0265,-2.0265,-1.885,-1.8383,-2.0265,-2.0501,-2.0501,-2.0501,-2.0736,-2.0972,-2.0736,-2.3748,-2.5435,-2.4416,-2.2968,-2.1734,-2.1212,-2.1105,-2.0063,-1.8144,-1.9633,-1.9491,-1.7031,-1.6772,-1.6436,-1.6198,-1.5855,-1.5684,-1.5684,-1.5651,-1.5625,-1.5625,-1.5625,-1.5625,-1.2712,-1.2712,-1.2512,-1.2712,-1.2712,-1.2512,-1.2512,-1.2591,-1.2676,-1.2708,-1.2559,-1.2198,-1.172,-1.2045,-1.1839,-0.9806,-0.9699,-0.9381,-0.7721,-0.7206,-0.6819,-0.6716,-0.6804,-0.6854,-0.6801,-0.6843,-0.6806,-0.6645,-0.7662,-0.8421,-0.8868,-1.0624,-1.1782,-1.2488,-1.3467,-1.4039,-1.4372,-1.4636,-1.4884,-1.5112,-1.5017,-1.4916,-1.481,-1.4705,-1.453,-1.4303,-1.4303,-1.4303,-1.4303,-1.4303,-1.4303,-1.4303,-1.4303,-1.4367,-1.4456,-1.4456,-1.4525,-1.4615,-1.5069,-1.5243,-1.571,-1.5937,-1.5543,-1.5154,-1.5154,-1.5223,-1.5302,-1.5302,-1.5302,-1.5302,-1.5302,-1.5302,-1.5777,-1.7673,-1.8147,-1.862,-2.0501,-2.0972,-2.0972,-2.0972,-2.0265,-2.0265,-2.2148,-2.2609,-2.2609,-2.2609,-2.3555,-2.3724,-2.2903,-2.3949,-2.4716,-2.4193,-2.3485,-2.2772,-2.2607,-2.3453,-2.3654,-2.2414,-2.2943,-2.2642,-2.1093,-2.0098,-1.9446,-1.9301,-1.7992,-1.7347,-1.7347,-1.6197,-1.5625,-1.5625,-1.5818,-1.6004,-1.3028,-1.2813,-1.262,-1.3011,-1.2813,-1.2438,-1.2496,-1.2512,-1.256,-1.2739,-1.2824,-1.2755,-1.2012,-1.2408,-1.2052,-1.0038,-0.9509,-0.8998,-0.7605,-0.6947,-0.661,-0.6549,-0.6669,-0.6764,-0.6793,-0.6796,-0.6751,-0.6642,-0.7869,-0.8827,-0.947,-1.0817,-1.2007,-1.2861,-1.3209,-1.3505,-1.3727,-1.4145,-1.4499,-1.4789,-1.4789,-1.4789,-1.4789,-1.4726,-1.4604,-1.4435,-1.4499,-1.4525,-1.453,-1.4589,-1.4615,-1.4615,-1.4615,-1.4652,-1.47,-1.4636,-1.4689,-1.5003,-1.5788,-1.6223,-1.6312,-1.6552,-1.6072,-1.5597,-1.5357,-1.5357,-1.5357,-1.5128,-1.517,-1.5217,-1.5217,-1.5217,-1.569,-1.757,-1.8225,-1.9102,-2.0958,-2.1956,-2.1995,-2.1438,-2.1956,-2.2461,-2.3294,-2.3666,-2.4068,-2.4068,-2.5135,-2.5515,-2.4202,-2.3862,-2.3623,-2.332,-2.3384,-2.3357,-2.3145,-2.5135,-2.5994,-2.506,-2.5073,-2.4903,-2.3995,-2.2472,-2.1713,-2.1713,-2.0198,-1.9243,-1.8676,-1.7154,-1.6197,-1.5818,-1.6197,-1.639,-1.2818,-1.2757,-1.2757,-1.2757,-1.2757,-1.2812,-1.2459,-1.2512,-1.2512,-1.2528,-1.2708,-1.2808,-1.2406,-1.2349,-1.1824,-0.9848,-0.9331,-0.8432,-0.6483,-0.6488,-0.6549,-0.6324,-0.6502,-0.6682,-0.6788,-0.6796,-0.6751,-0.6642,-0.8485,-0.9645,-0.947,-1.1273,-1.2437,-1.2861,-1.2892,-1.3019,-1.3257,-1.3505,-1.3854,-1.4293,-1.4293,-1.4293,-1.4287,-1.4065,-1.3954,-1.3954,-1.4182,-1.4277,-1.4293,-1.452,-1.4615,-1.4615,-1.4615,-1.4752,-1.4927,-1.47,-1.5363,-1.6403,-1.7063,-1.6904,-1.6475,-1.7156,-1.6702,-1.6248,-1.5783,-1.555,-1.5328,-1.4874,-1.481,-1.4985,-1.4985,-1.4985,-1.545,-1.752,-1.8923,-2.0524,-2.2322,-2.4408,-2.502,-2.2828,-2.4191,-2.5011,-2.3044,-2.3817,-2.4909,-2.4909,-2.456,-2.4137,-2.3687,-2.3935,-2.3715,-2.2576,-2.2778,-2.2686,-2.1924,-2.3767,-2.4137,-2.2205,-2.3667,-2.3826,-2.2092,-2.1903,-2.1713,-2.1713,-2.1713,-2.058,-1.8676,-1.8484,-1.7724,-1.6197,-1.639,-1.6583,-1.3334,-1.3238,-1.2924,-1.3301,-1.3112,-1.2763,-1.247,-1.2412,-1.2512,-1.2512,-1.2697,-1.264,-1.1759,-1.1633,-1.0784,-0.8697,-0.829,-0.7746,-0.624,-0.6126,-0.6149,-0.6062,-0.6263,-0.6422,-0.6459,-0.6465,-0.6481,-0.6515,-0.7819,-0.8667,-0.8612,-1.0465,-1.1585,-1.1662,-1.2323,-1.275,-1.2993,-1.3077,-1.3278,-1.3595,-1.3748,-1.3896,-1.4034,-1.4102,-1.4134,-1.4145,-1.4388,-1.4488,-1.4493,-1.4578,-1.4615,-1.4615,-1.4615,-1.489,-1.5411,-1.5323,-1.5634,-1.6436,-1.6976,-1.6964,-1.6856,-1.7125,-1.6395,-1.5469,-1.5095,-1.482,-1.46,-1.438,-1.4219,-1.4287,-1.4287,-1.4287,-1.4731,-1.6723,-1.7521,-1.8324,-2.0278,-2.2113,-2.326,-2.2247,-2.3642,-2.4573,-2.377,-2.4067,-2.4404,-2.4404,-2.3393,-2.2576,-2.2429,-2.2539,-2.2466,-2.2034,-2.2108,-2.208,-2.1786,-2.3667,-2.4613,-2.3856,-2.5534,-2.6461,-2.57,-2.57,-2.57,-2.57,-2.4372,-2.2661,-2.0571,-1.9625,-1.8101,-1.639,-1.8484,-1.9434,-1.3515,-1.3439,-1.3118,-1.3678,-1.3495,-1.2952,-1.247,-1.2406,-1.2512,-1.2512,-1.2639,-1.2526,-1.1667,-1.1146,-1.0236,-0.8395,-0.7644,-0.7134,-0.6,-0.5845,-0.6049,-0.6049,-0.6041,-0.6176,-0.6216,-0.6221,-0.6269,-0.6388,-0.7476,-0.8153,-0.8612,-1.0068,-1.1192,-1.1662,-1.2241,-1.2623,-1.2866,-1.2787,-1.2866,-1.3104,-1.3262,-1.3458,-1.368,-1.3838,-1.3912,-1.3923,-1.4161,-1.4266,-1.4272,-1.4346,-1.4377,-1.4377,-1.4606,-1.4872,-1.5376,-1.5515,-1.5826,-1.6537,-1.6777,-1.6834,-1.6961,-1.6777,-1.6062,-1.5381,-1.4798,-1.4322,-1.3887,-1.3887,-1.3733,-1.3796,-1.3796,-1.3796,-1.4224,-1.5293,-1.6073,-1.6844,-1.8102,-1.9657,-2.0968,-2.0848,-2.1978,-2.3088,-2.2964,-2.3354,-2.3733,-2.3596,-2.2659,-2.1924,-2.1777,-2.1759,-2.1759,-2.1759,-2.1759,-2.1759,-2.1759,-2.3667,-2.4812,-2.4812,-2.6671,-2.7793,-2.7793,-2.7793,-2.7793,-2.7793,-2.645,-2.4749,-2.304,-2.1903,-2.0571,-1.886,-2.0952,-2.1713,-1.3307,-1.3684,-1.3684,-1.3678,-1.3678,-1.337,-1.2626,-1.2496,-1.2507,-1.2501,-1.2507,-1.2443,-1.2232,-1.1432,-1.0353,-0.9056,-0.7914,-0.6788,-0.5781,-0.5681,-0.5744,-0.5744,-0.585,-0.5964,-0.6078,-0.6091,-0.6139,-0.6255,-0.7243,-0.8289,-0.9443,-1.0276,-1.1441,-1.2661,-1.2634,-1.2623,-1.285,-1.2628,-1.2628,-1.2855,-1.2855,-1.2977,-1.3199,-1.3199,-1.3204,-1.3225,-1.3463,-1.3569,-1.3585,-1.3796,-1.4101,-1.4101,-1.4543,-1.4905,-1.5293,-1.5481,-1.5919,-1.6488,-1.6488,-1.6488,-1.6488,-1.6475,-1.6074,-1.5665,-1.5052,-1.4427,-1.3802,-1.3404,-1.3368,-1.3548,-1.3548,-1.3548,-1.3548,-1.3548,-1.46,-1.5621,-1.5621,-1.7278,-1.885,-1.8336,-1.9758,-2.0921,-2.0584,-2.1728,-2.2606,-2.2233,-2.2169,-2.2023,-2.1814,-2.1759,-2.1759,-2.1759,-2.1759,-2.1759,-2.1759,-2.3667,-2.4812,-2.4812,-2.6671,-2.7793,-2.7793,-2.7793,-2.7793,-2.7793,-2.7793,-2.7034,-2.5501,-2.5512,-2.4927,-2.3985,-2.3985,-2.3229,-1.3719,-1.3589,-1.3363,-1.3167,-1.3268,-1.3006,-1.1971,-1.2153,-1.2464,-1.2306,-1.2401,-1.2491,-1.2433,-1.1527,-1.0439,-0.9195,-0.8056,-0.6998,-0.5888,-0.5662,-0.5633,-0.5633,-0.5731,-0.5779,-0.5734,-0.5803,-0.5861,-0.5895,-0.6995,-0.7743,-0.8285,-1.0008,-1.1049,-1.1457,-1.2045,-1.2544,-1.2607,-1.2544,-1.2544,-1.2607,-1.2607,-1.2644,-1.2708,-1.2708,-1.2803,-1.2977,-1.3619,-1.3728,-1.3326,-1.422,-1.4242,-1.4029,-1.4664,-1.5121,-1.5562,-1.592,-1.6252,-1.6488,-1.6488,-1.6488,-1.6455,-1.6258,-1.5985,-1.5339,-1.4954,-1.4492,-1.389,-1.389,-1.375,-1.3801,-1.341,-1.3415,-1.3211,-1.2808,-1.3146,-1.3288,-1.3288,-1.472,-1.5934,-1.5862,-1.7088,-1.8106,-1.8016,-1.9373,-2.032,-2.0219,-1.9228,-1.8995,-1.9866,-2.0049,-2.0423,-2.1577,-2.1759,-2.1759,-2.1759,-2.3667,-2.4812,-2.4812,-2.6671,-2.7793,-2.7793,-2.7793,-2.7793,-2.7793,-2.8166,-2.7408,-2.5501,-2.6263,-2.5689,-2.3985,-2.5888,-2.57,-1.2435,-1.2787,-1.2764,-1.2898,-1.2997,-1.2702,-1.1832,-1.1936,-1.219,-1.2063,-1.2137,-1.2258,-1.2354,-1.1507,-1.0475,-0.9325,-0.8224,-0.7166,-0.6014,-0.5726,-0.5654,-0.5654,-0.571,-0.5707,-0.5599,-0.5644,-0.5702,-0.5747,-0.6793,-0.7692,-0.8226,-0.9831,-1.1118,-1.172,-1.219,-1.256,-1.266,-1.256,-1.2512,-1.2512,-1.2512,-1.2512,-1.2512,-1.2512,-1.2586,-1.2723,-1.3465,-1.3526,-1.3531,-1.4133,-1.4327,-1.4121,-1.4533,-1.5007,-1.5471,-1.5796,-1.5987,-1.6126,-1.6126,-1.6126,-1.6099,-1.5941,-1.5495,-1.5064,-1.4907,-1.4463,-1.407,-1.407,-1.3876,-1.3688,-1.33,-1.3105,-1.2906,-1.2512,-1.2512,-1.2512,-1.2512,-1.3089,-1.3864,-1.3864,-1.5025,-1.6184,-1.6184,-1.7347,-1.8316,-1.7539,-1.7347,-1.7347,-1.8316,-1.8508,-1.8892,-1.965,-1.9841,-1.9841,-1.9841,-2.2899,-2.4613,-2.4025,-2.6285,-2.7793,-2.7793,-2.7793,-2.798,-2.8178,-2.8364,-2.8166,-2.7385,-2.7956,-2.777,-2.6802,-2.8113,-2.6957,-1.0674,-1.144,-1.2344,-1.234,-1.2407,-1.2424,0.0,-1.1735,-1.1772,-1.1725,-1.1778,-1.1889,-1.2073,-1.1373,-1.0259,-0.9321,-0.8362,-0.7369,-0.6145,-0.5845,-0.5773,-0.5789,-0.5765,-0.5712,-0.5614,-0.5593,-0.5803,-0.5902,-0.681,-0.7771,-0.9033,-1.0125,-1.1267,-1.2464,-1.2475,-1.2586,-1.2824,-1.2618,-1.2512,-1.2512,-1.2512,-1.2512,-1.2512,-1.2512,-1.2512,-1.2512,-1.2911,-1.3494,-1.407,-1.407,-1.407,-1.407,-1.4663,-1.5007,-1.5381,-1.5529,-1.5625,-1.5625,-1.5625,-1.5625,-1.5625,-1.5625,-1.5244,-1.4863,-1.4863,-1.4463,-1.4264,-1.4264,-1.3882,-1.3305,-1.3305,-1.2906,-1.2512,-1.2512,-1.2512,-1.2512,-1.2512,-1.2512,-1.2512,-1.2512,-1.3477,-1.4445,-1.4445,-1.5798,-1.6377,-1.5025,-1.5991,-1.6762,-1.6762,-1.6962,-1.7154,-1.7347,-1.7539,-1.7532,-1.7532,-2.213,-2.4225,-2.286,-2.5888,-2.7793,-2.7793,-2.7793,-2.798,-2.8551,-2.8563,-2.9084,-2.9934,-3.0118,-3.0277,-3.0567,-3.0073,-2.7524,0.0,0.0,0.0,0.0,0.0,0.0,0.0,-1.1144,-1.1439,-1.107,-1.0906,-1.0873,-1.1459,-1.1036,-1.0284,-0.9301,-0.8837,-0.8041,-0.6246,-0.5967,-0.5927,-0.6022,-0.5866,-0.5742,-0.572,-0.5638,-0.5942,-0.6662,-0.7536,-0.8661,-0.9741,-1.0867,-1.1621,-1.2232,-1.2248,-1.2359,-1.2575,-1.2533,-1.2512,-1.2512,-1.2512,-1.2512,-1.2512,-1.2512,-1.2512,-1.2512,-1.2911,-1.3494,-1.407,-1.4851,-1.5044,-1.4663,-1.5244,-1.5464,-1.5509,-1.5451,-1.5625,-1.5625,-1.5625,-1.5625,-1.5625,-1.5625,-1.5438,-1.5438,-1.5438,-1.5238,-1.5238,-1.5238,-1.4857,-1.4469,-1.3882,-1.3494,-1.2911,-1.2512,-1.2512,-1.2512,-1.2512,-1.2512,-1.2512,-1.2512,-1.2706,-1.2895,-1.2895,-1.4252,-1.5219,-1.4832,-1.5025,-1.5219,-1.5219,-1.6377,-1.7539,-1.8892,-2.0041,-2.0805,-2.0805,-2.3278,-2.4801,-2.4424,-2.6484,-2.7793,-2.7793,-2.7793,-2.7793,-2.798,-2.8749,-2.9096,-2.8651,-2.9545,-2.9853,-2.9411,-2.9307,-2.7689,0.0,0.0,0.0,0.0,0.0,0.0,0.0,0.0,0.0,0.0,0.0,-0.9425,-0.9878,0.0,-0.9786,-0.8589,-0.8752,-0.8206,-0.6276,-0.6001,-0.5948,-0.6009,-0.5911,-0.5816,-0.5755,-0.6235,-0.6527,-0.6979,-0.8184,-0.9264,-0.9888,-1.0876,-1.1582,-1.182,-1.1947,-1.2116,-1.2343,-1.2348,-1.2401,-1.2512,-1.2512,-1.2512,-1.2512,-1.2512,-1.2512,-1.2906,-1.3294,-1.3882,-1.4463,-1.5238,-1.5438,-1.5244,-1.5431,-1.5625,-1.5625,-1.5625,-1.5625,-1.5625,-1.5625,-1.5625,-1.5625,-1.5625,-1.5625,-1.5625,-1.5625,-1.5625,-1.5625,-1.5625,-1.5044,-1.427,-1.407,-1.3488,-1.2712,-1.2512,-1.2512,-1.2512,-1.2512,-1.3094,-1.3671,-1.3671,-1.4252,-1.4832,-1.4832,-1.4058,-1.3671,-1.3671,-1.3671,-1.3817,-1.4459,-1.4638,-1.5538,-1.7447,-1.7798,-1.8357,-1.9863,-2.0217,-2.1504,-2.3917,-2.6164,-2.7406,-2.7406,-2.7406,-2.7472,-2.7743,-2.8298,-2.8534,-2.8806,-2.9338,-2.9359,-2.9073,-2.8502,-2.7218,0.0,0.0,0.0,0.0,0.0,0.0,0.0,0.0,0.0,0.0,0.0,0.0,0.0,0.0,0.0,-0.7587,-0.8183,-0.8075,-0.639,-0.6101,-0.5845,-0.552,-0.5874,-0.5842,-0.5789,-0.6643,-0.7292,-0.7543,-0.8895,-0.974,-0.9913,-1.0956,-1.1429,-1.1476,-1.1661,-1.1883,-1.2121,-1.2315,-1.2427,-1.2454,-1.2454,0.0,-1.2512,-1.2512,-1.2712,-1.3305,-1.3682,-1.427,-1.4863,-1.5244,-1.5625,-1.5618,-1.5565,-1.5578,-1.5625,-1.5625,-1.5625,-1.5625,-1.5625,-1.5625,-1.5625,-1.5625,-1.5625,-1.5625,-1.5625,-1.5625,0.0,-1.5625,-1.4851,-1.407,-1.407,-1.3288,-1.2512,-1.2512,-1.2512,-1.2512,-1.2512,-1.3477,-1.4252,-1.4252,-1.5412,-1.6184,-1.6184,-1.4639,-1.3266,-1.2835,-1.283,-1.3126,-1.3642,-1.305,-1.3343,-1.5322,-1.4924,-1.5288,-1.7666,-1.6872,-1.8112,-2.2498,-2.4929,-2.632,-2.6585,-2.6573,-2.6728,-2.6982,-2.7156,-2.7737,-2.8744,-2.8918,-2.8866,-2.8723,-2.7346,-2.6009,0.0,0.0,0.0,0.0,0.0,0.0,0.0,0.0,0.0,0.0,0.0,0.0,0.0,0.0,0.0,0.0,-0.7323,-0.7781,-0.7021,-0.6309,-0.5373,-0.3775,-0.4976,-0.5699,-0.552,-0.6434,-0.7747,-0.9648,-0.9671,-1.009,-1.0971,-1.0997,0.0,0.0,0.0,-1.1651,-1.1704,-1.21,-1.241,-1.2438,-1.2438,-1.2535,-1.2512,-1.2512,-1.2712,-1.3305,-1.3682,-1.427,-1.4863,-1.5244,-1.5625,-1.5598,-1.5335,-1.5394,-1.5625,-1.5625,-1.5625,-1.5625,-1.5625,0.0,0.0,-1.5625,-1.5625,-1.5625,-1.5625,-1.5625,-1.5625,-1.5625,-1.5051,-1.4663,-1.407,-1.3488,-1.3105,-1.2512,-1.2512,-1.2512,-1.2512,-1.2512,-1.2706,-1.2706,-1.29,-1.2895,-1.2895,-1.5025,-1.6095,-1.45,-1.4274,-1.3806,-1.2263,-1.3156,-1.4061,-1.4389,-1.547,0.0,-1.6736,-1.7366,-1.8383,-2.0321,-2.2196,-2.3732,-2.4977,-2.4966,-2.4931,-2.5039,-2.5884,-2.6451,-2.7104,-2.7968,-2.8061,-2.7528,-2.5321,-2.4717,0.0,0.0,0.0,0.0,0.0,0.0,0.0,0.0,0.0,0.0,0.0,0.0,0.0,0.0,0.0,0.0,-0.5462,-0.5307,-0.367,-0.3782,-0.3801,-0.328,-0.3307,-0.439,-0.6428,-0.856,-1.012,-1.06,-1.0511,-1.0634,-1.0986,-1.1149,-1.1186,-1.1281,-1.1291,-1.1402,-1.163,-1.1826,-1.1209,-0.9921,-1.1425,-1.2229,-1.2132,-1.2121,-1.2304,-1.2873,-1.3583,-1.4225,-1.4619,-1.5184,-1.5473,-1.5585,0.0,0.0,0.0,0.0,-1.5229,-1.5348,-1.5189,-1.5236,-1.5341,-1.5183,-1.513,-1.513,-1.513,-1.5242,-1.5367,-1.5367,-1.4917,-1.427,-1.407,-1.3294,-1.2712,-1.2512,-1.2512,-1.2512,-1.2512,-1.3089,-1.3864,-1.3864,-1.4445,0.0,-1.2535,-1.3237,-1.3577,-1.235,-1.2705,-1.2799,-1.2007,-1.234,-1.318,-1.4599,-1.4579,-1.4924,-1.5626,-1.6387,0.0,0.0,0.0,-2.228,-2.3278,-2.4477,0.0,0.0,0.0,-2.5375,-2.5772,-2.5735,0.0,0.0,-2.4918,-2.4659,0.0,0.0,0.0,0.0,0.0,0.0,0.0,0.0,0.0,0.0,0.0,0.0,0.0,0.0,0.0,0.0,-0.3354,-0.2556,-0.0632,-0.0942,-0.1273,-0.1498,-0.2365,-0.3934,-0.6962,-0.9869,-1.1153,-0.9671,-0.9621,-0.9946,-1.0997,-1.1159,-1.1149,-1.1144,-1.1149,-1.1228,-1.1387,-1.1397,-1.0609,-0.8977,-1.0258,-1.1219,-1.2035,-1.1836,-1.2192,-1.2742,-1.3302,-1.3951,-1.4517,-1.4884,-1.5196,-1.5341,-1.4847,-1.4702,-1.4774,-1.4774,-1.4899,-1.5044,-1.484,-1.4899,-1.5038,-1.484,-1.4774,-1.4774,-1.4774,-1.4913,-1.5071,-1.4878,-1.4462,-1.3856,-1.3665,-1.3086,-1.2513,-1.2322,-1.2322,-1.2322,-1.2322,-1.3086,-1.4041,-1.4041,-1.4803,-1.4858,-1.1883,-1.1463,-1.1076,-1.0103,-1.0641,-1.1103,-1.1397,-1.1194,-1.1834,-1.3891,-1.3184,-1.3012,-1.4036,-1.4822,-1.5318,-1.5725,-1.8619,-2.0666,-2.1642,-2.3295,-2.4341,-2.4786,-2.4505,-2.4504,0.0,0.0,0.0,0.0,0.0,0.0,0.0,0.0,0.0,0.0,0.0,0.0,0.0,0.0,0.0,0.0,0.0,0.0,0.0,0.0,0.0,0.0,0.0,0.0,0.0946,0.1861,0.2334,0.2446,-0.2252,-0.5705,-0.6237,-0.9264,-0.9652,-0.6072,-0.5809,-0.732,-1.0823,-1.0997,-1.1165,-1.1144,-1.1159,-1.1002,-1.1007,-1.1023,-1.1307,-1.1513,-0.9152,-0.9425,-1.183,-1.183,-1.2192,-1.2737,-1.312,-1.3487,-1.4036,-1.4598,-1.4787,-1.4768,-1.4464,-1.4517,-1.4774,-1.4774,-1.4781,-1.4781,-1.4774,-1.4781,-1.4781,-1.4774,-1.4774,-1.4774,-1.4774,-1.4781,-1.4598,-1.4219,-1.4036,-1.3859,-1.2943,-1.2576,-1.2576,-1.203,-1.1852,-1.1852,-1.1852,-1.1852,-1.2035,-1.2035,-1.2035,-1.1662,-1.0728,-1.0544,-1.0107,-0.9015,-0.8811,0.0,-0.9777,-0.9749,-1.0095,-1.1144,-1.1144,-1.1144,-1.1144,-1.2439,-1.34,-1.3858,-1.6133,-1.8432,-2.0506,-2.0676,-2.1464,-2.3229,-2.3984,-2.4177,-2.3645,0.0,0.0,0.0,0.0,0.0,0.0,0.0,0.0,0.0,0.0,0.0,0.0,0.0,0.0,0.0,0.0,0.0,0.0,0.0,0.0,0.0,0.0,0.0,0.0,0.2334,0.236,0.1917,-0.0322,-0.2759,-0.4736,-0.3169,-0.2038,-0.1893,-0.6429,-0.98,-1.1033,-1.1023,-1.1012,-1.1007,-1.1002,-1.0997,-1.0997,-1.1165,-1.1202,-1.1281,-1.038,-1.0419,-1.1392,-1.1381,-1.1376,-1.1735,-1.2608,-1.3216,-1.3389,-1.4119,-1.4359,-1.4174,-1.4069,-1.4095,-1.4181,-1.4181,-1.4181,-1.4207,-1.4412,-1.4346,-1.4181,-1.4181,-1.4181,-1.4181,-1.4181,-1.4319,-1.4477,-1.394,-1.3524,-1.3292,-1.2737,-1.237,-1.2009,-1.183,-1.183,-1.183,-1.183,-1.183,-1.183,-1.183,-1.1582,-1.0972,-0.9941,-0.9855,-0.9352,-0.7785,-0.8026,-0.8425,-0.8018,-0.9047,-0.9913,-1.009,-1.0792,-1.1144,-1.1144,-1.1917,-1.2413,-1.2502,-1.4963,-1.6804,-1.7426,-1.8855,-2.0541,-2.2376,-2.2703,-2.2627,-2.239,0.0,0.0,0.0,0.0,0.0,0.0,0.0,0.0,0.0,0.0,0.0,0.0,0.0,0.0,0.0,0.0,0.0,0.0,0.0,0.0,0.0,0.0,0.0,0.0,0.0,0.0,0.0948,0.0955,0.0,-0.1738,0.0812,0.2155,0.1001,-0.4063,-0.8239,-1.0924,-1.1091,-1.0416,-0.9255,-0.9073,-0.9772,-1.1007,-1.0997,-1.0997,-1.1007,-1.1165,-1.1159,-1.0997,-1.1154,-1.1144,-1.1154,-1.2173,-1.2763,-1.2933,-1.3641,-1.3888,-1.354,-1.354,-1.354,-1.3362,-1.354,-1.354,-1.3566,-1.4102,-1.4042,-1.3878,-1.3878,-1.3641,-1.3386,-1.3386,-1.345,-1.3368,-1.295,-1.2751,-1.2539,-1.2094,-1.1762,-1.1587,-1.1587,-1.1587,-1.1587,-1.1587,-1.1587,-1.1587,-1.1587,-1.135,-1.0721,-0.9298,-0.9032,-0.8564,-0.6598,-0.6833,-0.7257,-0.6965,-0.8354,-0.9393,-0.9735,-1.0614,-1.1144,-1.1144,-1.1484,-1.1996,-1.1991,-1.3871,-1.5398,-1.6081,-1.8104,-1.9987,-2.1352,-2.1856,-2.1954,0.0,0.0,0.0,0.0,0.0,0.0,0.0,0.0,0.0,0.0,0.0,0.0,0.0,0.0,0.0,0.0,0.0,0.0,0.0,0.0,0.0,0.0,0.0,0.0,0.0,0.0,0.0,0.0316,0.1551,0.0,0.0,0.0,0.0,0.2445,0.098,-0.2971,-0.999,-1.0511,-0.8884,-0.5388,-0.574,-0.7493,-1.1023,-1.0849,-1.0844,-1.0844,-1.0828,-1.0823,-1.0997,-1.1154,-1.1149,-1.1144,-1.1657,-1.2163,-1.2502,-1.3012,-1.3184,-1.3184,-1.3171,-1.2816,-1.246,-1.3006,-1.3178,-1.3171,-1.3699,-1.3699,-1.368,-1.3838,-1.3315,-1.2758,-1.2733,-1.2381,0.0,0.0,-1.1409,-1.1303,-1.1059,-1.1128,-1.1133,-1.1144,-1.1144,-1.1144,-1.1144,-1.1144,-1.1138,-1.1117,-1.0934,-1.0337,-0.8411,0.0,-0.7383,-0.5717,-0.5395,-0.5782,-0.6772,-0.766,-0.87,-0.9566,-1.0441,-1.0971,-1.1144,-1.1484,-1.1996,-1.233,-1.2852,-1.4056,-1.6267,-1.8078,-1.9351,-2.0124,-2.1368,0.0,0.0,0.0,0.0,0.0,0.0,0.0,0.0,0.0,0.0,0.0,0.0,0.0,0.0,0.0,0.0,0.0,0.0,0.0,0.0,0.0,0.0,0.0,0.0,0.0,0.0,0.1221,0.077,0.0789,0.1259,0.1705,0.0,0.0,0.0,0.0,0.0,0.0,-0.0824,-0.2146,-0.2334,-0.1533,-0.6823,-1.0171,-1.1043,-0.8381,-0.6972,-0.6972,-0.6969,-0.837,-1.1017,-1.0997,-1.1165,-1.1165,-1.1662,-1.2163,-1.2484,-1.2125,-1.2385,-1.2871,-1.234,-1.2096,-1.212,-1.2325,-1.2437,-1.2321,-1.3059,-1.3235,-1.3026,-1.3146,-1.2859,-1.2394,-1.2143,0.0,0.0,0.0,0.0,-1.0844,-1.0774,-1.071,-1.0757,-1.1101,-1.1144,-1.1144,-1.1144,-1.1144,-1.1043,-1.0689,-1.0126,-0.93,-0.77,-0.7113,0.0,-0.5172,-0.5164,-0.5487,-0.5779,-0.6734,-0.7663,-0.8527,-0.9566,-1.0268,-1.0971,-1.1144,-1.1484,-1.1996,-1.2335,-1.3024,-1.4056,-1.446,-1.5308,-1.6578,0.0,0.0,0.0,0.0,0.0,0.0,0.0,0.0,0.0,0.0,0.0,0.0,0.0,0.0,0.0,0.0,0.0,0.0,0.0,0.0,0.0,0.0,0.0,0.0,0.0,0.0,0.0,0.0868,0.0147,0.0602,0.1359,0.1941,0.0,0.0,0.0,0.0,0.0,0.0,0.0,0.0,0.0,0.0,-0.4069,-0.6197,-0.6275,-0.4201,-0.3221,-0.3222,-0.6398,-0.909,-1.1033,-0.9425,-0.9594,-1.117,-1.1327,-1.1888,-1.2523,-1.2548,-1.215,-1.1785,0.0,0.0,0.0,0.0,-1.1469,-1.1433,-1.2047,-1.2208,-1.2053,-1.2213,0.0,0.0,0.0,0.0,0.0,0.0,0.0,-1.0487,-1.0541,-1.079,-1.098,-1.1112,-1.1144,-1.1144,-1.1144,-1.0821,-1.0294,-0.9866,-0.9347,-0.8576,-0.6972,-0.6391,0.0,0.0,0.0,-0.5217,-0.5389,-0.6368,-0.732,-0.8184,-0.922,-1.009,-1.0971,-1.1144,-1.1316,-1.1824,-1.2163,-1.2572,-1.2858,-1.3551,-1.4051,0.0,0.0,0.0,0.0,0.0,0.0,0.0,0.0,0.0,0.0,0.0,0.0,0.0,0.0,0.0,0.0,0.0,0.0,0.0,0.0,0.0,0.0,0.0,0.0,0.0,0.0,0.0,0.0,0.0,0.0,0.0,0.0,0.0,0.0,0.0,0.0,0.0,0.0,0.0,0.0,0.0,0.0,0.0,0.0,0.0,0.0,0.0,0.0,-0.0,-0.6585,-0.9647,-0.9476,-0.738,-0.8071,-1.1038,-1.1038,0.0,-1.1789,-1.2419,0.0,0.0,0.0,0.0,0.0,0.0,0.0,0.0,0.0,0.0,0.0,0.0,0.0,0.0,0.0,0.0,0.0,0.0,0.0,0.0,0.0,0.0,-1.0996,-1.0969,-1.1006,-1.1038,-1.0974,-1.0325,-0.9571,-0.872,-0.8575,-0.7915,0.0,0.0,0.0,0.0,0.0,0.0,-0.5355,-0.6187,-0.7146,-0.8184,-0.9047,-0.9917,-1.0971,-1.1144,-1.1316,-1.1657,-1.2065,-1.2313,-1.219,-1.3887,0.0,0.0,0.0,0.0,0.0,0.0,0.0,0.0,0.0,0.0,0.0,0.0,0.0,0.0,0.0,0.0,0.0,0.0,0.0,0.0,0.0,0.0,0.0,0.0,0.0,0.0,0.0,0.0,0.0,0.0,0.0,0.0,0.0,0.0,0.0,0.0,0.0,0.0,0.0,0.0,0.0,0.0,0.0,0.0,0.0,0.0,0.0,0.0,0.0,0.0,-0.1247,-0.1877,-0.2191,-0.768,-1.0482,-1.1159,-1.1159,-0.9894,-0.7814,-0.6874,0.0,0.0,0.0,0.0,0.0,0.0,0.0,0.0,0.0,0.0,0.0,0.0,0.0,0.0,0.0,0.0,0.0,0.0,0.0,0.0,0.0,0.0,-1.0219,-1.0039,-1.0288,-1.0457,-1.0076,0.0,0.0,0.0,0.0,0.0,0.0,0.0,0.0,0.0,0.0,0.0,-0.5233,-0.5623,-0.6453,-0.8184,-0.8531,-0.9225,-1.0971,-1.1144,-1.1144,-1.1144,-1.1404,-1.1492,0.0,0.0,0.0,0.0,0.0,0.0,0.0,0.0,0.0,0.0,0.0,0.0,0.0,0.0,0.0,0.0,0.0,0.0,0.0,0.0,0.0,0.0,0.0,0.0,0.0,0.0,0.0,0.0,0.0,0.0,0.0,0.0,0.0,0.0,0.0,0.0,0.0,0.0,0.0,0.0,0.0,0.0,0.0,0.0,0.0,0.0,0.0,0.0,0.0,0.0,0.0,0.0,0.0,0.0,0.0,0.0,0.0,0.0,-0.6961,-0.4613,0.0,0.0,0.0,0.0,0.0,0.0,0.0,0.0,0.0,0.0,0.0,0.0,0.0,0.0,0.0,0.0,0.0,0.0,0.0,0.0,0.0,0.0,0.0,0.0,0.0,0.0,0.0,0.0,0.0,0.0,0.0,0.0,0.0,0.0,0.0,0.0,0.0,0.0,0.0,0.0,-0.5204,-0.544,-0.6108,-0.749,-0.8011,-0.8878,-1.0268,-1.0792,-1.1038,-1.0795,-1.1137,0.0,0.0,0.0,0.0,0.0,0.0,0.0,0.0,0.0,0.0,0.0,0.0,0.0,0.0,0.0,0.0,0.0,0.0,0.0,0.0,0.0,0.0,0.0,0.0,0.0,0.0,0.0,0.0,0.0,0.0,0.0,0.0,0.0,0.0,0.0,0.0,0.0,0.0,0.0,0.0,0.0,0.0,0.0,0.0,0.0,0.0,0.0,0.0,0.0,0.0,0.0,0.0,0.0,0.0,0.0,0.0,0.0,0.0,0.0,-0.2576,0.0,0.0,0.0,0.0,0.0,0.0,0.0,0.0,0.0,0.0,0.0,0.0,0.0,0.0,0.0,0.0,0.0,0.0,0.0,0.0,0.0,0.0,0.0,0.0,0.0,0.0,0.0,0.0,0.0,0.0,0.0,0.0,0.0,0.0,0.0,0.0,0.0,0.0,0.0,0.0,0.0,-0.5204,-0.544,-0.5934,-0.6975,-0.7837,-0.87,-0.9566,-1.0614,-1.0943,-1.0467,-1.0752,0.0,0.0,0.0,0.0,0.0,0.0,0.0,0.0,0.0,0.0,0.0,0.0,0.0,0.0,0.0,0.0,0.0,0.0,0.0,0.0,0.0,0.0,0.0,0.0,0.0,0.0,0.0,0.0,0.0,0.0,0.0,0.0,0.0,0.0,0.0,0.0,0.0,0.0,0.0,0.0,0.0,0.0,0.0,0.0,0.0,0.0,0.0,0.0,0.0,0.0,0.0,0.0,0.0,0.0,0.0,0.0,0.0,0.0,0.0,0.0,0.0,0.0,0.0,0.0,0.0,0.0,0.0,0.0,0.0,0.0,0.0,0.0,0.0,0.0,0.0,0.0,0.0,0.0,0.0,0.0,0.0,0.0,0.0,0.0,0.0,0.0,0.0,0.0,0.0,0.0,0.0,0.0,0.0,0.0,0.0,0.0,0.0,0.0,0.0,0.0,0.0,-0.5204,-0.544,-0.5934,-0.6975,-0.7837,-0.87,-0.9566,-1.0614,-1.0943,-1.0467,0.0,0.0,0.0,0.0,0.0,0.0,0.0,0.0,0.0,0.0,0.0,0.0,0.0,0.0,0.0,0.0,0.0,0.0,0.0,0.0,0.0,0.0,0.0,0.0,0.0,0.0,0.0,0.0,0.0,0.0,0.0,0.0,0.0,0.0,0.0,0.0,0.0,0.0,0.0,0.0,0.0,0.0,0.0,0.0,0.0,0.0,0.0,0.0,0.0,0.0,0.0,0.0,0.0,0.0,0.0,0.0,0.0,0.0,0.0,0.0,0.0,0.0,0.0,0.0,0.0,0.0,0.0,0.0,0.0,0.0,0.0,0.0,0.0,0.0,0.0,0.0,0.0,0.0,0.0,0.0,0.0,0.0,0.0,0.0,0.0,0.0,0.0,0.0,0.0,0.0,0.0,0.0,0.0,0.0,0.0,0.0,0.0,0.0,0.0,0.0,0.0,0.0,-0.5204,-0.544,-0.576,-0.6105,-0.749,-0.8531,-0.8874,-1.0268,-1.0826,-1.0071,0.0,0.0,0.0,0.0,0.0,0.0,0.0,0.0,0.0,0.0,0.0,0.0,0.0,0.0,0.0,0.0,0.0,0.0,0.0,0.0,0.0,0.0,0.0,0.0,0.0,0.0,0.0,0.0,0.0,0.0,0.0,0.0,0.0,0.0,0.0,0.0,0.0,0.0,0.0,0.0,0.0,0.0,0.0,0.0,0.0,0.0,0.0,0.0,0.0,0.0,0.0,0.0,0.0,0.0,0.0,0.0,0.0,0.0,0.0,0.0,0.0,0.0,0.0,0.0,0.0,0.0,0.0,0.0,0.0,0.0,0.0,0.0,0.0,0.0,0.0,0.0,0.0,0.0,0.0,0.0,0.0,0.0,0.0,0.0,0.0,0.0,0.0,0.0,0.0,0.0,0.0,0.0,0.0,0.0,0.0,0.0,0.0,0.0,0.0,0.0,0.0,0.0,-0.5199,-0.5411,-0.5548,-0.5583,-0.732,-0.8358,-0.8358,-1.01,-1.0747,-0.9812,0.0,0.0,0.0,0.0,0.0,0.0,0.0,0.0,0.0,0.0,0.0,0.0,0.0,0.0,0.0,0.0,0.0,0.0,0.0,0.0,0.0,0.0,0.0,0.0,0.0,0.0,0.0,0.0,0.0,0.0,0.0,0.0,0.0,0.0,0.0,0.0,0.0,0.0,0.0,0.0,0.0,0.0,0.0,0.0,0.0,0.0,0.0,0.0,0.0,0.0,0.0,0.0,0.0,0.0,0.0,0.0,0.0,0.0,0.0,0.0,0.0,0.0,0.0,0.0,0.0,0.0,0.0,0.0,0.0,0.0,0.0,0.0,0.0,0.0,0.0,0.0,0.0,0.0,0.0,0.0,0.0,0.0,0.0,0.0,0.0,0.0,0.0,0.0,0.0,0.0,0.0,0.0,0.0,0.0,0.0,0.0,0.0,0.0,0.0,0.0,0.0,0.0,-0.535,-0.5339,-0.5456,-0.5575,-0.732,-0.8358,-0.8358,-1.01,-1.0747,0.0,0.0,0.0,0.0,0.0,0.0,0.0,0.0,0.0,0.0,0.0,0.0,0.0,0.0,0.0,0.0,0.0,0.0,0.0,0.0,0.0,0.0,0.0,0.0,0.0,0.0,0.0,0.0,0.0,0.0,0.0,0.0,0.0,0.0,0.0,0.0,0.0,0.0,0.0,0.0,0.0,0.0,0.0,0.0,0.0,0.0,0.0,0.0,0.0,0.0,0.0,0.0,0.0,0.0,0.0,0.0,0.0,0.0,0.0,0.0,0.0,0.0,0.0,0.0,0.0,0.0,0.0,0.0,0.0,0.0,0.0,0.0,0.0,0.0,0.0,0.0,0.0,0.0,0.0,0.0,0.0,0.0,0.0,0.0,0.0,0.0,0.0,0.0,0.0,0.0,0.0,0.0,0.0,0.0,0.0,0.0,0.0,0.0,0.0,0.0,0.0,0.0,0.0,-0.5991,-0.5667,-0.5456,-0.5575,-0.732,-0.8306,-0.8183,-0.971,-1.0504,-0.9569,0.0,0.0,0.0,0.0,0.0,0.0,0.0,0.0,0.0,0.0,0.0,0.0,0.0,0.0,0.0,0.0,0.0,0.0,0.0,0.0,0.0,0.0,0.0,0.0,0.0,0.0,0.0,0.0,0.0,0.0,0.0,0.0,0.0,0.0,0.0,0.0,0.0,0.0,0.0,0.0,0.0,0.0,0.0,0.0,0.0,0.0,0.0,0.0,0.0,0.0,0.0,0.0,0.0,0.0,0.0,0.0,0.0,0.0,0.0,0.0,0.0,0.0,0.0,0.0,0.0,0.0,0.0,0.0,0.0,0.0,0.0,0.0,0.0,0.0,0.0,0.0,0.0,0.0,0.0,0.0,0.0,0.0,0.0,0.0,0.0,0.0,0.0,0.0,0.0,0.0,0.0,0.0,0.0,0.0,0.0,0.0,0.0,0.0,0.0,0.0,0.0,0.0,0.0,-0.5789,-0.5555,-0.6021,-0.7404,-0.8187,-0.8341,-0.9825,-1.0298,-0.9453,0.0,0.0,0.0,0.0,0.0,0.0,0.0,0.0,0.0,0.0,0.0,0.0,0.0,0.0,0.0,0.0,0.0,0.0,0.0,0.0,0.0,0.0,0.0,0.0,0.0,0.0,0.0,0.0,0.0,0.0,0.0,0.0,0.0,0.0,0.0,0.0,0.0,0.0,0.0,0.0,0.0,0.0,0.0,0.0,0.0,0.0,0.0,0.0,0.0,0.0,0.0,0.0,0.0,0.0,0.0,0.0,0.0,0.0,0.0,0.0,0.0,0.0,0.0,0.0,0.0,0.0,0.0,0.0,0.0,0.0,0.0,0.0,0.0,0.0,0.0,0.0,0.0,0.0,0.0,0.0,0.0,0.0,0.0,0.0,0.0,0.0,0.0,0.0,0.0,0.0,0.0,0.0,0.0,0.0,0.0,0.0,0.0,0.0,0.0,0.0,0.0,0.0,0.0,-0.5868,-0.5758,-0.6553,-0.7401,-0.8337,-0.8976,-0.9929,-1.0113,-0.9416,-0.9373,0.0,0.0,0.0,0.0,0.0,0.0,0.0,0.0,0.0,0.0,0.0,0.0,0.0,0.0,0.0,0.0,0.0,0.0,0.0,0.0,0.0,0.0,0.0,0.0,0.0,0.0,0.0,0.0,0.0,0.0,0.0,0.0,0.0,0.0,0.0,0.0,0.0,0.0,0.0,0.0,0.0,0.0,0.0,0.0,0.0,0.0,0.0,0.0,0.0,0.0,0.0,0.0,0.0,0.0,0.0,0.0,0.0,0.0,0.0,0.0,0.0,0.0,0.0,0.0,0.0,0.0,0.0,0.0,0.0,0.0,0.0,0.0,0.0,0.0,0.0,0.0,0.0,0.0,0.0,0.0,0.0,0.0,0.0,0.0,0.0,0.0,0.0,0.0,0.0,0.0,0.0,0.0,0.0,0.0,0.0,0.0,0.0,0.0,0.0,0.0,0.0,0.0,-0.7326,-0.6593,-0.6899,-0.7905,-0.8488,-0.8617,-0.9539,-0.987,-0.9173,-0.9414,0.0,0.0,0.0,0.0,0.0,0.0,0.0,0.0,0.0,0.0,0.0,0.0,0.0,0.0,0.0,0.0,0.0,0.0,0.0,0.0,0.0,0.0,0.0,0.0,0.0,0.0,0.0,0.0,0.0,0.0,0.0,0.0,0.0,0.0,0.0,0.0,0.0,0.0,0.0,0.0,0.0,0.0,0.0,0.0,0.0,0.0,0.0,0.0,0.0,0.0,0.0,0.0,0.0,0.0,0.0,0.0,0.0,0.0,0.0,0.0,0.0,0.0,0.0,0.0,0.0,0.0,0.0,0.0,0.0,0.0,0.0,0.0,0.0,0.0,0.0,0.0,0.0,0.0,0.0,0.0,0.0,0.0,0.0,0.0,0.0,0.0,0.0,0.0,0.0,0.0,0.0,0.0,0.0,0.0,0.0,0.0,0.0,0.0,0.0,0.0,0.0,0.0,-0.7968,-0.7368,-0.6736,-0.7883,-0.8617,-0.9036,-0.9625,-0.9675,-0.9224,-0.9607,0.0,0.0,0.0,0.0,0.0,0.0,0.0,0.0,0.0,0.0,0.0,0.0,0.0,0.0,0.0,0.0,0.0,0.0,0.0,0.0,0.0,0.0,0.0,0.0,0.0,0.0,0.0,0.0,0.0,0.0,0.0,0.0,0.0,0.0,0.0,0.0,0.0,0.0,0.0,0.0,0.0,0.0,0.0,0.0,0.0,0.0,0.0,0.0,0.0,0.0,0.0,0.0,0.0,0.0,0.0,0.0,0.0,0.0,0.0,0.0,0.0,0.0,0.0,0.0,0.0,0.0,0.0,0.0,0.0,0.0,0.0,0.0,0.0,0.0,0.0,0.0,0.0,0.0,0.0,0.0,0.0,0.0,0.0,0.0,0.0,0.0,0.0,0.0,0.0,0.0,0.0,0.0,0.0,0.0,0.0,0.0,0.0,0.0,0.0,0.0,0.0,0.0,0.0,-0.8103,-0.7048,-0.754,-0.8416,-0.9618,-0.9754,-0.9553,-0.9213,0.0,0.0,0.0,0.0,0.0,0.0,0.0,0.0,0.0,0.0,0.0,0.0,0.0,0.0,0.0,0.0,0.0,0.0,0.0,0.0,0.0,0.0,0.0,0.0,0.0,0.0,0.0,0.0,0.0,0.0,0.0,0.0,0.0,0.0,0.0,0.0,0.0,0.0,0.0,0.0,0.0,0.0,0.0,0.0,0.0,0.0,0.0,0.0,0.0,0.0,0.0,0.0,0.0,0.0,0.0,0.0,0.0,0.0,0.0,0.0,0.0,0.0,0.0,0.0,0.0,0.0,0.0,0.0,0.0,0.0,0.0,0.0,0.0,0.0,0.0,0.0,0.0,0.0,0.0,0.0,0.0,0.0,0.0,0.0,0.0,0.0,0.0,0.0,0.0,0.0,0.0,0.0,0.0,0.0,0.0,0.0,0.0,0.0,0.0,0.0,0.0,0.0,0.0,0.0,-0.942,-0.9207,-0.6899,-0.6572,-0.9471,-0.9759,-0.9553,-0.9213,0.0,0.0,0.0,0.0,0.0,0.0,0.0,0.0,0.0,0.0,0.0,0.0,0.0,0.0]}]]]